Time,TemperatureF,DewpointF,PressureIn,WindDirection,WindDirectionDegrees,WindSpeedMPH,WindSpeedGustMPH,Humidity,HourlyPrecipIn,Conditions,Clouds,dailyrainin,SoftwareType,DateUTC
2013-02-06 00:00:00,39.5,18.3,30.04,ENE,59,0.0,2.0,42,0.00,,SKC,0.00,VWS V14.01,2013-02-06 07:00:00,
2013-02-06 00:01:00,39.5,18.3,30.04,ENE,63,4.0,4.0,42,0.00,,SKC,0.00,VWS V14.01,2013-02-06 07:01:00,
2013-02-06 00:02:00,39.5,18.3,30.04,ENE,66,2.0,4.0,42,0.00,,SKC,0.00,VWS V14.01,2013-02-06 07:02:00,
2013-02-06 00:03:00,39.5,18.3,30.04,ENE,63,1.0,3.0,42,0.00,,SKC,0.00,VWS V14.01,2013-02-06 07:03:00,
2013-02-06 00:04:00,39.5,18.3,30.04,ENE,60,1.0,6.0,42,0.00,,SKC,0.00,VWS V14.01,2013-02-06 07:04:00,
2013-02-06 00:05:00,39.4,18.2,30.04,NE,38,1.0,5.0,42,0.00,,SKC,0.00,VWS V14.01,2013-02-06 07:05:00,
2013-02-06 00:06:00,39.4,18.2,30.03,NE,38,2.0,3.0,42,0.00,,SKC,0.00,VWS V14.01,2013-02-06 07:06:00,
2013-02-06 00:07:00,39.3,18.7,30.04,NE,49,0.0,2.0,43,0.00,,SKC,0.00,VWS V14.01,2013-02-06 07:07:00,
2013-02-06 00:08:00,39.3,18.7,30.03,ENE,61,2.0,3.0,43,0.00,,SKC,0.00,VWS V14.01,2013-02-06 07:08:00,
2013-02-06 00:09:00,39.4,18.8,30.03,ENE,65,2.0,4.0,43,0.00,,SKC,0.00,VWS V14.01,2013-02-06 07:09:00,
2013-02-06 00:10:00,39.4,18.8,30.03,ENE,65,0.0,2.0,43,0.00,,SKC,0.00,VWS V14.01,2013-02-06 07:10:00,
2013-02-06 00:11:00,39.5,18.9,30.03,ENE,65,3.0,3.0,43,0.00,,SKC,0.00,VWS V14.01,2013-02-06 07:11:00,
2013-02-06 00:12:00,39.5,18.9,30.03,ENE,69,4.0,4.0,43,0.00,,SKC,0.00,VWS V14.01,2013-02-06 07:12:00,
2013-02-06 00:13:00,39.5,18.3,30.03,ENE,63,1.0,4.0,42,0.00,,SKC,0.00,VWS V14.01,2013-02-06 07:13:00,
2013-02-06 00:14:00,39.4,18.8,30.04,NNE,24,0.0,5.0,43,0.00,,SKC,0.00,VWS V14.01,2013-02-06 07:14:00,
2013-02-06 00:15:00,39.4,18.8,30.04,NE,46,1.0,4.0,43,0.00,,SKC,0.00,VWS V14.01,2013-02-06 07:15:00,
2013-02-06 00:16:00,39.4,18.8,30.03,NE,53,3.0,4.0,43,0.00,,SKC,0.00,VWS V14.01,2013-02-06 07:16:00,
2013-02-06 00:17:00,39.3,18.7,30.03,NE,49,0.0,3.0,43,0.00,,SKC,0.00,VWS V14.01,2013-02-06 07:17:00,
2013-02-06 00:18:00,39.3,18.7,30.03,NE,51,0.0,0.0,43,0.00,,SKC,0.00,VWS V14.01,2013-02-06 07:18:00,
2013-02-06 00:19:00,39.3,18.7,30.03,NE,54,5.0,5.0,43,0.00,,SKC,0.00,VWS V14.01,2013-02-06 07:19:00,
2013-02-06 00:20:00,39.2,18.6,30.03,East,98,6.0,7.0,43,0.00,,SKC,0.00,VWS V14.01,2013-02-06 07:20:00,
2013-02-06 00:21:00,39.2,18.6,30.02,East,90,2.0,6.0,43,0.00,,SKC,0.00,VWS V14.01,2013-02-06 07:21:00,
2013-02-06 00:22:00,39.2,18.6,30.02,East,94,2.0,3.0,43,0.00,,SKC,0.00,VWS V14.01,2013-02-06 07:22:00,
2013-02-06 00:23:00,39.2,18.6,30.03,East,90,2.0,4.0,43,0.00,,SKC,0.00,VWS V14.01,2013-02-06 07:23:00,
2013-02-06 00:24:00,39.2,18.6,30.03,East,89,4.0,5.0,43,0.00,,SKC,0.00,VWS V14.01,2013-02-06 07:24:00,
2013-02-06 00:25:00,39.2,18.6,30.03,East,94,3.0,5.0,43,0.00,,SKC,0.00,VWS V14.01,2013-02-06 07:25:00,
2013-02-06 00:26:00,39.2,18.6,30.03,ENE,63,1.0,9.0,43,0.00,,SKC,0.00,VWS V14.01,2013-02-06 07:26:00,
2013-02-06 00:27:00,39.2,18.6,30.03,East,80,7.0,7.0,43,0.00,,SKC,0.00,VWS V14.01,2013-02-06 07:27:00,
2013-02-06 00:28:00,39.2,18.6,30.03,East,94,4.0,8.0,43,0.00,,SKC,0.00,VWS V14.01,2013-02-06 07:28:00,
2013-02-06 00:29:00,39.2,18.6,30.03,East,93,2.0,5.0,43,0.00,,SKC,0.00,VWS V14.01,2013-02-06 07:29:00,
2013-02-06 00:30:00,39.2,18.6,30.03,East,82,2.0,4.0,43,0.00,,SKC,0.00,VWS V14.01,2013-02-06 07:30:00,
2013-02-06 00:31:00,39.2,18.6,30.03,NE,55,1.0,3.0,43,0.00,,SKC,0.00,VWS V14.01,2013-02-06 07:31:00,
2013-02-06 00:32:00,39.2,18.6,30.03,NE,51,3.0,3.0,43,0.00,,SKC,0.00,VWS V14.01,2013-02-06 07:32:00,
2013-02-06 00:33:00,39.2,18.6,30.03,NE,46,3.0,4.0,43,0.00,,SKC,0.00,VWS V14.01,2013-02-06 07:33:00,
2013-02-06 00:34:00,39.3,18.7,30.03,NE,41,3.0,5.0,43,0.00,,SKC,0.00,VWS V14.01,2013-02-06 07:34:00,
2013-02-06 00:35:00,39.4,18.8,30.03,NNE,28,3.0,7.0,43,0.00,,SKC,0.00,VWS V14.01,2013-02-06 07:35:00,
2013-02-06 00:36:00,39.4,18.8,30.03,NE,36,4.0,5.0,43,0.00,,SKC,0.00,VWS V14.01,2013-02-06 07:36:00,
2013-02-06 00:37:00,39.5,18.9,30.03,ENE,61,2.0,5.0,43,0.00,,SKC,0.00,VWS V14.01,2013-02-06 07:37:00,
2013-02-06 00:38:00,39.6,19.0,30.03,ENE,73,0.0,5.0,43,0.00,,SKC,0.00,VWS V14.01,2013-02-06 07:38:00,
2013-02-06 00:39:00,39.7,18.5,30.02,NE,46,1.0,2.0,42,0.00,,SKC,0.00,VWS V14.01,2013-02-06 07:39:00,
2013-02-06 00:40:00,39.7,18.5,30.03,NNE,13,7.0,7.0,42,0.00,,SKC,0.00,VWS V14.01,2013-02-06 07:40:00,
2013-02-06 00:41:00,39.8,18.6,30.03,NNE,20,6.0,7.0,42,0.00,,SKC,0.00,VWS V14.01,2013-02-06 07:41:00,
2013-02-06 00:42:00,39.9,18.7,30.03,NNE,14,8.0,10.0,42,0.00,,SKC,0.00,VWS V14.01,2013-02-06 07:42:00,
2013-02-06 00:43:00,40.0,18.8,30.03,NE,48,4.0,14.0,42,0.00,,SKC,0.00,VWS V14.01,2013-02-06 07:43:00,
2013-02-06 00:44:00,40.2,19.0,30.03,North,10,7.0,10.0,42,0.00,,SKC,0.00,VWS V14.01,2013-02-06 07:44:00,
2013-02-06 00:45:00,40.3,19.0,30.03,North,11,1.0,7.0,42,0.00,,SKC,0.00,VWS V14.01,2013-02-06 07:45:00,
2013-02-06 00:46:00,40.4,19.1,30.03,North,9,0.0,1.0,42,0.00,,SKC,0.00,VWS V14.01,2013-02-06 07:46:00,
2013-02-06 00:47:00,40.5,18.7,30.03,NNW,348,3.0,10.0,41,0.00,,SKC,0.00,VWS V14.01,2013-02-06 07:47:00,
2013-02-06 00:48:00,40.6,18.8,30.03,NNE,27,0.0,5.0,41,0.00,,SKC,0.00,VWS V14.01,2013-02-06 07:48:00,
2013-02-06 00:49:00,40.7,18.9,30.03,NE,39,4.0,10.0,41,0.00,,SKC,0.00,VWS V14.01,2013-02-06 07:49:00,
2013-02-06 00:50:00,40.8,18.9,30.03,North,10,3.0,6.0,41,0.00,,SKC,0.00,VWS V14.01,2013-02-06 07:50:00,
2013-02-06 00:51:00,40.9,19.0,30.03,North,10,2.0,6.0,41,0.00,,SKC,0.00,VWS V14.01,2013-02-06 07:51:00,
2013-02-06 00:52:00,41.0,19.1,30.03,NNE,24,1.0,5.0,41,0.00,,SKC,0.00,VWS V14.01,2013-02-06 07:52:00,
2013-02-06 00:53:00,41.0,19.1,30.03,NE,40,0.0,3.0,41,0.00,,SKC,0.00,VWS V14.01,2013-02-06 07:53:00,
2013-02-06 00:54:00,41.1,19.2,30.03,NE,39,4.0,4.0,41,0.00,,SKC,0.00,VWS V14.01,2013-02-06 07:54:00,
2013-02-06 00:55:00,41.1,19.2,30.03,NE,37,3.0,7.0,41,0.00,,SKC,0.00,VWS V14.01,2013-02-06 07:55:00,
2013-02-06 00:56:00,41.1,18.6,30.03,NNE,28,3.0,6.0,40,0.00,,SKC,0.00,VWS V14.01,2013-02-06 07:56:00,
2013-02-06 00:57:00,41.1,18.6,30.03,NE,34,4.0,5.0,40,0.00,,SKC,0.00,VWS V14.01,2013-02-06 07:57:00,
2013-02-06 00:58:00,41.2,18.7,30.03,NE,35,0.0,6.0,40,0.00,,SKC,0.00,VWS V14.01,2013-02-06 07:58:00,
2013-02-06 00:59:00,41.2,18.7,30.03,NE,50,2.0,2.0,40,0.00,,SKC,0.00,VWS V14.01,2013-02-06 07:59:00,
2013-02-06 01:00:00,41.3,18.8,30.03,NE,50,1.0,2.0,40,0.00,,SKC,0.00,VWS V14.01,2013-02-06 08:00:00,
2013-02-06 01:01:00,41.3,18.8,30.03,NNE,30,4.0,5.0,40,0.00,,SKC,0.00,VWS V14.01,2013-02-06 08:01:00,
2013-02-06 01:02:00,41.3,18.8,30.03,North,5,6.0,9.0,40,0.00,,SKC,0.00,VWS V14.01,2013-02-06 08:02:00,
2013-02-06 01:03:00,41.3,18.8,30.03,North,9,10.0,10.0,40,0.00,,SKC,0.00,VWS V14.01,2013-02-06 08:03:00,
2013-02-06 01:04:00,41.3,18.8,30.03,NNE,22,6.0,13.0,40,0.00,,SKC,0.00,VWS V14.01,2013-02-06 08:04:00,
2013-02-06 01:05:00,41.3,18.8,30.03,NNE,17,9.0,9.0,40,0.00,,SKC,0.00,VWS V14.01,2013-02-06 08:05:00,
2013-02-06 01:06:00,41.3,18.8,30.03,North,360,7.0,10.0,40,0.00,,SKC,0.00,VWS V14.01,2013-02-06 08:06:00,
2013-02-06 01:07:00,41.3,18.8,30.03,North,5,15.0,15.0,40,0.00,,SKC,0.00,VWS V14.01,2013-02-06 08:07:00,
2013-02-06 01:08:00,41.4,18.9,30.03,NNW,340,12.0,16.0,40,0.00,,SKC,0.00,VWS V14.01,2013-02-06 08:08:00,
2013-02-06 01:09:00,41.4,18.9,30.02,NNW,331,2.0,12.0,40,0.00,,SKC,0.00,VWS V14.01,2013-02-06 08:09:00,
2013-02-06 01:10:00,41.5,19.0,30.02,North,360,5.0,6.0,40,0.00,,SKC,0.00,VWS V14.01,2013-02-06 08:10:00,
2013-02-06 01:11:00,41.6,19.1,30.03,NE,50,7.0,12.0,40,0.00,,SKC,0.00,VWS V14.01,2013-02-06 08:11:00,
2013-02-06 01:12:00,41.7,18.6,30.02,NE,48,2.0,7.0,39,0.00,,SKC,0.00,VWS V14.01,2013-02-06 08:12:00,
2013-02-06 01:13:00,41.8,18.7,30.02,NNE,24,9.0,9.0,39,0.00,,SKC,0.00,VWS V14.01,2013-02-06 08:13:00,
2013-02-06 01:14:00,41.9,18.8,30.02,NNE,12,10.0,10.0,39,0.00,,SKC,0.00,VWS V14.01,2013-02-06 08:14:00,
2013-02-06 01:15:00,42.0,18.9,30.02,NNE,28,5.0,10.0,39,0.00,,SKC,0.00,VWS V14.01,2013-02-06 08:15:00,
2013-02-06 01:16:00,42.0,18.9,30.02,NNE,32,4.0,6.0,39,0.00,,SKC,0.00,VWS V14.01,2013-02-06 08:16:00,
2013-02-06 01:17:00,42.0,18.9,30.02,NNE,32,3.0,4.0,39,0.00,,SKC,0.00,VWS V14.01,2013-02-06 08:17:00,
2013-02-06 01:18:00,42.1,18.9,30.02,NE,40,2.0,6.0,39,0.00,,SKC,0.00,VWS V14.01,2013-02-06 08:18:00,
2013-02-06 01:19:00,42.1,18.9,30.02,NE,48,4.0,6.0,39,0.00,,SKC,0.00,VWS V14.01,2013-02-06 08:19:00,
2013-02-06 01:20:00,42.1,18.9,30.02,NE,49,4.0,6.0,39,0.00,,SKC,0.00,VWS V14.01,2013-02-06 08:20:00,
2013-02-06 01:21:00,42.0,18.9,30.01,NNE,32,6.0,9.0,39,0.00,,SKC,0.00,VWS V14.01,2013-02-06 08:21:00,
2013-02-06 01:22:00,42.0,18.9,30.02,NNE,26,4.0,6.0,39,0.00,,SKC,0.00,VWS V14.01,2013-02-06 08:22:00,
2013-02-06 01:23:00,42.0,18.9,30.02,NNE,16,4.0,5.0,39,0.00,,SKC,0.00,VWS V14.01,2013-02-06 08:23:00,
2013-02-06 01:24:00,42.0,18.9,30.02,NNE,16,2.0,4.0,39,0.00,,SKC,0.00,VWS V14.01,2013-02-06 08:24:00,
2013-02-06 01:25:00,42.0,18.9,30.02,NNE,16,2.0,2.0,39,0.00,,SKC,0.00,VWS V14.01,2013-02-06 08:25:00,
2013-02-06 01:26:00,41.9,18.8,30.02,ENE,72,6.0,6.0,39,0.00,,SKC,0.00,VWS V14.01,2013-02-06 08:26:00,
2013-02-06 01:27:00,41.9,18.8,30.02,East,80,2.0,6.0,39,0.00,,SKC,0.00,VWS V14.01,2013-02-06 08:27:00,
2013-02-06 01:28:00,41.8,18.7,30.02,East,79,2.0,4.0,39,0.00,,SKC,0.00,VWS V14.01,2013-02-06 08:28:00,
2013-02-06 01:29:00,41.8,18.7,30.02,ENE,78,2.0,2.0,39,0.00,,SKC,0.00,VWS V14.01,2013-02-06 08:29:00,
2013-02-06 01:30:00,41.7,18.6,30.02,East,85,0.0,2.0,39,0.00,,SKC,0.00,VWS V14.01,2013-02-06 08:30:00,
2013-02-06 01:31:00,41.6,18.5,30.02,ENE,78,2.0,2.0,39,0.00,,SKC,0.00,VWS V14.01,2013-02-06 08:31:00,
2013-02-06 01:32:00,41.6,18.5,30.02,ENE,78,0.0,2.0,39,0.00,,SKC,0.00,VWS V14.01,2013-02-06 08:32:00,
2013-02-06 01:33:00,41.5,18.4,30.02,ENE,78,0.0,0.0,39,0.00,,SKC,0.00,VWS V14.01,2013-02-06 08:33:00,
2013-02-06 01:34:00,41.4,18.3,30.02,ENE,74,1.0,1.0,39,0.00,,SKC,0.00,VWS V14.01,2013-02-06 08:34:00,
2013-02-06 01:35:00,41.3,18.8,30.02,NNE,29,1.0,3.0,40,0.00,,SKC,0.00,VWS V14.01,2013-02-06 08:35:00,
2013-02-06 01:36:00,41.3,18.2,30.02,NNE,31,0.0,2.0,39,0.00,,SKC,0.00,VWS V14.01,2013-02-06 08:36:00,
2013-02-06 01:37:00,41.2,18.7,30.02,North,360,3.0,6.0,40,0.00,,SKC,0.00,VWS V14.01,2013-02-06 08:37:00,
2013-02-06 01:38:00,41.2,18.1,30.02,North,350,5.0,6.0,39,0.00,,SKC,0.00,VWS V14.01,2013-02-06 08:38:00,
2013-02-06 01:39:00,41.1,18.6,30.02,NE,40,3.0,5.0,40,0.00,,SKC,0.00,VWS V14.01,2013-02-06 08:39:00,
2013-02-06 01:40:00,41.1,18.6,30.01,ENE,60,4.0,12.0,40,0.00,,SKC,0.00,VWS V14.01,2013-02-06 08:40:00,
2013-02-06 01:41:00,41.0,18.5,30.01,East,88,1.0,9.0,40,0.00,,SKC,0.00,VWS V14.01,2013-02-06 08:41:00,
2013-02-06 01:42:00,40.9,18.5,30.02,East,86,2.0,2.0,40,0.00,,SKC,0.00,VWS V14.01,2013-02-06 08:42:00,
2013-02-06 01:43:00,40.9,18.5,30.02,ENE,76,1.0,2.0,40,0.00,,SKC,0.00,VWS V14.01,2013-02-06 08:43:00,
2013-02-06 01:44:00,40.8,18.4,30.01,East,79,0.0,4.0,40,0.00,,SKC,0.00,VWS V14.01,2013-02-06 08:44:00,
2013-02-06 01:45:00,40.8,18.4,30.01,East,83,0.0,1.0,40,0.00,,SKC,0.00,VWS V14.01,2013-02-06 08:45:00,
2013-02-06 01:46:00,40.8,18.4,30.01,East,80,0.0,1.0,40,0.00,,SKC,0.00,VWS V14.01,2013-02-06 08:46:00,
2013-02-06 01:47:00,40.7,18.3,30.01,ENE,78,0.0,0.0,40,0.00,,SKC,0.00,VWS V14.01,2013-02-06 08:47:00,
2013-02-06 01:48:00,40.7,18.3,30.01,ENE,76,0.0,0.0,40,0.00,,SKC,0.00,VWS V14.01,2013-02-06 08:48:00,
2013-02-06 01:49:00,40.7,18.3,30.01,East,80,0.0,1.0,40,0.00,,SKC,0.00,VWS V14.01,2013-02-06 08:49:00,
2013-02-06 01:50:00,40.7,18.3,30.01,East,85,1.0,1.0,40,0.00,,SKC,0.00,VWS V14.01,2013-02-06 08:50:00,
2013-02-06 01:51:00,40.7,18.3,30.02,East,84,0.0,2.0,40,0.00,,SKC,0.00,VWS V14.01,2013-02-06 08:51:00,
2013-02-06 01:52:00,40.7,18.3,30.01,ENE,76,1.0,1.0,40,0.00,,SKC,0.00,VWS V14.01,2013-02-06 08:52:00,
2013-02-06 01:53:00,40.7,18.3,30.01,East,88,2.0,3.0,40,0.00,,SKC,0.00,VWS V14.01,2013-02-06 08:53:00,
2013-02-06 01:54:00,40.6,18.2,30.01,East,79,2.0,3.0,40,0.00,,SKC,0.00,VWS V14.01,2013-02-06 08:54:00,
2013-02-06 01:55:00,40.6,18.2,30.01,NW,315,0.0,11.0,40,0.00,,SKC,0.00,VWS V14.01,2013-02-06 08:55:00,
2013-02-06 01:56:00,40.5,18.1,30.01,NW,313,2.0,6.0,40,0.00,,SKC,0.00,VWS V14.01,2013-02-06 08:56:00,
2013-02-06 01:57:00,40.5,18.1,30.02,NW,313,0.0,3.0,40,0.00,,SKC,0.00,VWS V14.01,2013-02-06 08:57:00,
2013-02-06 01:58:00,40.5,18.1,30.02,NNW,338,4.0,5.0,40,0.00,,SKC,0.00,VWS V14.01,2013-02-06 08:58:00,
2013-02-06 01:59:00,40.4,18.0,30.02,NNW,338,3.0,5.0,40,0.00,,SKC,0.00,VWS V14.01,2013-02-06 08:59:00,
2013-02-06 02:00:00,40.4,18.0,30.02,NNW,338,3.0,5.0,40,0.00,,SKC,0.00,VWS V14.01,2013-02-06 09:00:00,
2013-02-06 02:01:00,40.3,17.9,30.02,NNW,340,0.0,1.0,40,0.00,,SKC,0.00,VWS V14.01,2013-02-06 09:01:00,
2013-02-06 02:02:00,40.3,17.9,30.02,NNW,342,3.0,3.0,40,0.00,,SKC,0.00,VWS V14.01,2013-02-06 09:02:00,
2013-02-06 02:03:00,40.2,17.8,30.02,East,98,1.0,6.0,40,0.00,,SKC,0.00,VWS V14.01,2013-02-06 09:03:00,
2013-02-06 02:04:00,40.2,17.8,30.02,East,96,7.0,7.0,40,0.00,,SKC,0.00,VWS V14.01,2013-02-06 09:04:00,
2013-02-06 02:05:00,40.1,18.3,30.01,SSE,152,4.0,12.0,41,0.00,,SKC,0.00,VWS V14.01,2013-02-06 09:05:00,
2013-02-06 02:06:00,40.1,18.3,30.02,East,94,1.0,6.0,41,0.00,,SKC,0.00,VWS V14.01,2013-02-06 09:06:00,
2013-02-06 02:07:00,40.1,18.3,30.02,East,90,1.0,3.0,41,0.00,,SKC,0.00,VWS V14.01,2013-02-06 09:07:00,
2013-02-06 02:08:00,40.0,18.2,30.02,NNE,32,5.0,6.0,41,0.00,,SKC,0.00,VWS V14.01,2013-02-06 09:08:00,
2013-02-06 02:09:00,40.0,18.2,30.02,NNE,17,11.0,11.0,41,0.00,,SKC,0.00,VWS V14.01,2013-02-06 09:09:00,
2013-02-06 02:10:00,40.0,18.2,30.02,NNE,17,3.0,11.0,41,0.00,,SKC,0.00,VWS V14.01,2013-02-06 09:10:00,
2013-02-06 02:11:00,39.9,18.1,30.02,NNE,16,0.0,4.0,41,0.00,,SKC,0.00,VWS V14.01,2013-02-06 09:11:00,
2013-02-06 02:12:00,39.9,18.1,30.02,North,5,11.0,11.0,41,0.00,,SKC,0.00,VWS V14.01,2013-02-06 09:12:00,
2013-02-06 02:13:00,40.3,18.5,30.01,NNE,20,3.0,11.0,41,0.00,,SKC,0.00,VWS V14.01,2013-02-06 09:13:00,
2013-02-06 02:14:00,40.9,18.5,30.01,NE,34,1.0,3.0,40,0.00,,SKC,0.00,VWS V14.01,2013-02-06 09:14:00,
2013-02-06 02:15:00,41.2,18.7,30.01,NNE,20,5.0,7.0,40,0.00,,SKC,0.00,VWS V14.01,2013-02-06 09:15:00,
2013-02-06 02:16:00,41.4,18.3,30.01,NNE,20,0.0,5.0,39,0.00,,SKC,0.00,VWS V14.01,2013-02-06 09:16:00,
2013-02-06 02:17:00,41.7,18.6,30.01,NNE,19,0.0,1.0,39,0.00,,SKC,0.00,VWS V14.01,2013-02-06 09:17:00,
2013-02-06 02:18:00,41.8,18.7,30.01,NE,41,3.0,3.0,39,0.00,,SKC,0.00,VWS V14.01,2013-02-06 09:18:00,
2013-02-06 02:19:00,41.9,18.8,30.01,ENE,74,1.0,5.0,39,0.00,,SKC,0.00,VWS V14.01,2013-02-06 09:19:00,
2013-02-06 02:20:00,42.0,18.9,30.01,East,79,0.0,2.0,39,0.00,,SKC,0.00,VWS V14.01,2013-02-06 09:20:00,
2013-02-06 02:21:00,42.0,18.2,30.01,East,84,5.0,5.0,38,0.00,,SKC,0.00,VWS V14.01,2013-02-06 09:21:00,
2013-02-06 02:22:00,42.1,18.3,30.01,ENE,78,4.0,5.0,38,0.00,,SKC,0.00,VWS V14.01,2013-02-06 09:22:00,
2013-02-06 02:23:00,42.1,18.3,30.01,East,86,1.0,4.0,38,0.00,,SKC,0.00,VWS V14.01,2013-02-06 09:23:00,
2013-02-06 02:24:00,42.0,18.2,30.01,East,81,4.0,5.0,38,0.00,,SKC,0.00,VWS V14.01,2013-02-06 09:24:00,
2013-02-06 02:25:00,42.0,18.2,30.01,East,84,5.0,6.0,38,0.00,,SKC,0.00,VWS V14.01,2013-02-06 09:25:00,
2013-02-06 02:26:00,41.9,18.2,30.01,East,84,6.0,6.0,38,0.00,,SKC,0.00,VWS V14.01,2013-02-06 09:26:00,
2013-02-06 02:27:00,41.9,18.2,30.01,NE,50,4.0,6.0,38,0.00,,SKC,0.00,VWS V14.01,2013-02-06 09:27:00,
2013-02-06 02:28:00,41.8,18.7,30.01,NE,46,1.0,4.0,39,0.00,,SKC,0.00,VWS V14.01,2013-02-06 09:28:00,
2013-02-06 02:29:00,41.7,18.6,30.00,NNE,32,6.0,7.0,39,0.00,,SKC,0.00,VWS V14.01,2013-02-06 09:29:00,
2013-02-06 02:30:00,41.5,18.4,30.01,NNE,32,6.0,6.0,39,0.00,,SKC,0.00,VWS V14.01,2013-02-06 09:30:00,
2013-02-06 02:31:00,41.4,18.3,30.01,NE,44,5.0,6.0,39,0.00,,SKC,0.00,VWS V14.01,2013-02-06 09:31:00,
2013-02-06 02:32:00,41.3,18.2,30.01,NE,53,0.0,5.0,39,0.00,,SKC,0.00,VWS V14.01,2013-02-06 09:32:00,
2013-02-06 02:33:00,41.2,18.1,30.00,East,89,5.0,7.0,39,0.00,,SKC,0.00,VWS V14.01,2013-02-06 09:33:00,
2013-02-06 02:34:00,41.1,18.0,30.00,East,82,0.0,5.0,39,0.00,,SKC,0.00,VWS V14.01,2013-02-06 09:34:00,
2013-02-06 02:35:00,41.1,18.0,30.01,ENE,78,3.0,4.0,39,0.00,,SKC,0.00,VWS V14.01,2013-02-06 09:35:00,
2013-02-06 02:36:00,41.0,18.0,30.01,ENE,76,3.0,3.0,39,0.00,,SKC,0.00,VWS V14.01,2013-02-06 09:36:00,
2013-02-06 02:37:00,40.9,17.9,30.01,ENE,78,1.0,3.0,39,0.00,,SKC,0.00,VWS V14.01,2013-02-06 09:37:00,
2013-02-06 02:38:00,40.9,17.9,30.01,East,80,1.0,3.0,39,0.00,,SKC,0.00,VWS V14.01,2013-02-06 09:38:00,
2013-02-06 02:39:00,40.9,18.5,30.00,NE,45,3.0,3.0,40,0.00,,SKC,0.00,VWS V14.01,2013-02-06 09:39:00,
2013-02-06 02:40:00,40.8,18.4,30.01,NE,53,2.0,3.0,40,0.00,,SKC,0.00,VWS V14.01,2013-02-06 09:40:00,
2013-02-06 02:41:00,40.7,18.3,30.00,NE,52,0.0,2.0,40,0.00,,SKC,0.00,VWS V14.01,2013-02-06 09:41:00,
2013-02-06 02:42:00,40.7,18.3,30.00,NE,54,0.0,1.0,40,0.00,,SKC,0.00,VWS V14.01,2013-02-06 09:42:00,
2013-02-06 02:43:00,40.7,17.7,30.01,NE,55,1.0,1.0,39,0.00,,SKC,0.00,VWS V14.01,2013-02-06 09:43:00,
2013-02-06 02:44:00,40.6,17.6,30.00,NE,54,1.0,3.0,39,0.00,,SKC,0.00,VWS V14.01,2013-02-06 09:44:00,
2013-02-06 02:45:00,40.5,17.5,30.01,NE,53,6.0,6.0,39,0.00,,SKC,0.00,VWS V14.01,2013-02-06 09:45:00,
2013-02-06 02:46:00,40.4,18.0,30.01,NNE,26,7.0,7.0,40,0.00,,SKC,0.00,VWS V14.01,2013-02-06 09:46:00,
2013-02-06 02:47:00,40.4,18.0,30.01,NE,34,3.0,7.0,40,0.00,,SKC,0.00,VWS V14.01,2013-02-06 09:47:00,
2013-02-06 02:48:00,40.2,17.8,30.01,NNE,28,6.0,6.0,40,0.00,,SKC,0.00,VWS V14.01,2013-02-06 09:48:00,
2013-02-06 02:49:00,40.1,17.7,30.01,NNE,28,0.0,9.0,40,0.00,,SKC,0.00,VWS V14.01,2013-02-06 09:49:00,
2013-02-06 02:50:00,40.1,17.7,30.00,NE,36,3.0,5.0,40,0.00,,SKC,0.00,VWS V14.01,2013-02-06 09:50:00,
2013-02-06 02:51:00,40.0,18.2,30.00,NE,43,2.0,4.0,41,0.00,,SKC,0.00,VWS V14.01,2013-02-06 09:51:00,
2013-02-06 02:52:00,39.9,18.1,30.01,NE,51,2.0,2.0,41,0.00,,SKC,0.00,VWS V14.01,2013-02-06 09:52:00,
2013-02-06 02:53:00,39.9,18.1,30.01,ENE,74,1.0,3.0,41,0.00,,SKC,0.00,VWS V14.01,2013-02-06 09:53:00,
2013-02-06 02:54:00,39.8,18.0,30.01,NE,43,3.0,3.0,41,0.00,,SKC,0.00,VWS V14.01,2013-02-06 09:54:00,
2013-02-06 02:55:00,39.8,18.0,30.01,NE,36,3.0,5.0,41,0.00,,SKC,0.00,VWS V14.01,2013-02-06 09:55:00,
2013-02-06 02:56:00,39.8,18.0,30.01,NE,44,3.0,5.0,41,0.00,,SKC,0.00,VWS V14.01,2013-02-06 09:56:00,
2013-02-06 02:57:00,39.8,18.0,30.01,NE,40,4.0,5.0,41,0.00,,SKC,0.00,VWS V14.01,2013-02-06 09:57:00,
2013-02-06 02:58:00,39.8,18.0,30.01,NE,35,5.0,5.0,41,0.00,,SKC,0.00,VWS V14.01,2013-02-06 09:58:00,
2013-02-06 02:59:00,39.8,18.0,30.00,NNE,19,9.0,9.0,41,0.00,,SKC,0.00,VWS V14.01,2013-02-06 09:59:00,
2013-02-06 03:00:00,39.8,18.0,30.01,NNE,16,3.0,9.0,41,0.00,,SKC,0.00,VWS V14.01,2013-02-06 10:00:00,
2013-02-06 03:01:00,39.8,18.0,30.00,NNE,28,4.0,5.0,41,0.00,,SKC,0.00,VWS V14.01,2013-02-06 10:01:00,
2013-02-06 03:02:00,39.8,18.0,30.00,NE,45,3.0,6.0,41,0.00,,SKC,0.00,VWS V14.01,2013-02-06 10:02:00,
2013-02-06 03:03:00,39.8,18.0,30.00,ENE,59,0.0,3.0,41,0.00,,SKC,0.00,VWS V14.01,2013-02-06 10:03:00,
2013-02-06 03:04:00,39.8,17.5,30.00,ENE,64,1.0,5.0,40,0.00,,SKC,0.00,VWS V14.01,2013-02-06 10:04:00,
2013-02-06 03:05:00,39.8,18.0,30.00,ENE,60,3.0,5.0,41,0.00,,SKC,0.00,VWS V14.01,2013-02-06 10:05:00,
2013-02-06 03:06:00,39.8,18.0,30.00,East,86,3.0,5.0,41,0.00,,SKC,0.00,VWS V14.01,2013-02-06 10:06:00,
2013-02-06 03:07:00,39.8,18.0,30.00,East,86,0.0,3.0,41,0.00,,SKC,0.00,VWS V14.01,2013-02-06 10:07:00,
2013-02-06 03:08:00,39.8,18.0,30.00,ENE,57,2.0,3.0,41,0.00,,SKC,0.00,VWS V14.01,2013-02-06 10:08:00,
2013-02-06 03:09:00,39.8,18.0,30.00,ENE,60,1.0,4.0,41,0.00,,SKC,0.00,VWS V14.01,2013-02-06 10:09:00,
2013-02-06 03:10:00,39.8,18.0,30.00,ENE,58,0.0,1.0,41,0.00,,SKC,0.00,VWS V14.01,2013-02-06 10:10:00,
2013-02-06 03:11:00,39.8,18.0,30.00,ENE,61,0.0,1.0,41,0.00,,SKC,0.00,VWS V14.01,2013-02-06 10:11:00,
2013-02-06 03:12:00,39.8,17.5,29.99,NE,51,0.0,1.0,40,0.00,,SKC,0.00,VWS V14.01,2013-02-06 10:12:00,
2013-02-06 03:13:00,39.7,17.4,29.99,NE,51,0.0,1.0,40,0.00,,SKC,0.00,VWS V14.01,2013-02-06 10:13:00,
2013-02-06 03:14:00,39.7,17.4,29.99,NE,55,0.0,1.0,40,0.00,,SKC,0.00,VWS V14.01,2013-02-06 10:14:00,
2013-02-06 03:15:00,39.7,17.4,29.99,ENE,65,4.0,4.0,40,0.00,,SKC,0.00,VWS V14.01,2013-02-06 10:15:00,
2013-02-06 03:16:00,39.6,17.3,29.99,ENE,59,1.0,4.0,40,0.00,,SKC,0.00,VWS V14.01,2013-02-06 10:16:00,
2013-02-06 03:17:00,39.6,17.9,29.99,ENE,63,3.0,3.0,41,0.00,,SKC,0.00,VWS V14.01,2013-02-06 10:17:00,
2013-02-06 03:18:00,39.5,17.8,29.99,ENE,58,0.0,5.0,41,0.00,,SKC,0.00,VWS V14.01,2013-02-06 10:18:00,
2013-02-06 03:19:00,39.5,17.8,29.99,ENE,57,1.0,3.0,41,0.00,,SKC,0.00,VWS V14.01,2013-02-06 10:19:00,
2013-02-06 03:20:00,39.5,17.8,29.99,ENE,57,0.0,1.0,41,0.00,,SKC,0.00,VWS V14.01,2013-02-06 10:20:00,
2013-02-06 03:21:00,39.4,17.7,29.99,NE,52,3.0,5.0,41,0.00,,SKC,0.00,VWS V14.01,2013-02-06 10:21:00,
2013-02-06 03:22:00,39.3,17.6,29.99,NE,54,3.0,3.0,41,0.00,,SKC,0.00,VWS V14.01,2013-02-06 10:22:00,
2013-02-06 03:23:00,39.3,17.6,29.99,NE,55,2.0,3.0,41,0.00,,SKC,0.00,VWS V14.01,2013-02-06 10:23:00,
2013-02-06 03:24:00,39.3,17.6,29.99,NNE,22,6.0,6.0,41,0.00,,SKC,0.00,VWS V14.01,2013-02-06 10:24:00,
2013-02-06 03:25:00,39.2,17.5,29.99,NNE,24,4.0,7.0,41,0.00,,SKC,0.00,VWS V14.01,2013-02-06 10:25:00,
2013-02-06 03:26:00,39.1,17.4,30.00,ENE,62,3.0,4.0,41,0.00,,SKC,0.00,VWS V14.01,2013-02-06 10:26:00,
2013-02-06 03:27:00,39.1,17.4,29.99,NNE,22,2.0,6.0,41,0.00,,SKC,0.00,VWS V14.01,2013-02-06 10:27:00,
2013-02-06 03:28:00,39.1,17.4,30.00,NNE,21,7.0,7.0,41,0.00,,SKC,0.00,VWS V14.01,2013-02-06 10:28:00,
2013-02-06 03:29:00,39.1,17.4,29.99,NNE,27,2.0,8.0,41,0.00,,SKC,0.00,VWS V14.01,2013-02-06 10:29:00,
2013-02-06 03:30:00,39.2,17.5,29.99,ENE,59,2.0,4.0,41,0.00,,SKC,0.00,VWS V14.01,2013-02-06 10:30:00,
2013-02-06 03:31:00,39.2,17.5,29.99,NE,53,1.0,4.0,41,0.00,,SKC,0.00,VWS V14.01,2013-02-06 10:31:00,
2013-02-06 03:32:00,39.3,17.6,29.99,NE,55,2.0,3.0,41,0.00,,SKC,0.00,VWS V14.01,2013-02-06 10:32:00,
2013-02-06 03:33:00,39.3,17.6,29.99,NE,55,3.0,3.0,41,0.00,,SKC,0.00,VWS V14.01,2013-02-06 10:33:00,
2013-02-06 03:34:00,39.3,17.6,29.99,NE,56,3.0,5.0,41,0.00,,SKC,0.00,VWS V14.01,2013-02-06 10:34:00,
2013-02-06 03:35:00,39.3,17.6,29.99,NNE,22,5.0,6.0,41,0.00,,SKC,0.00,VWS V14.01,2013-02-06 10:35:00,
2013-02-06 03:36:00,39.2,17.5,29.99,NNE,25,5.0,7.0,41,0.00,,SKC,0.00,VWS V14.01,2013-02-06 10:36:00,
2013-02-06 03:37:00,39.2,17.5,29.99,NE,40,2.0,5.0,41,0.00,,SKC,0.00,VWS V14.01,2013-02-06 10:37:00,
2013-02-06 03:38:00,39.1,17.4,29.99,NE,40,5.0,5.0,41,0.00,,SKC,0.00,VWS V14.01,2013-02-06 10:38:00,
2013-02-06 03:39:00,39.1,17.4,29.99,NE,54,1.0,5.0,41,0.00,,SKC,0.00,VWS V14.01,2013-02-06 10:39:00,
2013-02-06 03:40:00,39.1,18.0,29.99,East,93,6.0,6.0,42,0.00,,SKC,0.00,VWS V14.01,2013-02-06 10:40:00,
2013-02-06 03:41:00,39.1,18.0,29.99,ENE,65,1.0,6.0,42,0.00,,SKC,0.00,VWS V14.01,2013-02-06 10:41:00,
2013-02-06 03:42:00,39.1,18.0,29.99,ENE,61,3.0,4.0,42,0.00,,SKC,0.00,VWS V14.01,2013-02-06 10:42:00,
2013-02-06 03:43:00,39.1,18.0,29.99,ENE,69,3.0,3.0,42,0.00,,SKC,0.00,VWS V14.01,2013-02-06 10:43:00,
2013-02-06 03:44:00,39.1,17.4,29.99,East,99,4.0,5.0,41,0.00,,SKC,0.00,VWS V14.01,2013-02-06 10:44:00,
2013-02-06 03:45:00,39.1,17.4,30.00,East,93,3.0,4.0,41,0.00,,SKC,0.00,VWS V14.01,2013-02-06 10:45:00,
2013-02-06 03:46:00,39.1,17.4,30.00,East,91,0.0,3.0,41,0.00,,SKC,0.00,VWS V14.01,2013-02-06 10:46:00,
2013-02-06 03:47:00,39.1,17.4,30.00,East,89,2.0,2.0,41,0.00,,SKC,0.00,VWS V14.01,2013-02-06 10:47:00,
2013-02-06 03:48:00,39.1,17.4,29.99,ENE,71,3.0,3.0,41,0.00,,SKC,0.00,VWS V14.01,2013-02-06 10:48:00,
2013-02-06 03:49:00,39.1,17.4,29.99,ENE,75,2.0,4.0,41,0.00,,SKC,0.00,VWS V14.01,2013-02-06 10:49:00,
2013-02-06 03:50:00,39.1,17.4,29.99,ENE,72,0.0,2.0,41,0.00,,SKC,0.00,VWS V14.01,2013-02-06 10:50:00,
2013-02-06 03:51:00,39.1,17.4,30.00,ENE,71,0.0,2.0,41,0.00,,SKC,0.00,VWS V14.01,2013-02-06 10:51:00,
2013-02-06 03:52:00,39.1,17.4,30.00,ENE,75,3.0,5.0,41,0.00,,SKC,0.00,VWS V14.01,2013-02-06 10:52:00,
2013-02-06 03:53:00,39.1,17.4,29.99,ENE,78,2.0,4.0,41,0.00,,SKC,0.00,VWS V14.01,2013-02-06 10:53:00,
2013-02-06 03:54:00,39.1,17.4,30.00,East,80,0.0,2.0,41,0.00,,SKC,0.00,VWS V14.01,2013-02-06 10:54:00,
2013-02-06 03:55:00,39.1,17.4,30.00,ENE,69,0.0,0.0,41,0.00,,SKC,0.00,VWS V14.01,2013-02-06 10:55:00,
2013-02-06 03:56:00,39.3,17.6,30.00,North,360,0.0,0.0,41,0.00,,SKC,0.00,VWS V14.01,2013-02-06 10:56:00,
2013-02-06 03:57:00,39.3,17.6,30.00,ENE,74,0.0,0.0,41,0.00,,SKC,0.00,VWS V14.01,2013-02-06 10:57:00,
2013-02-06 03:58:00,39.4,17.7,30.00,ENE,71,0.0,1.0,41,0.00,,SKC,0.00,VWS V14.01,2013-02-06 10:58:00,
2013-02-06 03:59:00,39.5,17.8,30.00,ENE,76,5.0,6.0,41,0.00,,SKC,0.00,VWS V14.01,2013-02-06 10:59:00,
2013-02-06 04:00:00,39.5,17.2,29.99,ENE,74,1.0,5.0,40,0.00,,SKC,0.00,VWS V14.01,2013-02-06 11:00:00,
2013-02-06 04:01:00,39.5,17.2,29.99,ENE,74,0.0,3.0,40,0.00,,SKC,0.00,VWS V14.01,2013-02-06 11:01:00,
2013-02-06 04:02:00,39.5,17.2,30.00,ENE,71,0.0,2.0,40,0.00,,SKC,0.00,VWS V14.01,2013-02-06 11:02:00,
2013-02-06 04:03:00,39.5,17.2,30.00,ENE,76,1.0,1.0,40,0.00,,SKC,0.00,VWS V14.01,2013-02-06 11:03:00,
2013-02-06 04:04:00,39.5,17.2,30.00,ENE,76,3.0,3.0,40,0.00,,SKC,0.00,VWS V14.01,2013-02-06 11:04:00,
2013-02-06 04:05:00,39.5,17.2,30.00,East,84,2.0,4.0,40,0.00,,SKC,0.00,VWS V14.01,2013-02-06 11:05:00,
2013-02-06 04:06:00,39.5,17.2,30.00,East,84,2.0,2.0,40,0.00,,SKC,0.00,VWS V14.01,2013-02-06 11:06:00,
2013-02-06 04:07:00,39.4,17.1,30.00,East,81,3.0,3.0,40,0.00,,SKC,0.00,VWS V14.01,2013-02-06 11:07:00,
2013-02-06 04:08:00,39.4,17.1,30.00,ENE,78,1.0,4.0,40,0.00,,SKC,0.00,VWS V14.01,2013-02-06 11:08:00,
2013-02-06 04:09:00,39.3,17.0,30.00,ENE,74,0.0,1.0,40,0.00,,SKC,0.00,VWS V14.01,2013-02-06 11:09:00,
2013-02-06 04:10:00,39.2,16.9,30.00,ENE,75,2.0,2.0,40,0.00,,SKC,0.00,VWS V14.01,2013-02-06 11:10:00,
2013-02-06 04:11:00,39.2,17.5,30.00,ENE,75,3.0,4.0,41,0.00,,SKC,0.00,VWS V14.01,2013-02-06 11:11:00,
2013-02-06 04:12:00,39.1,17.4,30.00,ENE,77,3.0,5.0,41,0.00,,SKC,0.00,VWS V14.01,2013-02-06 11:12:00,
2013-02-06 04:13:00,39.1,17.4,30.00,ENE,76,0.0,3.0,41,0.00,,SKC,0.00,VWS V14.01,2013-02-06 11:13:00,
2013-02-06 04:14:00,39.0,17.3,30.00,ENE,70,1.0,1.0,41,0.00,,SKC,0.00,VWS V14.01,2013-02-06 11:14:00,
2013-02-06 04:15:00,38.9,17.2,30.00,ENE,74,0.0,1.0,41,0.00,,SKC,0.00,VWS V14.01,2013-02-06 11:15:00,
2013-02-06 04:16:00,38.9,17.2,30.00,ENE,78,1.0,3.0,41,0.00,,SKC,0.00,VWS V14.01,2013-02-06 11:16:00,
2013-02-06 04:17:00,38.8,17.1,30.00,ENE,77,2.0,3.0,41,0.00,,SKC,0.00,VWS V14.01,2013-02-06 11:17:00,
2013-02-06 04:18:00,38.7,17.0,30.00,ENE,72,1.0,2.0,41,0.00,,SKC,0.00,VWS V14.01,2013-02-06 11:18:00,
2013-02-06 04:19:00,38.7,17.0,30.00,ENE,60,2.0,4.0,41,0.00,,SKC,0.00,VWS V14.01,2013-02-06 11:19:00,
2013-02-06 04:20:00,38.6,17.0,30.00,NE,51,3.0,4.0,41,0.00,,SKC,0.00,VWS V14.01,2013-02-06 11:20:00,
2013-02-06 04:21:00,38.5,16.9,30.00,NE,44,2.0,5.0,41,0.00,,SKC,0.00,VWS V14.01,2013-02-06 11:21:00,
2013-02-06 04:22:00,38.5,17.4,30.00,ENE,66,0.0,3.0,42,0.00,,SKC,0.00,VWS V14.01,2013-02-06 11:22:00,
2013-02-06 04:23:00,38.4,17.3,30.00,ENE,64,0.0,1.0,42,0.00,,SKC,0.00,VWS V14.01,2013-02-06 11:23:00,
2013-02-06 04:24:00,38.4,17.3,30.00,ENE,63,1.0,5.0,42,0.00,,SKC,0.00,VWS V14.01,2013-02-06 11:24:00,
2013-02-06 04:25:00,38.4,17.3,30.00,NE,54,1.0,3.0,42,0.00,,SKC,0.00,VWS V14.01,2013-02-06 11:25:00,
2013-02-06 04:26:00,38.3,17.2,30.00,NE,56,3.0,3.0,42,0.00,,SKC,0.00,VWS V14.01,2013-02-06 11:26:00,
2013-02-06 04:27:00,38.3,17.2,30.00,NE,41,2.0,5.0,42,0.00,,SKC,0.00,VWS V14.01,2013-02-06 11:27:00,
2013-02-06 04:28:00,38.3,17.2,30.00,NNE,29,6.0,6.0,42,0.00,,SKC,0.00,VWS V14.01,2013-02-06 11:28:00,
2013-02-06 04:29:00,38.2,17.1,30.00,NNE,32,2.0,6.0,42,0.00,,SKC,0.00,VWS V14.01,2013-02-06 11:29:00,
2013-02-06 04:30:00,38.2,17.1,30.00,NE,53,1.0,3.0,42,0.00,,SKC,0.00,VWS V14.01,2013-02-06 11:30:00,
2013-02-06 04:31:00,38.1,17.0,30.00,NE,55,4.0,4.0,42,0.00,,SKC,0.00,VWS V14.01,2013-02-06 11:31:00,
2013-02-06 04:32:00,38.2,17.1,30.00,NE,51,0.0,4.0,42,0.00,,SKC,0.00,VWS V14.01,2013-02-06 11:32:00,
2013-02-06 04:33:00,38.1,17.0,30.00,NE,49,0.0,0.0,42,0.00,,SKC,0.00,VWS V14.01,2013-02-06 11:33:00,
2013-02-06 04:34:00,38.2,17.1,30.00,North,360,0.0,1.0,42,0.00,,SKC,0.00,VWS V14.01,2013-02-06 11:34:00,
2013-02-06 04:35:00,38.2,17.1,30.00,NE,56,0.0,1.0,42,0.00,,SKC,0.00,VWS V14.01,2013-02-06 11:35:00,
2013-02-06 04:36:00,38.2,17.1,30.00,ENE,63,4.0,4.0,42,0.00,,SKC,0.00,VWS V14.01,2013-02-06 11:36:00,
2013-02-06 04:37:00,38.2,17.1,30.00,NE,52,0.0,5.0,42,0.00,,SKC,0.00,VWS V14.01,2013-02-06 11:37:00,
2013-02-06 04:38:00,38.2,17.1,30.00,ENE,73,4.0,4.0,42,0.00,,SKC,0.00,VWS V14.01,2013-02-06 11:38:00,
2013-02-06 04:39:00,38.2,17.1,30.00,ENE,73,2.0,8.0,42,0.00,,SKC,0.00,VWS V14.01,2013-02-06 11:39:00,
2013-02-06 04:40:00,38.2,17.1,30.00,NE,50,2.0,3.0,42,0.00,,SKC,0.00,VWS V14.01,2013-02-06 11:40:00,
2013-02-06 04:41:00,38.2,17.1,30.00,NE,53,1.0,3.0,42,0.00,,SKC,0.00,VWS V14.01,2013-02-06 11:41:00,
2013-02-06 04:42:00,38.2,17.1,30.00,NE,52,4.0,4.0,42,0.00,,SKC,0.00,VWS V14.01,2013-02-06 11:42:00,
2013-02-06 04:43:00,38.2,17.1,30.00,East,96,3.0,5.0,42,0.00,,SKC,0.00,VWS V14.01,2013-02-06 11:43:00,
2013-02-06 04:44:00,38.2,17.1,30.00,East,99,2.0,4.0,42,0.00,,SKC,0.00,VWS V14.01,2013-02-06 11:44:00,
2013-02-06 04:45:00,38.2,17.1,30.00,East,99,3.0,6.0,42,0.00,,SKC,0.00,VWS V14.01,2013-02-06 11:45:00,
2013-02-06 04:46:00,38.1,17.0,30.00,ESE,105,2.0,4.0,42,0.00,,SKC,0.00,VWS V14.01,2013-02-06 11:46:00,
2013-02-06 04:47:00,38.0,17.0,30.00,East,99,1.0,3.0,42,0.00,,SKC,0.00,VWS V14.01,2013-02-06 11:47:00,
2013-02-06 04:48:00,38.0,17.0,30.00,ENE,78,0.0,2.0,42,0.00,,SKC,0.00,VWS V14.01,2013-02-06 11:48:00,
2013-02-06 04:49:00,38.0,17.0,30.00,NE,50,0.0,3.0,42,0.00,,SKC,0.00,VWS V14.01,2013-02-06 11:49:00,
2013-02-06 04:50:00,37.9,16.9,30.00,ENE,58,0.0,5.0,42,0.00,,SKC,0.00,VWS V14.01,2013-02-06 11:50:00,
2013-02-06 04:51:00,37.8,16.8,30.00,NE,49,2.0,4.0,42,0.00,,SKC,0.00,VWS V14.01,2013-02-06 11:51:00,
2013-02-06 04:52:00,37.8,16.8,30.00,NE,46,3.0,3.0,42,0.00,,SKC,0.00,VWS V14.01,2013-02-06 11:52:00,
2013-02-06 04:53:00,37.7,17.2,30.00,NNE,22,3.0,6.0,43,0.00,,SKC,0.00,VWS V14.01,2013-02-06 11:53:00,
2013-02-06 04:54:00,37.7,17.2,30.00,NNE,26,2.0,4.0,43,0.00,,SKC,0.00,VWS V14.01,2013-02-06 11:54:00,
2013-02-06 04:55:00,37.6,17.1,30.00,NE,43,0.0,5.0,43,0.00,,SKC,0.00,VWS V14.01,2013-02-06 11:55:00,
2013-02-06 04:56:00,37.6,17.1,30.00,NE,43,0.0,5.0,43,0.00,,SKC,0.00,VWS V14.01,2013-02-06 11:56:00,
2013-02-06 04:57:00,37.5,17.0,30.00,NE,39,1.0,2.0,43,0.00,,SKC,0.00,VWS V14.01,2013-02-06 11:57:00,
2013-02-06 04:58:00,37.5,17.0,30.00,NE,36,1.0,1.0,43,0.00,,SKC,0.00,VWS V14.01,2013-02-06 11:58:00,
2013-02-06 04:59:00,37.4,17.0,30.00,NE,36,0.0,2.0,43,0.00,,SKC,0.00,VWS V14.01,2013-02-06 11:59:00,
2013-02-06 05:00:00,37.3,16.9,30.00,NNE,26,3.0,3.0,43,0.00,,SKC,0.00,VWS V14.01,2013-02-06 12:00:00,
2013-02-06 05:01:00,37.1,16.7,30.01,NE,34,1.0,3.0,43,0.00,,SKC,0.00,VWS V14.01,2013-02-06 12:01:00,
2013-02-06 05:02:00,37.0,16.6,30.00,NNE,26,0.0,1.0,43,0.00,,SKC,0.00,VWS V14.01,2013-02-06 12:02:00,
2013-02-06 05:03:00,37.1,16.7,30.00,NNE,27,0.0,1.0,43,0.00,,SKC,0.00,VWS V14.01,2013-02-06 12:03:00,
2013-02-06 05:04:00,37.1,16.7,30.00,NNE,24,3.0,3.0,43,0.00,,SKC,0.00,VWS V14.01,2013-02-06 12:04:00,
2013-02-06 05:05:00,37.1,16.7,30.00,NNE,32,0.0,3.0,43,0.00,,SKC,0.00,VWS V14.01,2013-02-06 12:05:00,
2013-02-06 05:06:00,37.1,16.7,30.00,NE,44,1.0,3.0,43,0.00,,SKC,0.00,VWS V14.01,2013-02-06 12:06:00,
2013-02-06 05:07:00,37.1,16.7,30.00,NE,46,1.0,4.0,43,0.00,,SKC,0.00,VWS V14.01,2013-02-06 12:07:00,
2013-02-06 05:08:00,37.2,16.8,30.00,NE,47,0.0,2.0,43,0.00,,SKC,0.00,VWS V14.01,2013-02-06 12:08:00,
2013-02-06 05:09:00,37.2,16.8,30.00,NE,53,0.0,2.0,43,0.00,,SKC,0.00,VWS V14.01,2013-02-06 12:09:00,
2013-02-06 05:10:00,37.2,16.8,30.00,NE,56,0.0,0.0,43,0.00,,SKC,0.00,VWS V14.01,2013-02-06 12:10:00,
2013-02-06 05:11:00,37.2,16.8,30.00,NE,53,0.0,0.0,43,0.00,,SKC,0.00,VWS V14.01,2013-02-06 12:11:00,
2013-02-06 05:12:00,37.2,16.8,30.00,NE,56,0.0,0.0,43,0.00,,SKC,0.00,VWS V14.01,2013-02-06 12:12:00,
2013-02-06 05:13:00,37.2,16.8,30.00,NE,52,1.0,2.0,43,0.00,,SKC,0.00,VWS V14.01,2013-02-06 12:13:00,
2013-02-06 05:14:00,37.3,16.9,30.00,NE,49,2.0,2.0,43,0.00,,SKC,0.00,VWS V14.01,2013-02-06 12:14:00,
2013-02-06 05:15:00,37.2,16.8,30.00,NE,56,0.0,2.0,43,0.00,,SKC,0.00,VWS V14.01,2013-02-06 12:15:00,
2013-02-06 05:16:00,37.3,16.9,30.00,NE,53,0.0,1.0,43,0.00,,SKC,0.00,VWS V14.01,2013-02-06 12:16:00,
2013-02-06 05:17:00,37.2,16.8,30.00,NE,55,2.0,2.0,43,0.00,,SKC,0.00,VWS V14.01,2013-02-06 12:17:00,
2013-02-06 05:18:00,37.2,16.8,30.00,NE,53,0.0,3.0,43,0.00,,SKC,0.00,VWS V14.01,2013-02-06 12:18:00,
2013-02-06 05:19:00,37.2,16.8,30.00,NE,54,2.0,2.0,43,0.00,,SKC,0.00,VWS V14.01,2013-02-06 12:19:00,
2013-02-06 05:20:00,37.2,16.8,30.00,ENE,59,0.0,3.0,43,0.00,,SKC,0.00,VWS V14.01,2013-02-06 12:20:00,
2013-02-06 05:21:00,37.2,16.8,30.00,ENE,59,0.0,1.0,43,0.00,,SKC,0.00,VWS V14.01,2013-02-06 12:21:00,
2013-02-06 05:22:00,37.2,16.8,30.00,ENE,57,0.0,1.0,43,0.00,,SKC,0.00,VWS V14.01,2013-02-06 12:22:00,
2013-02-06 05:23:00,37.2,16.8,30.00,NE,53,0.0,2.0,43,0.00,,SKC,0.00,VWS V14.01,2013-02-06 12:23:00,
2013-02-06 05:24:00,37.2,16.8,30.00,NE,53,1.0,1.0,43,0.00,,SKC,0.00,VWS V14.01,2013-02-06 12:24:00,
2013-02-06 05:25:00,37.2,16.8,30.00,NE,56,2.0,2.0,43,0.00,,SKC,0.00,VWS V14.01,2013-02-06 12:25:00,
2013-02-06 05:26:00,37.2,16.8,30.00,NE,51,2.0,4.0,43,0.00,,SKC,0.00,VWS V14.01,2013-02-06 12:26:00,
2013-02-06 05:27:00,37.2,16.8,30.00,ENE,59,0.0,2.0,43,0.00,,SKC,0.00,VWS V14.01,2013-02-06 12:27:00,
2013-02-06 05:28:00,37.2,16.8,30.00,NE,53,1.0,2.0,43,0.00,,SKC,0.00,VWS V14.01,2013-02-06 12:28:00,
2013-02-06 05:29:00,37.2,16.8,30.00,NE,53,2.0,2.0,43,0.00,,SKC,0.00,VWS V14.01,2013-02-06 12:29:00,
2013-02-06 05:30:00,37.1,16.7,30.00,NE,51,1.0,4.0,43,0.00,,SKC,0.00,VWS V14.01,2013-02-06 12:30:00,
2013-02-06 05:31:00,37.1,16.7,30.00,NE,50,0.0,2.0,43,0.00,,SKC,0.00,VWS V14.01,2013-02-06 12:31:00,
2013-02-06 05:32:00,37.1,16.7,30.00,NE,55,1.0,1.0,43,0.00,,SKC,0.00,VWS V14.01,2013-02-06 12:32:00,
2013-02-06 05:33:00,37.1,16.7,30.00,ENE,57,0.0,1.0,43,0.00,,SKC,0.00,VWS V14.01,2013-02-06 12:33:00,
2013-02-06 05:34:00,37.1,16.7,30.00,NE,55,0.0,0.0,43,0.00,,SKC,0.00,VWS V14.01,2013-02-06 12:34:00,
2013-02-06 05:35:00,37.1,16.7,30.00,NE,55,0.0,0.0,43,0.00,,SKC,0.00,VWS V14.01,2013-02-06 12:35:00,
2013-02-06 05:36:00,37.1,16.7,30.00,NE,55,0.0,1.0,43,0.00,,SKC,0.00,VWS V14.01,2013-02-06 12:36:00,
2013-02-06 05:37:00,37.1,16.7,30.00,ENE,58,0.0,0.0,43,0.00,,SKC,0.00,VWS V14.01,2013-02-06 12:37:00,
2013-02-06 05:38:00,37.1,16.7,30.00,ENE,57,0.0,0.0,43,0.00,,SKC,0.00,VWS V14.01,2013-02-06 12:38:00,
2013-02-06 05:39:00,37.1,16.7,30.00,NE,55,0.0,0.0,43,0.00,,SKC,0.00,VWS V14.01,2013-02-06 12:39:00,
2013-02-06 05:40:00,37.1,16.7,30.00,ENE,59,0.0,0.0,43,0.00,,SKC,0.00,VWS V14.01,2013-02-06 12:40:00,
2013-02-06 05:41:00,37.1,16.7,30.00,ENE,59,0.0,0.0,43,0.00,,SKC,0.00,VWS V14.01,2013-02-06 12:41:00,
2013-02-06 05:42:00,37.1,16.7,30.00,ENE,57,0.0,0.0,43,0.00,,SKC,0.00,VWS V14.01,2013-02-06 12:42:00,
2013-02-06 05:43:00,37.1,16.7,30.00,NE,55,1.0,2.0,43,0.00,,SKC,0.00,VWS V14.01,2013-02-06 12:43:00,
2013-02-06 05:44:00,37.0,16.6,30.00,NE,55,2.0,3.0,43,0.00,,SKC,0.00,VWS V14.01,2013-02-06 12:44:00,
2013-02-06 05:45:00,37.0,16.6,30.00,ENE,65,2.0,3.0,43,0.00,,SKC,0.00,VWS V14.01,2013-02-06 12:45:00,
2013-02-06 05:46:00,37.0,16.6,30.00,ENE,65,4.0,4.0,43,0.00,,SKC,0.00,VWS V14.01,2013-02-06 12:46:00,
2013-02-06 05:47:00,36.9,16.5,30.00,ENE,63,2.0,4.0,43,0.00,,SKC,0.00,VWS V14.01,2013-02-06 12:47:00,
2013-02-06 05:48:00,36.9,17.0,30.00,East,93,4.0,4.0,44,0.00,,SKC,0.00,VWS V14.01,2013-02-06 12:48:00,
2013-02-06 05:49:00,36.7,16.9,30.00,SE,138,4.0,5.0,44,0.00,,SKC,0.00,VWS V14.01,2013-02-06 12:49:00,
2013-02-06 05:50:00,36.5,16.7,30.01,South,186,3.0,6.0,44,0.00,,SKC,0.00,VWS V14.01,2013-02-06 12:50:00,
2013-02-06 05:51:00,36.4,16.6,30.01,South,184,2.0,4.0,44,0.00,,SKC,0.00,VWS V14.01,2013-02-06 12:51:00,
2013-02-06 05:52:00,36.3,16.5,30.01,South,182,3.0,4.0,44,0.00,,SKC,0.00,VWS V14.01,2013-02-06 12:52:00,
2013-02-06 05:53:00,36.3,17.0,30.01,South,186,1.0,4.0,45,0.00,,SKC,0.00,VWS V14.01,2013-02-06 12:53:00,
2013-02-06 05:54:00,36.3,17.0,30.01,North,360,0.0,2.0,45,0.00,,SKC,0.00,VWS V14.01,2013-02-06 12:54:00,
2013-02-06 05:55:00,36.4,16.6,30.00,South,184,0.0,0.0,44,0.00,,SKC,0.00,VWS V14.01,2013-02-06 12:55:00,
2013-02-06 05:56:00,36.6,16.8,30.01,South,182,1.0,1.0,44,0.00,,SKC,0.00,VWS V14.01,2013-02-06 12:56:00,
2013-02-06 05:57:00,36.7,16.9,30.01,South,188,0.0,1.0,44,0.00,,SKC,0.00,VWS V14.01,2013-02-06 12:57:00,
2013-02-06 05:58:00,36.8,17.0,30.00,South,184,0.0,1.0,44,0.00,,SKC,0.00,VWS V14.01,2013-02-06 12:58:00,
2013-02-06 05:59:00,36.9,17.0,30.00,South,183,0.0,0.0,44,0.00,,SKC,0.00,VWS V14.01,2013-02-06 12:59:00,
2013-02-06 06:00:00,37.0,16.6,30.00,South,181,0.0,0.0,43,0.00,,SKC,0.00,VWS V14.01,2013-02-06 13:00:00,
2013-02-06 06:01:00,37.1,16.7,30.01,South,187,0.0,0.0,43,0.00,,SKC,0.00,VWS V14.01,2013-02-06 13:01:00,
2013-02-06 06:02:00,37.1,16.7,30.00,South,186,0.0,0.0,43,0.00,,SKC,0.00,VWS V14.01,2013-02-06 13:02:00,
2013-02-06 06:03:00,37.1,16.7,30.00,South,187,0.0,0.0,43,0.00,,SKC,0.00,VWS V14.01,2013-02-06 13:03:00,
2013-02-06 06:04:00,37.1,16.7,30.00,South,184,0.0,0.0,43,0.00,,SKC,0.00,VWS V14.01,2013-02-06 13:04:00,
2013-02-06 06:05:00,37.1,16.7,30.01,South,188,0.0,0.0,43,0.00,,SKC,0.00,VWS V14.01,2013-02-06 13:05:00,
2013-02-06 06:06:00,37.1,16.7,30.01,South,184,1.0,1.0,43,0.00,,SKC,0.00,VWS V14.01,2013-02-06 13:06:00,
2013-02-06 06:07:00,37.0,16.6,30.01,South,189,5.0,5.0,43,0.00,,SKC,0.00,VWS V14.01,2013-02-06 13:07:00,
2013-02-06 06:08:00,37.0,16.6,30.01,South,185,2.0,5.0,43,0.00,,SKC,0.00,VWS V14.01,2013-02-06 13:08:00,
2013-02-06 06:09:00,37.0,17.1,30.01,South,184,2.0,3.0,44,0.00,,SKC,0.00,VWS V14.01,2013-02-06 13:09:00,
2013-02-06 06:10:00,37.0,16.6,30.01,South,184,3.0,3.0,43,0.00,,SKC,0.00,VWS V14.01,2013-02-06 13:10:00,
2013-02-06 06:11:00,37.0,16.6,30.00,North,360,0.0,3.0,43,0.00,,SKC,0.00,VWS V14.01,2013-02-06 13:11:00,
2013-02-06 06:12:00,37.0,16.6,30.01,North,360,0.0,1.0,43,0.00,,SKC,0.00,VWS V14.01,2013-02-06 13:12:00,
2013-02-06 06:13:00,37.0,16.6,30.01,South,183,0.0,0.0,43,0.00,,SKC,0.00,VWS V14.01,2013-02-06 13:13:00,
2013-02-06 06:14:00,37.0,16.6,30.00,South,186,0.0,0.0,43,0.00,,SKC,0.00,VWS V14.01,2013-02-06 13:14:00,
2013-02-06 06:15:00,36.9,16.5,30.00,South,189,0.0,0.0,43,0.00,,SKC,0.00,VWS V14.01,2013-02-06 13:15:00,
2013-02-06 06:16:00,36.9,17.0,30.01,South,186,2.0,3.0,44,0.00,,SKC,0.00,VWS V14.01,2013-02-06 13:16:00,
2013-02-06 06:17:00,36.9,17.0,30.01,South,190,2.0,3.0,44,0.00,,SKC,0.00,VWS V14.01,2013-02-06 13:17:00,
2013-02-06 06:18:00,36.8,17.0,30.01,South,182,0.0,2.0,44,0.00,,SKC,0.00,VWS V14.01,2013-02-06 13:18:00,
2013-02-06 06:19:00,36.8,17.0,30.01,South,184,0.0,0.0,44,0.00,,SKC,0.00,VWS V14.01,2013-02-06 13:19:00,
2013-02-06 06:20:00,36.8,17.0,30.01,South,188,0.0,0.0,44,0.00,,SKC,0.00,VWS V14.01,2013-02-06 13:20:00,
2013-02-06 06:21:00,36.8,17.0,30.01,South,186,0.0,0.0,44,0.00,,SKC,0.00,VWS V14.01,2013-02-06 13:21:00,
2013-02-06 06:22:00,36.8,17.0,30.01,South,186,0.0,0.0,44,0.00,,SKC,0.00,VWS V14.01,2013-02-06 13:22:00,
2013-02-06 06:23:00,36.9,17.0,30.01,South,184,0.0,1.0,44,0.00,,SKC,0.00,VWS V14.01,2013-02-06 13:23:00,
2013-02-06 06:24:00,36.8,17.0,30.01,South,182,0.0,0.0,44,0.00,,SKC,0.00,VWS V14.01,2013-02-06 13:24:00,
2013-02-06 06:25:00,36.8,17.0,30.01,South,189,0.0,0.0,44,0.00,,SKC,0.00,VWS V14.01,2013-02-06 13:25:00,
2013-02-06 06:26:00,36.8,17.0,30.01,South,186,0.0,0.0,44,0.00,,SKC,0.00,VWS V14.01,2013-02-06 13:26:00,
2013-02-06 06:27:00,36.8,17.0,30.01,South,188,0.0,0.0,44,0.00,,SKC,0.00,VWS V14.01,2013-02-06 13:27:00,
2013-02-06 06:28:00,36.8,17.0,30.01,South,185,1.0,1.0,44,0.00,,SKC,0.00,VWS V14.01,2013-02-06 13:28:00,
2013-02-06 06:29:00,36.8,17.0,30.00,South,184,0.0,2.0,44,0.00,,SKC,0.00,VWS V14.01,2013-02-06 13:29:00,
2013-02-06 06:30:00,36.8,17.0,30.01,South,185,0.0,0.0,44,0.00,,SKC,0.00,VWS V14.01,2013-02-06 13:30:00,
2013-02-06 06:31:00,36.7,16.9,30.01,South,178,1.0,1.0,44,0.00,,SKC,0.00,VWS V14.01,2013-02-06 13:31:00,
2013-02-06 06:32:00,36.7,16.9,30.01,South,180,1.0,1.0,44,0.00,,SKC,0.00,VWS V14.01,2013-02-06 13:32:00,
2013-02-06 06:33:00,36.7,16.9,30.01,South,184,0.0,2.0,44,0.00,,SKC,0.00,VWS V14.01,2013-02-06 13:33:00,
2013-02-06 06:34:00,36.6,16.8,30.01,North,360,0.0,1.0,44,0.00,,SKC,0.00,VWS V14.01,2013-02-06 13:34:00,
2013-02-06 06:35:00,36.6,16.8,30.01,South,184,2.0,2.0,44,0.00,,SKC,0.00,VWS V14.01,2013-02-06 13:35:00,
2013-02-06 06:36:00,36.5,16.7,30.01,South,184,3.0,3.0,44,0.00,,SKC,0.00,VWS V14.01,2013-02-06 13:36:00,
2013-02-06 06:37:00,36.5,16.7,30.01,SSW,206,5.0,5.0,44,0.00,,SKC,0.00,VWS V14.01,2013-02-06 13:37:00,
2013-02-06 06:38:00,36.4,16.6,30.01,SW,221,4.0,5.0,44,0.00,,SKC,0.00,VWS V14.01,2013-02-06 13:38:00,
2013-02-06 06:39:00,36.2,16.9,30.01,SW,224,3.0,4.0,45,0.00,,SKC,0.00,VWS V14.01,2013-02-06 13:39:00,
2013-02-06 06:40:00,36.1,16.8,30.01,West,270,4.0,4.0,45,0.00,,SKC,0.00,VWS V14.01,2013-02-06 13:40:00,
2013-02-06 06:41:00,36.0,16.7,30.01,North,360,3.0,4.0,45,0.00,,SKC,0.00,VWS V14.01,2013-02-06 13:41:00,
2013-02-06 06:42:00,36.0,16.7,30.01,West,267,2.0,3.0,45,0.00,,SKC,0.00,VWS V14.01,2013-02-06 13:42:00,
2013-02-06 06:43:00,36.1,16.8,30.01,West,274,2.0,3.0,45,0.00,,SKC,0.00,VWS V14.01,2013-02-06 13:43:00,
2013-02-06 06:44:00,36.2,16.9,30.01,West,269,2.0,3.0,45,0.00,,SKC,0.00,VWS V14.01,2013-02-06 13:44:00,
2013-02-06 06:45:00,36.2,16.9,30.01,West,277,2.0,4.0,45,0.00,,SKC,0.00,VWS V14.01,2013-02-06 13:45:00,
2013-02-06 06:46:00,36.2,16.9,30.01,North,360,0.0,3.0,45,0.00,,SKC,0.00,VWS V14.01,2013-02-06 13:46:00,
2013-02-06 06:47:00,36.2,16.9,30.01,West,277,0.0,0.0,45,0.00,,SKC,0.00,VWS V14.01,2013-02-06 13:47:00,
2013-02-06 06:48:00,36.1,16.8,30.01,North,360,0.0,0.0,45,0.00,,SKC,0.00,VWS V14.01,2013-02-06 13:48:00,
2013-02-06 06:49:00,36.1,16.8,30.01,West,273,0.0,1.0,45,0.00,,SKC,0.00,VWS V14.01,2013-02-06 13:49:00,
2013-02-06 06:50:00,36.2,16.9,30.01,West,276,0.0,0.0,45,0.00,,SKC,0.00,VWS V14.01,2013-02-06 13:50:00,
2013-02-06 06:51:00,36.2,16.9,30.01,West,275,0.0,1.0,45,0.00,,SKC,0.00,VWS V14.01,2013-02-06 13:51:00,
2013-02-06 06:52:00,36.2,16.9,30.01,West,276,0.0,0.0,45,0.00,,SKC,0.00,VWS V14.01,2013-02-06 13:52:00,
2013-02-06 06:53:00,36.2,16.9,30.01,West,277,0.0,0.0,45,0.00,,SKC,0.00,VWS V14.01,2013-02-06 13:53:00,
2013-02-06 06:54:00,36.2,16.9,30.02,West,277,0.0,0.0,45,0.00,,SKC,0.00,VWS V14.01,2013-02-06 13:54:00,
2013-02-06 06:55:00,36.2,16.9,30.02,West,273,0.0,0.0,45,0.00,,SKC,0.00,VWS V14.01,2013-02-06 13:55:00,
2013-02-06 06:56:00,36.2,16.9,30.02,West,274,0.0,1.0,45,0.00,,SKC,0.00,VWS V14.01,2013-02-06 13:56:00,
2013-02-06 06:57:00,36.2,16.9,30.02,West,275,0.0,0.0,45,0.00,,SKC,0.00,VWS V14.01,2013-02-06 13:57:00,
2013-02-06 06:58:00,36.3,17.0,30.01,West,277,0.0,0.0,45,0.00,,SKC,0.00,VWS V14.01,2013-02-06 13:58:00,
2013-02-06 06:59:00,36.3,17.0,30.02,West,277,2.0,2.0,45,0.00,,SKC,0.00,VWS V14.01,2013-02-06 13:59:00,
2013-02-06 07:00:00,36.3,17.0,30.01,West,277,2.0,2.0,45,0.00,,SKC,0.00,VWS V14.01,2013-02-06 14:00:00,
2013-02-06 07:01:00,36.2,16.9,30.01,West,272,0.0,2.0,45,0.00,,SKC,0.00,VWS V14.01,2013-02-06 14:01:00,
2013-02-06 07:02:00,36.2,16.9,30.01,North,360,0.0,1.0,45,0.00,,SKC,0.00,VWS V14.01,2013-02-06 14:02:00,
2013-02-06 07:03:00,36.2,16.9,30.01,West,274,0.0,2.0,45,0.00,,SKC,0.00,VWS V14.01,2013-02-06 14:03:00,
2013-02-06 07:04:00,36.1,16.8,30.02,West,278,0.0,0.0,45,0.00,,SKC,0.00,VWS V14.01,2013-02-06 14:04:00,
2013-02-06 07:05:00,36.1,16.8,30.02,West,273,5.0,5.0,45,0.00,,SKC,0.00,VWS V14.01,2013-02-06 14:05:00,
2013-02-06 07:06:00,36.1,16.8,30.02,West,277,3.0,5.0,45,0.00,,SKC,0.00,VWS V14.01,2013-02-06 14:06:00,
2013-02-06 07:07:00,36.1,16.8,30.02,West,278,1.0,3.0,45,0.00,,SKC,0.00,VWS V14.01,2013-02-06 14:07:00,
2013-02-06 07:08:00,36.1,16.8,30.02,North,360,2.0,2.0,45,0.00,,SKC,0.00,VWS V14.01,2013-02-06 14:08:00,
2013-02-06 07:09:00,36.1,16.8,30.02,West,274,1.0,2.0,45,0.00,,SKC,0.00,VWS V14.01,2013-02-06 14:09:00,
2013-02-06 07:10:00,36.1,16.8,30.02,West,275,0.0,1.0,45,0.00,,SKC,0.00,VWS V14.01,2013-02-06 14:10:00,
2013-02-06 07:11:00,36.2,16.9,30.02,West,277,0.0,0.0,45,0.00,,SKC,0.00,VWS V14.01,2013-02-06 14:11:00,
2013-02-06 07:12:00,36.3,17.0,30.02,West,279,0.0,0.0,45,0.00,,SKC,0.00,VWS V14.01,2013-02-06 14:12:00,
2013-02-06 07:13:00,36.4,17.1,30.02,West,279,0.0,1.0,45,0.00,,SKC,0.00,VWS V14.01,2013-02-06 14:13:00,
2013-02-06 07:14:00,36.5,17.2,30.02,West,278,0.0,0.0,45,0.00,,SKC,0.00,VWS V14.01,2013-02-06 14:14:00,
2013-02-06 07:15:00,36.6,17.3,30.02,West,276,0.0,0.0,45,0.00,,SKC,0.00,VWS V14.01,2013-02-06 14:15:00,
2013-02-06 07:16:00,36.6,16.8,30.02,West,277,0.0,0.0,44,0.00,,SKC,0.00,VWS V14.01,2013-02-06 14:16:00,
2013-02-06 07:17:00,36.7,16.9,30.02,West,274,0.0,0.0,44,0.00,,SKC,0.00,VWS V14.01,2013-02-06 14:17:00,
2013-02-06 07:18:00,36.7,16.9,30.02,West,273,0.0,0.0,44,0.00,,SKC,0.00,VWS V14.01,2013-02-06 14:18:00,
2013-02-06 07:19:00,36.7,16.9,30.02,North,360,0.0,0.0,44,0.00,,SKC,0.00,VWS V14.01,2013-02-06 14:19:00,
2013-02-06 07:20:00,36.8,17.0,30.02,West,276,0.0,1.0,44,0.00,,SKC,0.00,VWS V14.01,2013-02-06 14:20:00,
2013-02-06 07:21:00,36.7,16.9,30.02,West,275,2.0,2.0,44,0.00,,SKC,0.00,VWS V14.01,2013-02-06 14:21:00,
2013-02-06 07:22:00,36.8,17.0,30.02,West,277,2.0,2.0,44,0.00,,SKC,0.00,VWS V14.01,2013-02-06 14:22:00,
2013-02-06 07:23:00,36.8,17.5,30.02,West,272,2.0,3.0,45,0.00,,SKC,0.00,VWS V14.01,2013-02-06 14:23:00,
2013-02-06 07:24:00,36.7,17.4,30.02,West,278,0.0,2.0,45,0.00,,SKC,0.00,VWS V14.01,2013-02-06 14:24:00,
2013-02-06 07:25:00,36.8,17.5,30.02,West,279,2.0,2.0,45,0.00,,SKC,0.00,VWS V14.01,2013-02-06 14:25:00,
2013-02-06 07:26:00,36.7,16.9,30.02,West,275,1.0,2.0,44,0.00,,SKC,0.00,VWS V14.01,2013-02-06 14:26:00,
2013-02-06 07:27:00,36.7,16.9,30.02,West,273,1.0,3.0,44,0.00,,SKC,0.00,VWS V14.01,2013-02-06 14:27:00,
2013-02-06 07:28:00,36.8,17.5,30.02,West,279,0.0,2.0,45,0.00,,SKC,0.00,VWS V14.01,2013-02-06 14:28:00,
2013-02-06 07:29:00,36.8,17.5,30.02,West,277,0.0,1.0,45,0.00,,SKC,0.00,VWS V14.01,2013-02-06 14:29:00,
2013-02-06 07:30:00,36.8,17.5,30.02,West,281,0.0,3.0,45,0.00,,SKC,0.00,VWS V14.01,2013-02-06 14:30:00,
2013-02-06 07:31:00,36.8,17.5,30.02,WNW,299,5.0,5.0,45,0.00,,SKC,0.00,VWS V14.01,2013-02-06 14:31:00,
2013-02-06 07:32:00,36.8,17.0,30.02,East,87,0.0,5.0,44,0.00,,SKC,0.00,VWS V14.01,2013-02-06 14:32:00,
2013-02-06 07:33:00,36.9,17.0,30.02,East,80,0.0,2.0,44,0.00,,SKC,0.00,VWS V14.01,2013-02-06 14:33:00,
2013-02-06 07:34:00,36.9,17.0,30.02,East,82,1.0,3.0,44,0.00,,SKC,0.00,VWS V14.01,2013-02-06 14:34:00,
2013-02-06 07:35:00,36.9,17.0,30.02,East,82,0.0,3.0,44,0.00,,SKC,0.00,VWS V14.01,2013-02-06 14:35:00,
2013-02-06 07:36:00,37.0,17.1,30.02,East,84,0.0,3.0,44,0.00,,SKC,0.00,VWS V14.01,2013-02-06 14:36:00,
2013-02-06 07:37:00,37.0,17.6,30.02,East,81,0.0,0.0,45,0.00,,SKC,0.00,VWS V14.01,2013-02-06 14:37:00,
2013-02-06 07:38:00,37.1,18.2,30.02,East,79,0.0,2.0,46,0.00,,SKC,0.00,VWS V14.01,2013-02-06 14:38:00,
2013-02-06 07:39:00,37.2,18.3,30.03,East,82,1.0,1.0,46,0.00,,SKC,0.00,VWS V14.01,2013-02-06 14:39:00,
2013-02-06 07:40:00,37.4,18.0,30.03,North,5,2.0,3.0,45,0.00,,SKC,0.00,VWS V14.01,2013-02-06 14:40:00,
2013-02-06 07:41:00,37.5,17.6,30.03,North,5,0.0,2.0,44,0.00,,SKC,0.00,VWS V14.01,2013-02-06 14:41:00,
2013-02-06 07:42:00,37.6,18.2,30.03,North,5,1.0,1.0,45,0.00,,SKC,0.00,VWS V14.01,2013-02-06 14:42:00,
2013-02-06 07:43:00,37.6,18.2,30.03,North,5,1.0,1.0,45,0.00,,SKC,0.00,VWS V14.01,2013-02-06 14:43:00,
2013-02-06 07:44:00,37.9,18.0,30.03,North,9,0.0,2.0,44,0.00,,SKC,0.00,VWS V14.01,2013-02-06 14:44:00,
2013-02-06 07:45:00,38.0,17.5,30.03,North,9,0.0,0.0,43,0.00,,SKC,0.00,VWS V14.01,2013-02-06 14:45:00,
2013-02-06 07:46:00,38.2,17.7,30.03,North,10,3.0,3.0,43,0.00,,SKC,0.00,VWS V14.01,2013-02-06 14:46:00,
2013-02-06 07:47:00,38.3,18.3,30.03,NE,34,1.0,5.0,44,0.00,,SKC,0.00,VWS V14.01,2013-02-06 14:47:00,
2013-02-06 07:48:00,38.4,18.4,30.02,NE,40,1.0,1.0,44,0.00,,SKC,0.00,VWS V14.01,2013-02-06 14:48:00,
2013-02-06 07:49:00,38.5,18.5,30.02,NE,46,1.0,1.0,44,0.00,,SKC,0.00,VWS V14.01,2013-02-06 14:49:00,
2013-02-06 07:50:00,38.6,18.6,30.02,NE,48,1.0,3.0,44,0.00,,SKC,0.00,VWS V14.01,2013-02-06 14:50:00,
2013-02-06 07:51:00,38.8,18.8,30.02,NE,49,1.0,4.0,44,0.00,,SKC,0.00,VWS V14.01,2013-02-06 14:51:00,
2013-02-06 07:52:00,38.9,18.3,30.02,NE,50,0.0,3.0,43,0.00,,SKC,0.00,VWS V14.01,2013-02-06 14:52:00,
2013-02-06 07:53:00,39.1,18.5,30.02,ENE,59,3.0,3.0,43,0.00,,SKC,0.00,VWS V14.01,2013-02-06 14:53:00,
2013-02-06 07:54:00,39.2,18.6,30.02,ENE,73,3.0,5.0,43,0.00,,SKC,0.00,VWS V14.01,2013-02-06 14:54:00,
2013-02-06 07:55:00,39.3,18.1,30.02,ENE,78,4.0,4.0,42,0.00,,SKC,0.00,VWS V14.01,2013-02-06 14:55:00,
2013-02-06 07:56:00,39.4,17.7,30.03,East,84,2.0,5.0,41,0.00,,SKC,0.00,VWS V14.01,2013-02-06 14:56:00,
2013-02-06 07:57:00,39.6,17.9,30.02,ENE,78,1.0,5.0,41,0.00,,SKC,0.00,VWS V14.01,2013-02-06 14:57:00,
2013-02-06 07:58:00,39.7,17.9,30.02,East,96,4.0,4.0,41,0.00,,SKC,0.00,VWS V14.01,2013-02-06 14:58:00,
2013-02-06 07:59:00,40.0,18.2,30.02,ESE,111,4.0,5.0,41,0.00,,SKC,0.00,VWS V14.01,2013-02-06 14:59:00,
2013-02-06 08:00:00,40.2,19.0,30.02,ESE,108,2.0,4.0,42,0.00,,SKC,0.00,VWS V14.01,2013-02-06 15:00:00,
2013-02-06 08:01:00,40.3,19.0,30.03,ESE,108,2.0,2.0,42,0.00,,SKC,0.00,VWS V14.01,2013-02-06 15:01:00,
2013-02-06 08:02:00,40.5,17.5,30.02,ESE,108,0.0,2.0,39,0.00,,SKC,0.00,VWS V14.01,2013-02-06 15:02:00,
2013-02-06 08:03:00,40.7,17.7,30.03,ESE,107,0.0,1.0,39,0.00,,SKC,0.00,VWS V14.01,2013-02-06 15:03:00,
2013-02-06 08:04:00,40.9,18.5,30.03,ESE,109,1.0,2.0,40,0.00,,SKC,0.00,VWS V14.01,2013-02-06 15:04:00,
2013-02-06 08:05:00,41.0,18.0,30.03,ESE,109,2.0,4.0,39,0.00,,SKC,0.00,VWS V14.01,2013-02-06 15:05:00,
2013-02-06 08:06:00,41.1,18.0,30.02,ESE,110,3.0,4.0,39,0.00,,SKC,0.00,VWS V14.01,2013-02-06 15:06:00,
2013-02-06 08:07:00,41.4,17.7,30.02,ESE,111,1.0,3.0,38,0.00,,SKC,0.00,VWS V14.01,2013-02-06 15:07:00,
2013-02-06 08:08:00,41.5,17.8,30.02,ESE,111,0.0,1.0,38,0.00,,SKC,0.00,VWS V14.01,2013-02-06 15:08:00,
2013-02-06 08:09:00,41.7,17.4,30.02,ESE,109,1.0,2.0,37,0.00,,SKC,0.00,VWS V14.01,2013-02-06 15:09:00,
2013-02-06 08:10:00,41.9,18.2,30.02,ESE,109,0.0,1.0,38,0.00,,SKC,0.00,VWS V14.01,2013-02-06 15:10:00,
2013-02-06 08:11:00,42.1,18.3,30.02,ESE,107,1.0,1.0,38,0.00,,SKC,0.00,VWS V14.01,2013-02-06 15:11:00,
2013-02-06 08:12:00,42.3,17.9,30.02,ESE,112,0.0,1.0,37,0.00,,SKC,0.00,VWS V14.01,2013-02-06 15:12:00,
2013-02-06 08:13:00,42.5,18.1,30.03,ESE,113,2.0,2.0,37,0.00,,SKC,0.00,VWS V14.01,2013-02-06 15:13:00,
2013-02-06 08:14:00,42.6,17.5,30.02,ESE,109,2.0,2.0,36,0.00,,SKC,0.00,VWS V14.01,2013-02-06 15:14:00,
2013-02-06 08:15:00,42.8,17.7,30.03,ESE,108,1.0,2.0,36,0.00,,SKC,0.00,VWS V14.01,2013-02-06 15:15:00,
2013-02-06 08:16:00,42.9,17.8,30.02,ESE,112,5.0,5.0,36,0.00,,SKC,0.00,VWS V14.01,2013-02-06 15:16:00,
2013-02-06 08:17:00,43.1,18.0,30.02,NNE,24,5.0,7.0,36,0.00,,SKC,0.00,VWS V14.01,2013-02-06 15:17:00,
2013-02-06 08:18:00,43.2,18.1,30.03,North,5,4.0,5.0,36,0.00,,SKC,0.00,VWS V14.01,2013-02-06 15:18:00,
2013-02-06 08:19:00,43.3,18.2,30.02,North,9,0.0,4.0,36,0.00,,SKC,0.00,VWS V14.01,2013-02-06 15:19:00,
2013-02-06 08:20:00,43.5,18.3,30.03,ESE,119,3.0,4.0,36,0.00,,SKC,0.00,VWS V14.01,2013-02-06 15:20:00,
2013-02-06 08:21:00,43.6,18.4,30.03,ESE,115,1.0,3.0,36,0.00,,SKC,0.00,VWS V14.01,2013-02-06 15:21:00,
2013-02-06 08:22:00,43.7,17.9,30.03,ESE,115,0.0,2.0,35,0.00,,SKC,0.00,VWS V14.01,2013-02-06 15:22:00,
2013-02-06 08:23:00,43.9,18.0,30.03,ESE,115,0.0,0.0,35,0.00,,SKC,0.00,VWS V14.01,2013-02-06 15:23:00,
2013-02-06 08:24:00,44.0,18.1,30.03,ESE,119,0.0,1.0,35,0.00,,SKC,0.00,VWS V14.01,2013-02-06 15:24:00,
2013-02-06 08:25:00,44.1,18.2,30.03,ESE,116,0.0,1.0,35,0.00,,SKC,0.00,VWS V14.01,2013-02-06 15:25:00,
2013-02-06 08:26:00,44.2,18.3,30.03,NNW,332,5.0,5.0,35,0.00,,SKC,0.00,VWS V14.01,2013-02-06 15:26:00,
2013-02-06 08:27:00,44.3,18.4,30.03,NW,319,8.0,8.0,35,0.00,,SKC,0.00,VWS V14.01,2013-02-06 15:27:00,
2013-02-06 08:28:00,44.3,17.7,30.03,WNW,298,11.0,11.0,34,0.00,,SKC,0.00,VWS V14.01,2013-02-06 15:28:00,
2013-02-06 08:29:00,44.3,17.7,30.03,WNW,290,9.0,11.0,34,0.00,,SKC,0.00,VWS V14.01,2013-02-06 15:29:00,
2013-02-06 08:30:00,44.3,17.7,30.03,WSW,257,6.0,13.0,34,0.00,,SKC,0.00,VWS V14.01,2013-02-06 15:30:00,
2013-02-06 08:31:00,44.3,17.7,30.03,WSW,257,11.0,13.0,34,0.00,,SKC,0.00,VWS V14.01,2013-02-06 15:31:00,
2013-02-06 08:32:00,44.3,17.7,30.03,WSW,257,6.0,11.0,34,0.00,,SKC,0.00,VWS V14.01,2013-02-06 15:32:00,
2013-02-06 08:33:00,44.3,17.7,30.03,WNW,284,17.0,18.0,34,0.00,,SKC,0.00,VWS V14.01,2013-02-06 15:33:00,
2013-02-06 08:34:00,44.3,17.7,30.03,West,281,12.0,17.0,34,0.00,,SKC,0.00,VWS V14.01,2013-02-06 15:34:00,
2013-02-06 08:35:00,44.3,17.7,30.03,West,276,9.0,13.0,34,0.00,,SKC,0.00,VWS V14.01,2013-02-06 15:35:00,
2013-02-06 08:36:00,44.4,17.8,30.03,WNW,283,9.0,12.0,34,0.00,,SKC,0.00,VWS V14.01,2013-02-06 15:36:00,
2013-02-06 08:37:00,44.4,17.8,30.03,North,360,7.0,11.0,34,0.00,,SKC,0.00,VWS V14.01,2013-02-06 15:37:00,
2013-02-06 08:38:00,44.4,17.8,30.03,West,277,7.0,7.0,34,0.00,,SKC,0.00,VWS V14.01,2013-02-06 15:38:00,
2013-02-06 08:39:00,44.4,17.8,30.03,West,277,10.0,12.0,34,0.00,,SKC,0.00,VWS V14.01,2013-02-06 15:39:00,
2013-02-06 08:40:00,44.4,17.8,30.03,West,270,11.0,13.0,34,0.00,,SKC,0.00,VWS V14.01,2013-02-06 15:40:00,
2013-02-06 08:41:00,44.5,17.9,30.03,West,279,11.0,16.0,34,0.00,,SKC,0.00,VWS V14.01,2013-02-06 15:41:00,
2013-02-06 08:42:00,44.5,17.9,30.03,North,360,9.0,11.0,34,0.00,,SKC,0.00,VWS V14.01,2013-02-06 15:42:00,
2013-02-06 08:43:00,44.5,17.9,30.03,North,360,9.0,11.0,34,0.00,,SKC,0.00,VWS V14.01,2013-02-06 15:43:00,
2013-02-06 08:44:00,44.5,17.9,30.03,WNW,282,8.0,12.0,34,0.00,,SKC,0.00,VWS V14.01,2013-02-06 15:44:00,
2013-02-06 08:45:00,44.5,17.9,30.03,WNW,284,9.0,10.0,34,0.00,,SKC,0.00,VWS V14.01,2013-02-06 15:45:00,
2013-02-06 08:46:00,44.5,17.9,30.03,West,281,4.0,9.0,34,0.00,,SKC,0.00,VWS V14.01,2013-02-06 15:46:00,
2013-02-06 08:47:00,44.5,17.9,30.03,West,281,8.0,8.0,34,0.00,,SKC,0.00,VWS V14.01,2013-02-06 15:47:00,
2013-02-06 08:48:00,44.4,17.8,30.03,West,269,7.0,10.0,34,0.00,,SKC,0.00,VWS V14.01,2013-02-06 15:48:00,
2013-02-06 08:49:00,44.4,17.8,30.03,West,267,11.0,11.0,34,0.00,,SKC,0.00,VWS V14.01,2013-02-06 15:49:00,
2013-02-06 08:50:00,44.3,17.7,30.03,West,272,6.0,11.0,34,0.00,,SKC,0.00,VWS V14.01,2013-02-06 15:50:00,
2013-02-06 08:51:00,44.3,17.7,30.03,West,268,6.0,10.0,34,0.00,,SKC,0.00,VWS V14.01,2013-02-06 15:51:00,
2013-02-06 08:52:00,44.2,17.6,30.03,West,271,4.0,7.0,34,0.00,,SKC,0.00,VWS V14.01,2013-02-06 15:52:00,
2013-02-06 08:53:00,44.2,17.6,30.03,West,267,7.0,11.0,34,0.00,,SKC,0.00,VWS V14.01,2013-02-06 15:53:00,
2013-02-06 08:54:00,44.1,17.5,30.03,West,275,6.0,12.0,34,0.00,,SKC,0.00,VWS V14.01,2013-02-06 15:54:00,
2013-02-06 08:55:00,44.1,17.5,30.03,WSW,255,10.0,12.0,34,0.00,,SKC,0.00,VWS V14.01,2013-02-06 15:55:00,
2013-02-06 08:56:00,44.0,17.5,30.03,SSW,194,13.0,18.0,34,0.00,,SKC,0.00,VWS V14.01,2013-02-06 15:56:00,
2013-02-06 08:57:00,43.9,17.4,30.03,SW,236,10.0,15.0,34,0.00,,SKC,0.00,VWS V14.01,2013-02-06 15:57:00,
2013-02-06 08:58:00,43.8,17.3,30.03,West,275,13.0,14.0,34,0.00,,SKC,0.00,VWS V14.01,2013-02-06 15:58:00,
2013-02-06 08:59:00,43.8,18.0,30.03,West,267,14.0,15.0,35,0.00,,SKC,0.00,VWS V14.01,2013-02-06 15:59:00,
2013-02-06 09:00:00,43.8,18.0,30.03,West,267,11.0,15.0,35,0.00,,SKC,0.00,VWS V14.01,2013-02-06 16:00:00,
2013-02-06 09:01:00,43.8,18.0,30.03,West,274,9.0,13.0,35,0.00,,SKC,0.00,VWS V14.01,2013-02-06 16:01:00,
2013-02-06 09:02:00,43.8,18.0,30.03,North,360,13.0,15.0,35,0.00,,SKC,0.00,VWS V14.01,2013-02-06 16:02:00,
2013-02-06 09:03:00,43.8,18.0,30.03,West,269,9.0,14.0,35,0.00,,SKC,0.00,VWS V14.01,2013-02-06 16:03:00,
2013-02-06 09:04:00,43.7,17.9,30.03,SW,223,9.0,18.0,35,0.00,,SKC,0.00,VWS V14.01,2013-02-06 16:04:00,
2013-02-06 09:05:00,43.7,17.9,30.03,SW,218,9.0,14.0,35,0.00,,SKC,0.00,VWS V14.01,2013-02-06 16:05:00,
2013-02-06 09:06:00,43.6,17.8,30.03,North,360,16.0,17.0,35,0.00,,SKC,0.00,VWS V14.01,2013-02-06 16:06:00,
2013-02-06 09:07:00,43.6,17.8,30.03,West,271,11.0,17.0,35,0.00,,SKC,0.00,VWS V14.01,2013-02-06 16:07:00,
2013-02-06 09:08:00,43.6,17.8,30.03,West,271,7.0,15.0,35,0.00,,SKC,0.00,VWS V14.01,2013-02-06 16:08:00,
2013-02-06 09:09:00,43.6,17.8,30.03,West,276,14.0,14.0,35,0.00,,SKC,0.00,VWS V14.01,2013-02-06 16:09:00,
2013-02-06 09:10:00,43.6,17.8,30.03,West,272,16.0,16.0,35,0.00,,SKC,0.00,VWS V14.01,2013-02-06 16:10:00,
2013-02-06 09:11:00,43.6,17.8,30.03,West,274,14.0,19.0,35,0.00,,SKC,0.00,VWS V14.01,2013-02-06 16:11:00,
2013-02-06 09:12:00,43.6,17.8,30.03,North,360,18.0,19.0,35,0.00,,SKC,0.00,VWS V14.01,2013-02-06 16:12:00,
2013-02-06 09:13:00,43.6,17.8,30.03,WSW,255,15.0,23.0,35,0.00,,SKC,0.00,VWS V14.01,2013-02-06 16:13:00,
2013-02-06 09:14:00,43.6,17.8,30.03,West,267,13.0,15.0,35,0.00,,SKC,0.00,VWS V14.01,2013-02-06 16:14:00,
2013-02-06 09:15:00,43.6,17.8,30.03,West,280,16.0,17.0,35,0.00,,SKC,0.00,VWS V14.01,2013-02-06 16:15:00,
2013-02-06 09:16:00,43.6,17.8,30.03,West,273,18.0,18.0,35,0.00,,SKC,0.00,VWS V14.01,2013-02-06 16:16:00,
2013-02-06 09:17:00,43.6,17.8,30.03,North,360,14.0,18.0,35,0.00,,SKC,0.00,VWS V14.01,2013-02-06 16:17:00,
2013-02-06 09:18:00,43.7,17.9,30.03,West,269,14.0,19.0,35,0.00,,SKC,0.00,VWS V14.01,2013-02-06 16:18:00,
2013-02-06 09:19:00,43.7,17.9,30.03,WSW,241,18.0,24.0,35,0.00,,SKC,0.00,VWS V14.01,2013-02-06 16:19:00,
2013-02-06 09:20:00,43.7,17.9,30.03,West,265,16.0,19.0,35,0.00,,SKC,0.00,VWS V14.01,2013-02-06 16:20:00,
2013-02-06 09:21:00,43.7,17.9,30.03,West,266,12.0,18.0,35,0.00,,SKC,0.00,VWS V14.01,2013-02-06 16:21:00,
2013-02-06 09:22:00,43.7,17.9,30.03,West,261,10.0,15.0,35,0.00,,SKC,0.00,VWS V14.01,2013-02-06 16:22:00,
2013-02-06 09:23:00,43.7,17.9,30.03,West,278,10.0,10.0,35,0.00,,SKC,0.00,VWS V14.01,2013-02-06 16:23:00,
2013-02-06 09:24:00,43.7,17.9,30.03,West,264,12.0,17.0,35,0.00,,SKC,0.00,VWS V14.01,2013-02-06 16:24:00,
2013-02-06 09:25:00,43.8,18.0,30.03,WSW,250,15.0,16.0,35,0.00,,SKC,0.00,VWS V14.01,2013-02-06 16:25:00,
2013-02-06 09:26:00,43.7,17.9,30.03,WSW,257,14.0,16.0,35,0.00,,SKC,0.00,VWS V14.01,2013-02-06 16:26:00,
2013-02-06 09:27:00,43.7,17.9,30.03,WNW,300,14.0,17.0,35,0.00,,SKC,0.00,VWS V14.01,2013-02-06 16:27:00,
2013-02-06 09:28:00,43.7,17.9,30.03,NW,304,10.0,17.0,35,0.00,,SKC,0.00,VWS V14.01,2013-02-06 16:28:00,
2013-02-06 09:29:00,43.7,17.9,30.03,North,360,20.0,22.0,35,0.00,,SKC,0.00,VWS V14.01,2013-02-06 16:29:00,
2013-02-06 09:30:00,43.6,17.8,30.03,WSW,246,19.0,23.0,35,0.00,,SKC,0.00,VWS V14.01,2013-02-06 16:30:00,
2013-02-06 09:31:00,43.5,17.7,30.03,WSW,254,20.0,21.0,35,0.00,,SKC,0.00,VWS V14.01,2013-02-06 16:31:00,
2013-02-06 09:32:00,43.3,17.5,30.03,SW,236,20.0,25.0,35,0.00,,SKC,0.00,VWS V14.01,2013-02-06 16:32:00,
2013-02-06 09:33:00,43.3,17.5,30.03,WSW,239,15.0,20.0,35,0.00,,SKC,0.00,VWS V14.01,2013-02-06 16:33:00,
2013-02-06 09:34:00,43.2,17.4,30.03,West,273,20.0,20.0,35,0.00,,SKC,0.00,VWS V14.01,2013-02-06 16:34:00,
2013-02-06 09:35:00,43.1,17.3,30.03,West,281,14.0,23.0,35,0.00,,SKC,0.00,VWS V14.01,2013-02-06 16:35:00,
2013-02-06 09:36:00,43.1,17.3,30.03,West,270,16.0,21.0,35,0.00,,SKC,0.00,VWS V14.01,2013-02-06 16:36:00,
2013-02-06 09:37:00,43.0,17.2,30.03,WSW,250,19.0,19.0,35,0.00,,SKC,0.00,VWS V14.01,2013-02-06 16:37:00,
2013-02-06 09:38:00,42.9,17.1,30.02,North,360,13.0,25.0,35,0.00,,SKC,0.00,VWS V14.01,2013-02-06 16:38:00,
2013-02-06 09:39:00,42.9,17.8,30.03,WSW,251,15.0,20.0,36,0.00,,SKC,0.00,VWS V14.01,2013-02-06 16:39:00,
2013-02-06 09:40:00,42.8,17.7,30.03,WSW,258,21.0,22.0,36,0.00,,SKC,0.00,VWS V14.01,2013-02-06 16:40:00,
2013-02-06 09:41:00,42.8,17.7,30.03,SW,236,19.0,22.0,36,0.00,,SKC,0.00,VWS V14.01,2013-02-06 16:41:00,
2013-02-06 09:42:00,42.7,17.6,30.03,West,263,18.0,20.0,36,0.00,,SKC,0.00,VWS V14.01,2013-02-06 16:42:00,
2013-02-06 09:43:00,42.7,17.6,30.03,WSW,257,14.0,23.0,36,0.00,,SKC,0.00,VWS V14.01,2013-02-06 16:43:00,
2013-02-06 09:44:00,42.6,17.5,30.03,West,264,15.0,20.0,36,0.00,,SKC,0.00,VWS V14.01,2013-02-06 16:44:00,
2013-02-06 09:45:00,42.6,17.5,30.03,WSW,252,19.0,23.0,36,0.00,,SKC,0.00,VWS V14.01,2013-02-06 16:45:00,
2013-02-06 09:46:00,42.6,17.5,30.03,WSW,250,13.0,22.0,36,0.00,,SKC,0.00,VWS V14.01,2013-02-06 16:46:00,
2013-02-06 09:47:00,42.6,17.5,30.03,WNW,286,19.0,19.0,36,0.00,,SKC,0.00,VWS V14.01,2013-02-06 16:47:00,
2013-02-06 09:48:00,42.6,17.5,30.03,West,279,15.0,19.0,36,0.00,,SKC,0.00,VWS V14.01,2013-02-06 16:48:00,
2013-02-06 09:49:00,42.6,17.5,30.04,WSW,253,17.0,19.0,36,0.00,,SKC,0.00,VWS V14.01,2013-02-06 16:49:00,
2013-02-06 09:50:00,42.7,17.6,30.04,North,360,12.0,17.0,36,0.00,,SKC,0.00,VWS V14.01,2013-02-06 16:50:00,
2013-02-06 09:51:00,42.7,17.6,30.03,WSW,247,15.0,18.0,36,0.00,,SKC,0.00,VWS V14.01,2013-02-06 16:51:00,
2013-02-06 09:52:00,42.7,17.6,30.04,West,264,21.0,22.0,36,0.00,,SKC,0.00,VWS V14.01,2013-02-06 16:52:00,
2013-02-06 09:53:00,42.8,17.7,30.03,West,280,17.0,21.0,36,0.00,,SKC,0.00,VWS V14.01,2013-02-06 16:53:00,
2013-02-06 09:54:00,42.8,17.7,30.04,WSW,251,17.0,18.0,36,0.00,,SKC,0.00,VWS V14.01,2013-02-06 16:54:00,
2013-02-06 09:55:00,42.8,17.7,30.03,West,273,13.0,17.0,36,0.00,,SKC,0.00,VWS V14.01,2013-02-06 16:55:00,
2013-02-06 09:56:00,42.8,17.7,30.04,West,279,12.0,15.0,36,0.00,,SKC,0.00,VWS V14.01,2013-02-06 16:56:00,
2013-02-06 09:57:00,42.8,17.7,30.04,WSW,252,19.0,21.0,36,0.00,,SKC,0.00,VWS V14.01,2013-02-06 16:57:00,
2013-02-06 09:58:00,42.8,19.0,30.04,WSW,257,19.0,22.0,38,0.00,,SKC,0.00,VWS V14.01,2013-02-06 16:58:00,
2013-02-06 09:59:00,42.8,17.7,30.04,West,275,23.0,23.0,36,0.00,,SKC,0.00,VWS V14.01,2013-02-06 16:59:00,
2013-02-06 10:00:00,42.7,17.6,30.04,WSW,257,17.0,25.0,36,0.00,,SKC,0.00,VWS V14.01,2013-02-06 17:00:00,
2013-02-06 10:01:00,42.6,17.5,30.04,West,273,17.0,19.0,36,0.00,,SKC,0.00,VWS V14.01,2013-02-06 17:01:00,
2013-02-06 10:02:00,42.5,17.4,30.04,North,360,17.0,21.0,36,0.00,,SKC,0.00,VWS V14.01,2013-02-06 17:02:00,
2013-02-06 10:03:00,42.5,17.4,30.04,West,279,16.0,20.0,36,0.00,,SKC,0.00,VWS V14.01,2013-02-06 17:03:00,
2013-02-06 10:04:00,42.4,17.4,30.04,WSW,238,11.0,20.0,36,0.00,,SKC,0.00,VWS V14.01,2013-02-06 17:04:00,
2013-02-06 10:05:00,42.4,17.4,30.04,North,360,18.0,19.0,36,0.00,,SKC,0.00,VWS V14.01,2013-02-06 17:05:00,
2013-02-06 10:06:00,42.4,17.4,30.04,WSW,245,18.0,20.0,36,0.00,,SKC,0.00,VWS V14.01,2013-02-06 17:06:00,
2013-02-06 10:07:00,42.3,17.3,30.04,North,360,23.0,23.0,36,0.00,,SKC,0.00,VWS V14.01,2013-02-06 17:07:00,
2013-02-06 10:08:00,42.3,17.9,30.04,West,267,19.0,24.0,37,0.00,,SKC,0.00,VWS V14.01,2013-02-06 17:08:00,
2013-02-06 10:09:00,42.2,17.8,30.04,WSW,250,18.0,22.0,37,0.00,,SKC,0.00,VWS V14.01,2013-02-06 17:09:00,
2013-02-06 10:10:00,42.2,17.8,30.04,West,266,17.0,23.0,37,0.00,,SKC,0.00,VWS V14.01,2013-02-06 17:10:00,
2013-02-06 10:11:00,42.1,17.7,30.04,WNW,285,11.0,18.0,37,0.00,,SKC,0.00,VWS V14.01,2013-02-06 17:11:00,
2013-02-06 10:12:00,42.0,17.6,30.04,SW,235,16.0,24.0,37,0.00,,SKC,0.00,VWS V14.01,2013-02-06 17:12:00,
2013-02-06 10:13:00,42.0,17.6,30.04,WSW,246,12.0,19.0,37,0.00,,SKC,0.00,VWS V14.01,2013-02-06 17:13:00,
2013-02-06 10:14:00,41.9,17.5,30.04,West,273,24.0,24.0,37,0.00,,SKC,0.00,VWS V14.01,2013-02-06 17:14:00,
2013-02-06 10:15:00,41.9,17.5,30.04,West,279,18.0,24.0,37,0.00,,SKC,0.00,VWS V14.01,2013-02-06 17:15:00,
2013-02-06 10:16:00,41.9,17.5,30.04,West,273,13.0,19.0,37,0.00,,SKC,0.00,VWS V14.01,2013-02-06 17:16:00,
2013-02-06 10:17:00,41.9,17.5,30.05,West,268,18.0,22.0,37,0.00,,SKC,0.00,VWS V14.01,2013-02-06 17:17:00,
2013-02-06 10:18:00,41.9,17.5,30.04,North,360,14.0,18.0,37,0.00,,SKC,0.00,VWS V14.01,2013-02-06 17:18:00,
2013-02-06 10:19:00,41.8,17.5,30.05,West,277,10.0,16.0,37,0.00,,SKC,0.00,VWS V14.01,2013-02-06 17:19:00,
2013-02-06 10:20:00,41.8,17.5,30.04,WSW,254,13.0,19.0,37,0.00,,SKC,0.00,VWS V14.01,2013-02-06 17:20:00,
2013-02-06 10:21:00,41.8,17.5,30.04,SW,232,17.0,17.0,37,0.00,,SKC,0.00,VWS V14.01,2013-02-06 17:21:00,
2013-02-06 10:22:00,41.8,17.5,30.04,WSW,238,16.0,18.0,37,0.00,,SKC,0.00,VWS V14.01,2013-02-06 17:22:00,
2013-02-06 10:23:00,41.8,17.5,30.04,West,265,13.0,16.0,37,0.00,,SKC,0.00,VWS V14.01,2013-02-06 17:23:00,
2013-02-06 10:24:00,41.8,18.1,30.04,West,269,14.0,19.0,38,0.00,,SKC,0.00,VWS V14.01,2013-02-06 17:24:00,
2013-02-06 10:25:00,41.8,18.1,30.04,WSW,248,19.0,23.0,38,0.00,,SKC,0.00,VWS V14.01,2013-02-06 17:25:00,
2013-02-06 10:26:00,41.8,18.1,30.04,WSW,242,21.0,21.0,38,0.00,,SKC,0.00,VWS V14.01,2013-02-06 17:26:00,
2013-02-06 10:27:00,41.8,18.1,30.04,West,259,18.0,21.0,38,0.00,,SKC,0.00,VWS V14.01,2013-02-06 17:27:00,
2013-02-06 10:28:00,41.8,18.1,30.04,West,266,16.0,21.0,38,0.00,,SKC,0.00,VWS V14.01,2013-02-06 17:28:00,
2013-02-06 10:29:00,41.7,18.0,30.04,West,262,14.0,21.0,38,0.00,,SKC,0.00,VWS V14.01,2013-02-06 17:29:00,
2013-02-06 10:30:00,41.6,17.9,30.04,West,269,20.0,23.0,38,0.00,,SKC,0.00,VWS V14.01,2013-02-06 17:30:00,
2013-02-06 10:31:00,41.6,17.9,30.04,SW,235,15.0,22.0,38,0.00,,SKC,0.00,VWS V14.01,2013-02-06 17:31:00,
2013-02-06 10:32:00,41.6,17.9,30.04,West,260,14.0,19.0,38,0.00,,SKC,0.00,VWS V14.01,2013-02-06 17:32:00,
2013-02-06 10:33:00,41.5,17.8,30.03,West,263,17.0,19.0,38,0.00,,SKC,0.00,VWS V14.01,2013-02-06 17:33:00,
2013-02-06 10:34:00,41.5,17.8,30.04,West,264,28.0,28.0,38,0.00,,SKC,0.00,VWS V14.01,2013-02-06 17:34:00,
2013-02-06 10:35:00,41.5,17.8,30.04,WSW,255,16.0,28.0,38,0.00,,SKC,0.00,VWS V14.01,2013-02-06 17:35:00,
2013-02-06 10:36:00,41.5,17.8,30.04,WSW,237,17.0,18.0,38,0.00,,SKC,0.00,VWS V14.01,2013-02-06 17:36:00,
2013-02-06 10:37:00,41.4,17.7,30.04,SW,227,16.0,21.0,38,0.00,,SKC,0.00,VWS V14.01,2013-02-06 17:37:00,
2013-02-06 10:38:00,41.5,18.4,30.04,SSW,203,14.0,20.0,39,0.00,,SKC,0.00,VWS V14.01,2013-02-06 17:38:00,
2013-02-06 10:39:00,41.4,17.7,30.03,WSW,249,18.0,22.0,38,0.00,,SKC,0.00,VWS V14.01,2013-02-06 17:39:00,
2013-02-06 10:40:00,41.4,17.7,30.04,WSW,240,18.0,19.0,38,0.00,,SKC,0.00,VWS V14.01,2013-02-06 17:40:00,
2013-02-06 10:41:00,41.4,18.3,30.04,WSW,248,18.0,21.0,39,0.00,,SKC,0.00,VWS V14.01,2013-02-06 17:41:00,
2013-02-06 10:42:00,41.3,18.2,30.04,WSW,244,22.0,22.0,39,0.00,,SKC,0.00,VWS V14.01,2013-02-06 17:42:00,
2013-02-06 10:43:00,41.3,18.2,30.04,West,277,17.0,22.0,39,0.00,,SKC,0.00,VWS V14.01,2013-02-06 17:43:00,
2013-02-06 10:44:00,41.3,18.2,30.04,SW,216,18.0,22.0,39,0.00,,SKC,0.00,VWS V14.01,2013-02-06 17:44:00,
2013-02-06 10:45:00,41.3,18.2,30.04,West,259,21.0,25.0,39,0.00,,SKC,0.00,VWS V14.01,2013-02-06 17:45:00,
2013-02-06 10:46:00,41.3,18.2,30.04,WSW,249,20.0,22.0,39,0.00,,SKC,0.00,VWS V14.01,2013-02-06 17:46:00,
2013-02-06 10:47:00,41.2,18.1,30.03,SW,233,22.0,24.0,39,0.00,,SKC,0.00,VWS V14.01,2013-02-06 17:47:00,
2013-02-06 10:48:00,41.2,18.1,30.03,WNW,283,15.0,23.0,39,0.00,,SKC,0.00,VWS V14.01,2013-02-06 17:48:00,
2013-02-06 10:49:00,41.2,18.1,30.04,WSW,251,20.0,24.0,39,0.00,,SKC,0.00,VWS V14.01,2013-02-06 17:49:00,
2013-02-06 10:50:00,41.2,18.1,30.04,West,269,15.0,20.0,39,0.00,,SKC,0.00,VWS V14.01,2013-02-06 17:50:00,
2013-02-06 10:51:00,41.2,18.1,30.04,West,262,19.0,19.0,39,0.00,,SKC,0.00,VWS V14.01,2013-02-06 17:51:00,
2013-02-06 10:52:00,41.2,18.1,30.03,WSW,250,19.0,20.0,39,0.00,,SKC,0.00,VWS V14.01,2013-02-06 17:52:00,
2013-02-06 10:53:00,41.2,18.1,30.04,West,278,13.0,19.0,39,0.00,,SKC,0.00,VWS V14.01,2013-02-06 17:53:00,
2013-02-06 10:54:00,41.2,18.1,30.04,WSW,255,14.0,16.0,39,0.00,,SKC,0.00,VWS V14.01,2013-02-06 17:54:00,
2013-02-06 10:55:00,41.2,18.1,30.04,WSW,244,17.0,19.0,39,0.00,,SKC,0.00,VWS V14.01,2013-02-06 17:55:00,
2013-02-06 10:56:00,41.2,18.1,30.04,WSW,240,18.0,18.0,39,0.00,,SKC,0.00,VWS V14.01,2013-02-06 17:56:00,
2013-02-06 10:57:00,41.2,18.1,30.04,SW,219,18.0,25.0,39,0.00,,SKC,0.00,VWS V14.01,2013-02-06 17:57:00,
2013-02-06 10:58:00,41.2,18.1,30.03,WSW,244,19.0,25.0,39,0.00,,SKC,0.00,VWS V14.01,2013-02-06 17:58:00,
2013-02-06 10:59:00,41.1,18.0,30.03,West,271,22.0,22.0,39,0.00,,SKC,0.00,VWS V14.01,2013-02-06 17:59:00,
2013-02-06 11:00:00,41.1,18.0,30.04,WSW,247,18.0,27.0,39,0.00,,SKC,0.00,VWS V14.01,2013-02-06 18:00:00,
2013-02-06 11:01:00,41.1,18.0,30.04,West,261,20.0,23.0,39,0.00,,SKC,0.00,VWS V14.01,2013-02-06 18:01:00,
2013-02-06 11:02:00,41.1,18.6,30.04,West,265,19.0,26.0,40,0.00,,SKC,0.00,VWS V14.01,2013-02-06 18:02:00,
2013-02-06 11:03:00,41.0,18.5,30.04,West,281,22.0,22.0,40,0.00,,SKC,0.00,VWS V14.01,2013-02-06 18:03:00,
2013-02-06 11:04:00,41.0,18.5,30.04,SW,226,16.0,22.0,40,0.00,,SKC,0.00,VWS V14.01,2013-02-06 18:04:00,
2013-02-06 11:05:00,41.0,18.5,30.04,WSW,240,20.0,23.0,40,0.00,,SKC,0.00,VWS V14.01,2013-02-06 18:05:00,
2013-02-06 11:06:00,40.9,18.5,30.04,West,259,11.0,20.0,40,0.00,,SKC,0.00,VWS V14.01,2013-02-06 18:06:00,
2013-02-06 11:07:00,40.9,18.5,30.04,WSW,248,18.0,25.0,40,0.00,,SKC,0.00,VWS V14.01,2013-02-06 18:07:00,
2013-02-06 11:08:00,40.9,18.5,30.05,West,279,16.0,22.0,40,0.00,,SKC,0.00,VWS V14.01,2013-02-06 18:08:00,
2013-02-06 11:09:00,40.9,18.5,30.04,North,360,20.0,22.0,40,0.00,,SKC,0.00,VWS V14.01,2013-02-06 18:09:00,
2013-02-06 11:10:00,40.9,18.5,30.04,WSW,249,21.0,21.0,40,0.00,,SKC,0.00,VWS V14.01,2013-02-06 18:10:00,
2013-02-06 11:11:00,40.8,18.4,30.04,WSW,255,16.0,21.0,40,0.00,,SKC,0.00,VWS V14.01,2013-02-06 18:11:00,
2013-02-06 11:12:00,40.8,18.4,30.04,West,263,23.0,23.0,40,0.00,,SKC,0.00,VWS V14.01,2013-02-06 18:12:00,
2013-02-06 11:13:00,40.8,18.4,30.04,WSW,253,23.0,28.0,40,0.00,,SKC,0.00,VWS V14.01,2013-02-06 18:13:00,
2013-02-06 11:14:00,40.8,18.4,30.04,WSW,257,17.0,24.0,40,0.00,,SKC,0.00,VWS V14.01,2013-02-06 18:14:00,
2013-02-06 11:15:00,40.8,18.9,30.04,WSW,252,20.0,20.0,41,0.00,,SKC,0.00,VWS V14.01,2013-02-06 18:15:00,
2013-02-06 11:16:00,40.8,18.4,30.05,WSW,254,19.0,23.0,40,0.00,,SKC,0.00,VWS V14.01,2013-02-06 18:16:00,
2013-02-06 11:17:00,40.8,18.9,30.05,WSW,248,13.0,21.0,41,0.00,,SKC,0.00,VWS V14.01,2013-02-06 18:17:00,
2013-02-06 11:18:00,40.8,18.9,30.04,North,360,18.0,21.0,41,0.00,,SKC,0.00,VWS V14.01,2013-02-06 18:18:00,
2013-02-06 11:19:00,40.8,18.9,30.05,WSW,257,14.0,19.0,41,0.00,,SKC,0.00,VWS V14.01,2013-02-06 18:19:00,
2013-02-06 11:20:00,40.8,18.9,30.04,North,360,12.0,19.0,41,0.00,,SKC,0.00,VWS V14.01,2013-02-06 18:20:00,
2013-02-06 11:21:00,40.8,18.9,30.04,SW,236,17.0,21.0,41,0.00,,SKC,0.00,VWS V14.01,2013-02-06 18:21:00,
2013-02-06 11:22:00,40.8,18.9,30.04,West,266,17.0,18.0,41,0.00,,SKC,0.00,VWS V14.01,2013-02-06 18:22:00,
2013-02-06 11:23:00,40.8,18.9,30.04,West,273,22.0,23.0,41,0.00,,SKC,0.00,VWS V14.01,2013-02-06 18:23:00,
2013-02-06 11:24:00,40.7,18.9,30.04,WSW,238,18.0,22.0,41,0.00,,SKC,0.00,VWS V14.01,2013-02-06 18:24:00,
2013-02-06 11:25:00,40.7,18.9,30.04,SW,231,19.0,21.0,41,0.00,,SKC,0.00,VWS V14.01,2013-02-06 18:25:00,
2013-02-06 11:26:00,40.7,18.9,30.04,North,360,16.0,22.0,41,0.00,,SKC,0.00,VWS V14.01,2013-02-06 18:26:00,
2013-02-06 11:27:00,40.7,18.9,30.04,West,259,19.0,20.0,41,0.00,,SKC,0.00,VWS V14.01,2013-02-06 18:27:00,
2013-02-06 11:28:00,40.7,19.4,30.04,North,360,17.0,19.0,42,0.00,,SKC,0.00,VWS V14.01,2013-02-06 18:28:00,
2013-02-06 11:29:00,40.7,19.4,30.04,North,360,13.0,18.0,42,0.00,,SKC,0.00,VWS V14.01,2013-02-06 18:29:00,
2013-02-06 11:30:00,40.7,19.4,30.04,WSW,258,20.0,22.0,42,0.00,,SKC,0.00,VWS V14.01,2013-02-06 18:30:00,
2013-02-06 11:31:00,40.7,19.4,30.04,WSW,256,12.0,20.0,42,0.00,,SKC,0.00,VWS V14.01,2013-02-06 18:31:00,
2013-02-06 11:32:00,40.7,19.4,30.04,West,268,14.0,14.0,42,0.00,,SKC,0.00,VWS V14.01,2013-02-06 18:32:00,
2013-02-06 11:33:00,40.7,19.4,30.04,West,261,18.0,18.0,42,0.00,,SKC,0.00,VWS V14.01,2013-02-06 18:33:00,
2013-02-06 11:34:00,40.7,19.4,30.03,WSW,257,16.0,23.0,42,0.00,,SKC,0.00,VWS V14.01,2013-02-06 18:34:00,
2013-02-06 11:35:00,40.7,19.4,30.03,West,263,15.0,19.0,42,0.00,,SKC,0.00,VWS V14.01,2013-02-06 18:35:00,
2013-02-06 11:36:00,40.7,19.4,30.04,WSW,246,20.0,20.0,42,0.00,,SKC,0.00,VWS V14.01,2013-02-06 18:36:00,
2013-02-06 11:37:00,40.7,19.4,30.03,West,261,19.0,25.0,42,0.00,,SKC,0.00,VWS V14.01,2013-02-06 18:37:00,
2013-02-06 11:38:00,40.7,19.4,30.03,West,261,20.0,23.0,42,0.00,,SKC,0.00,VWS V14.01,2013-02-06 18:38:00,
2013-02-06 11:39:00,40.8,19.5,30.03,West,269,20.0,23.0,42,0.00,,SKC,0.00,VWS V14.01,2013-02-06 18:39:00,
2013-02-06 11:40:00,40.8,19.5,30.03,West,269,22.0,26.0,42,0.00,,SKC,0.00,VWS V14.01,2013-02-06 18:40:00,
2013-02-06 11:41:00,40.8,19.5,30.03,West,261,20.0,24.0,42,0.00,,SKC,0.00,VWS V14.01,2013-02-06 18:41:00,
2013-02-06 11:42:00,40.7,19.4,30.02,WSW,256,14.0,26.0,42,0.00,,SKC,0.00,VWS V14.01,2013-02-06 18:42:00,
2013-02-06 11:43:00,40.7,19.4,30.03,North,360,18.0,19.0,42,0.00,,SKC,0.00,VWS V14.01,2013-02-06 18:43:00,
2013-02-06 11:44:00,40.7,19.4,30.02,West,267,13.0,22.0,42,0.00,,SKC,0.00,VWS V14.01,2013-02-06 18:44:00,
2013-02-06 11:45:00,40.8,19.5,30.02,North,360,16.0,18.0,42,0.00,,SKC,0.00,VWS V14.01,2013-02-06 18:45:00,
2013-02-06 11:46:00,40.8,19.5,30.02,WSW,244,18.0,24.0,42,0.00,,SKC,0.00,VWS V14.01,2013-02-06 18:46:00,
2013-02-06 11:47:00,40.8,19.5,30.02,North,360,10.0,21.0,42,0.00,,SKC,0.00,VWS V14.01,2013-02-06 18:47:00,
2013-02-06 11:48:00,40.9,19.6,30.02,West,273,16.0,17.0,42,0.00,,SKC,0.00,VWS V14.01,2013-02-06 18:48:00,
2013-02-06 11:49:00,40.9,19.6,30.02,West,261,12.0,16.0,42,0.00,,SKC,0.00,VWS V14.01,2013-02-06 18:49:00,
2013-02-06 11:50:00,41.0,19.7,30.02,West,270,21.0,22.0,42,0.00,,SKC,0.00,VWS V14.01,2013-02-06 18:50:00,
2013-02-06 11:51:00,41.0,19.7,30.02,WSW,246,14.0,21.0,42,0.00,,SKC,0.00,VWS V14.01,2013-02-06 18:51:00,
2013-02-06 11:52:00,41.1,19.8,30.02,WSW,251,16.0,21.0,42,0.00,,SKC,0.00,VWS V14.01,2013-02-06 18:52:00,
2013-02-06 11:53:00,41.1,19.2,30.02,West,259,20.0,22.0,41,0.00,,SKC,0.00,VWS V14.01,2013-02-06 18:53:00,
2013-02-06 11:54:00,41.2,19.3,30.02,WNW,290,22.0,22.0,41,0.00,,SKC,0.00,VWS V14.01,2013-02-06 18:54:00,
2013-02-06 11:55:00,41.3,19.4,30.02,WNW,291,16.0,22.0,41,0.00,,SKC,0.00,VWS V14.01,2013-02-06 18:55:00,
2013-02-06 11:56:00,41.5,19.6,30.02,West,278,19.0,19.0,41,0.00,,SKC,0.00,VWS V14.01,2013-02-06 18:56:00,
2013-02-06 11:57:00,41.6,19.7,30.02,West,281,15.0,20.0,41,0.00,,SKC,0.00,VWS V14.01,2013-02-06 18:57:00,
2013-02-06 11:58:00,41.6,19.7,30.01,West,274,14.0,22.0,41,0.00,,SKC,0.00,VWS V14.01,2013-02-06 18:58:00,
2013-02-06 11:59:00,41.7,19.2,30.02,West,277,18.0,22.0,40,0.00,,SKC,0.00,VWS V14.01,2013-02-06 18:59:00,
2013-02-06 12:00:00,41.8,19.3,30.02,WSW,254,17.0,21.0,40,0.00,,SKC,0.00,VWS V14.01,2013-02-06 19:00:00,
2013-02-06 12:01:00,41.9,19.9,30.01,WSW,242,13.0,20.0,41,0.00,,SKC,0.00,VWS V14.01,2013-02-06 19:01:00,
2013-02-06 12:02:00,41.9,19.4,30.01,West,259,15.0,22.0,40,0.00,,SKC,0.00,VWS V14.01,2013-02-06 19:02:00,
2013-02-06 12:03:00,42.0,19.5,30.01,West,281,16.0,21.0,40,0.00,,SKC,0.00,VWS V14.01,2013-02-06 19:03:00,
2013-02-06 12:04:00,42.1,18.9,30.01,West,272,20.0,22.0,39,0.00,,SKC,0.00,VWS V14.01,2013-02-06 19:04:00,
2013-02-06 12:05:00,42.1,18.9,30.01,WSW,252,14.0,21.0,39,0.00,,SKC,0.00,VWS V14.01,2013-02-06 19:05:00,
2013-02-06 12:06:00,42.1,19.0,30.01,West,281,15.0,21.0,39,0.00,,SKC,0.00,VWS V14.01,2013-02-06 19:06:00,
2013-02-06 12:07:00,42.2,19.0,30.01,WSW,257,17.0,19.0,39,0.00,,SKC,0.00,VWS V14.01,2013-02-06 19:07:00,
2013-02-06 12:08:00,42.2,19.0,30.01,WSW,256,18.0,18.0,39,0.00,,SKC,0.00,VWS V14.01,2013-02-06 19:08:00,
2013-02-06 12:09:00,42.2,18.4,30.01,WSW,240,18.0,21.0,38,0.00,,SKC,0.00,VWS V14.01,2013-02-06 19:09:00,
2013-02-06 12:10:00,42.2,18.4,30.01,North,360,18.0,20.0,38,0.00,,SKC,0.00,VWS V14.01,2013-02-06 19:10:00,
2013-02-06 12:11:00,42.3,19.1,30.01,WSW,250,19.0,21.0,39,0.00,,SKC,0.00,VWS V14.01,2013-02-06 19:11:00,
2013-02-06 12:12:00,42.3,19.1,30.01,West,268,17.0,19.0,39,0.00,,SKC,0.00,VWS V14.01,2013-02-06 19:12:00,
2013-02-06 12:13:00,42.3,19.1,30.01,West,281,11.0,19.0,39,0.00,,SKC,0.00,VWS V14.01,2013-02-06 19:13:00,
2013-02-06 12:14:00,42.4,19.2,30.01,North,360,18.0,23.0,39,0.00,,SKC,0.00,VWS V14.01,2013-02-06 19:14:00,
2013-02-06 12:15:00,42.4,19.2,30.01,West,276,16.0,21.0,39,0.00,,SKC,0.00,VWS V14.01,2013-02-06 19:15:00,
2013-02-06 12:16:00,42.4,19.2,30.01,WNW,286,18.0,20.0,39,0.00,,SKC,0.00,VWS V14.01,2013-02-06 19:16:00,
2013-02-06 12:17:00,42.4,19.2,30.01,West,278,20.0,20.0,39,0.00,,SKC,0.00,VWS V14.01,2013-02-06 19:17:00,
2013-02-06 12:18:00,42.4,19.2,30.01,WNW,288,17.0,21.0,39,0.00,,SKC,0.00,VWS V14.01,2013-02-06 19:18:00,
2013-02-06 12:19:00,42.4,19.2,30.01,WNW,282,18.0,22.0,39,0.00,,SKC,0.00,VWS V14.01,2013-02-06 19:19:00,
2013-02-06 12:20:00,42.4,19.2,30.01,West,278,18.0,22.0,39,0.00,,SKC,0.00,VWS V14.01,2013-02-06 19:20:00,
2013-02-06 12:21:00,42.4,19.2,30.01,West,277,16.0,19.0,39,0.00,,SKC,0.00,VWS V14.01,2013-02-06 19:21:00,
2013-02-06 12:22:00,42.4,19.2,30.01,WNW,288,19.0,21.0,39,0.00,,SKC,0.00,VWS V14.01,2013-02-06 19:22:00,
2013-02-06 12:23:00,42.5,19.3,30.01,WNW,292,18.0,19.0,39,0.00,,SKC,0.00,VWS V14.01,2013-02-06 19:23:00,
2013-02-06 12:24:00,42.5,19.3,30.01,WNW,296,14.0,18.0,39,0.00,,SKC,0.00,VWS V14.01,2013-02-06 19:24:00,
2013-02-06 12:25:00,42.5,19.3,30.01,WNW,283,15.0,19.0,39,0.00,,SKC,0.00,VWS V14.01,2013-02-06 19:25:00,
2013-02-06 12:26:00,42.6,19.4,30.01,West,269,13.0,15.0,39,0.00,,SKC,0.00,VWS V14.01,2013-02-06 19:26:00,
2013-02-06 12:27:00,42.6,19.4,30.01,West,281,16.0,17.0,39,0.00,,SKC,0.00,VWS V14.01,2013-02-06 19:27:00,
2013-02-06 12:28:00,42.6,19.4,30.01,West,279,14.0,17.0,39,0.00,,SKC,0.00,VWS V14.01,2013-02-06 19:28:00,
2013-02-06 12:29:00,42.7,19.5,30.01,West,277,11.0,16.0,39,0.00,,SKC,0.00,VWS V14.01,2013-02-06 19:29:00,
2013-02-06 12:30:00,42.7,19.5,30.01,NW,304,13.0,17.0,39,0.00,,SKC,0.00,VWS V14.01,2013-02-06 19:30:00,
2013-02-06 12:31:00,42.8,19.6,30.01,WNW,300,10.0,16.0,39,0.00,,SKC,0.00,VWS V14.01,2013-02-06 19:31:00,
2013-02-06 12:32:00,42.8,19.6,30.01,WNW,299,11.0,14.0,39,0.00,,SKC,0.00,VWS V14.01,2013-02-06 19:32:00,
2013-02-06 12:33:00,42.8,19.0,30.01,North,360,14.0,16.0,38,0.00,,SKC,0.00,VWS V14.01,2013-02-06 19:33:00,
2013-02-06 12:34:00,42.9,19.7,30.01,WNW,292,16.0,16.0,39,0.00,,SKC,0.00,VWS V14.01,2013-02-06 19:34:00,
2013-02-06 12:35:00,43.0,19.1,30.01,North,360,11.0,16.0,38,0.00,,SKC,0.00,VWS V14.01,2013-02-06 19:35:00,
2013-02-06 12:36:00,43.1,19.2,30.01,WNW,289,7.0,17.0,38,0.00,,SKC,0.00,VWS V14.01,2013-02-06 19:36:00,
2013-02-06 12:37:00,43.1,19.8,30.01,North,360,12.0,15.0,39,0.00,,SKC,0.00,VWS V14.01,2013-02-06 19:37:00,
2013-02-06 12:38:00,43.2,19.9,30.01,West,272,4.0,12.0,39,0.00,,SKC,0.00,VWS V14.01,2013-02-06 19:38:00,
2013-02-06 12:39:00,43.3,19.4,30.00,North,360,12.0,14.0,38,0.00,,SKC,0.00,VWS V14.01,2013-02-06 19:39:00,
2013-02-06 12:40:00,43.4,19.5,30.00,NW,305,13.0,16.0,38,0.00,,SKC,0.00,VWS V14.01,2013-02-06 19:40:00,
2013-02-06 12:41:00,43.6,19.7,30.00,North,360,15.0,18.0,38,0.00,,SKC,0.00,VWS V14.01,2013-02-06 19:41:00,
2013-02-06 12:42:00,43.6,19.7,30.00,WNW,286,10.0,16.0,38,0.00,,SKC,0.00,VWS V14.01,2013-02-06 19:42:00,
2013-02-06 12:43:00,43.8,19.9,30.00,WNW,298,15.0,20.0,38,0.00,,SKC,0.00,VWS V14.01,2013-02-06 19:43:00,
2013-02-06 12:44:00,43.9,20.0,30.01,West,272,11.0,18.0,38,0.00,,SKC,0.00,VWS V14.01,2013-02-06 19:44:00,
2013-02-06 12:45:00,44.0,20.0,30.00,WNW,289,16.0,16.0,38,0.00,,SKC,0.00,VWS V14.01,2013-02-06 19:45:00,
2013-02-06 12:46:00,44.1,19.5,30.00,West,279,14.0,17.0,37,0.00,,SKC,0.00,VWS V14.01,2013-02-06 19:46:00,
2013-02-06 12:47:00,44.2,19.6,30.00,WNW,294,15.0,18.0,37,0.00,,SKC,0.00,VWS V14.01,2013-02-06 19:47:00,
2013-02-06 12:48:00,44.3,19.7,30.00,West,267,12.0,19.0,37,0.00,,SKC,0.00,VWS V14.01,2013-02-06 19:48:00,
2013-02-06 12:49:00,44.5,19.9,30.00,WNW,284,16.0,18.0,37,0.00,,SKC,0.00,VWS V14.01,2013-02-06 19:49:00,
2013-02-06 12:50:00,44.8,20.1,30.00,West,279,15.0,20.0,37,0.00,,SKC,0.00,VWS V14.01,2013-02-06 19:50:00,
2013-02-06 12:51:00,45.0,20.3,30.00,WNW,293,18.0,20.0,37,0.00,,SKC,0.00,VWS V14.01,2013-02-06 19:51:00,
2013-02-06 12:52:00,45.2,19.9,30.00,WNW,286,16.0,21.0,36,0.00,,SKC,0.00,VWS V14.01,2013-02-06 19:52:00,
2013-02-06 12:53:00,45.4,20.0,30.00,WNW,283,10.0,17.0,36,0.00,,SKC,0.00,VWS V14.01,2013-02-06 19:53:00,
2013-02-06 12:54:00,45.5,20.1,30.00,West,264,8.0,20.0,36,0.00,,SKC,0.00,VWS V14.01,2013-02-06 19:54:00,
2013-02-06 12:55:00,45.7,20.3,30.00,West,280,19.0,19.0,36,0.00,,SKC,0.00,VWS V14.01,2013-02-06 19:55:00,
2013-02-06 12:56:00,45.9,20.5,30.00,West,281,9.0,21.0,36,0.00,,SKC,0.00,VWS V14.01,2013-02-06 19:56:00,
2013-02-06 12:57:00,46.0,20.6,30.00,North,360,9.0,14.0,36,0.00,,SKC,0.00,VWS V14.01,2013-02-06 19:57:00,
2013-02-06 12:58:00,46.0,20.6,30.00,WNW,290,11.0,13.0,36,0.00,,SKC,0.00,VWS V14.01,2013-02-06 19:58:00,
2013-02-06 12:59:00,46.1,20.6,30.00,North,360,15.0,17.0,36,0.00,,SKC,0.00,VWS V14.01,2013-02-06 19:59:00,
2013-02-06 13:00:00,46.1,20.0,30.00,West,277,18.0,20.0,35,0.00,,SKC,0.00,VWS V14.01,2013-02-06 20:00:00,
2013-02-06 13:01:00,46.1,20.0,30.00,WNW,292,13.0,18.0,35,0.00,,SKC,0.00,VWS V14.01,2013-02-06 20:01:00,
2013-02-06 13:02:00,46.1,20.0,30.00,West,281,20.0,20.0,35,0.00,,SKC,0.00,VWS V14.01,2013-02-06 20:02:00,
2013-02-06 13:03:00,46.1,20.6,30.00,West,261,15.0,20.0,36,0.00,,SKC,0.00,VWS V14.01,2013-02-06 20:03:00,
2013-02-06 13:04:00,46.0,19.9,30.00,West,264,16.0,16.0,35,0.00,,SKC,0.00,VWS V14.01,2013-02-06 20:04:00,
2013-02-06 13:05:00,45.9,19.8,30.00,West,275,13.0,19.0,35,0.00,,SKC,0.00,VWS V14.01,2013-02-06 20:05:00,
2013-02-06 13:06:00,45.8,20.4,30.00,West,259,11.0,13.0,36,0.00,,SKC,0.00,VWS V14.01,2013-02-06 20:06:00,
2013-02-06 13:07:00,45.8,20.4,30.00,West,279,10.0,19.0,36,0.00,,SKC,0.00,VWS V14.01,2013-02-06 20:07:00,
2013-02-06 13:08:00,45.7,20.3,30.00,West,259,12.0,14.0,36,0.00,,SKC,0.00,VWS V14.01,2013-02-06 20:08:00,
2013-02-06 13:09:00,45.7,20.3,30.00,North,360,14.0,20.0,36,0.00,,SKC,0.00,VWS V14.01,2013-02-06 20:09:00,
2013-02-06 13:10:00,45.7,20.3,30.00,North,360,13.0,20.0,36,0.00,,SKC,0.00,VWS V14.01,2013-02-06 20:10:00,
2013-02-06 13:11:00,45.7,20.3,30.00,WNW,282,11.0,17.0,36,0.00,,SKC,0.00,VWS V14.01,2013-02-06 20:11:00,
2013-02-06 13:12:00,45.7,20.3,30.00,North,360,11.0,18.0,36,0.00,,SKC,0.00,VWS V14.01,2013-02-06 20:12:00,
2013-02-06 13:13:00,45.6,20.2,30.00,WNW,290,11.0,16.0,36,0.00,,SKC,0.00,VWS V14.01,2013-02-06 20:13:00,
2013-02-06 13:14:00,45.6,20.2,30.00,West,272,20.0,20.0,36,0.00,,SKC,0.00,VWS V14.01,2013-02-06 20:14:00,
2013-02-06 13:15:00,45.6,19.5,30.00,West,265,20.0,20.0,35,0.00,,SKC,0.00,VWS V14.01,2013-02-06 20:15:00,
2013-02-06 13:16:00,45.5,20.1,30.00,North,360,15.0,20.0,36,0.00,,SKC,0.00,VWS V14.01,2013-02-06 20:16:00,
2013-02-06 13:17:00,45.4,20.0,30.00,West,269,15.0,15.0,36,0.00,,SKC,0.00,VWS V14.01,2013-02-06 20:17:00,
2013-02-06 13:18:00,45.4,20.0,30.00,West,266,11.0,15.0,36,0.00,,SKC,0.00,VWS V14.01,2013-02-06 20:18:00,
2013-02-06 13:19:00,45.4,20.0,30.00,WNW,298,15.0,15.0,36,0.00,,SKC,0.00,VWS V14.01,2013-02-06 20:19:00,
2013-02-06 13:20:00,45.4,20.0,30.00,West,270,14.0,17.0,36,0.00,,SKC,0.00,VWS V14.01,2013-02-06 20:20:00,
2013-02-06 13:21:00,45.5,20.1,30.00,North,360,14.0,17.0,36,0.00,,SKC,0.00,VWS V14.01,2013-02-06 20:21:00,
2013-02-06 13:22:00,45.5,20.1,30.00,WNW,300,10.0,14.0,36,0.00,,SKC,0.00,VWS V14.01,2013-02-06 20:22:00,
2013-02-06 13:23:00,45.5,20.1,30.00,West,273,12.0,13.0,36,0.00,,SKC,0.00,VWS V14.01,2013-02-06 20:23:00,
2013-02-06 13:24:00,45.6,20.2,30.00,West,271,8.0,12.0,36,0.00,,SKC,0.00,VWS V14.01,2013-02-06 20:24:00,
2013-02-06 13:25:00,45.6,20.2,30.00,WSW,244,10.0,14.0,36,0.00,,SKC,0.00,VWS V14.01,2013-02-06 20:25:00,
2013-02-06 13:26:00,45.4,19.4,30.00,SW,234,6.0,10.0,35,0.00,,SKC,0.00,VWS V14.01,2013-02-06 20:26:00,
2013-02-06 13:27:00,45.3,19.9,30.00,West,278,6.0,9.0,36,0.00,,SKC,0.00,VWS V14.01,2013-02-06 20:27:00,
2013-02-06 13:28:00,45.1,19.8,30.00,WNW,290,10.0,10.0,36,0.00,,SKC,0.00,VWS V14.01,2013-02-06 20:28:00,
2013-02-06 13:29:00,45.1,19.8,30.00,West,274,11.0,12.0,36,0.00,,SKC,0.00,VWS V14.01,2013-02-06 20:29:00,
2013-02-06 13:30:00,45.1,19.8,29.99,West,265,14.0,14.0,36,0.00,,SKC,0.00,VWS V14.01,2013-02-06 20:30:00,
2013-02-06 13:31:00,45.0,19.7,29.99,West,270,9.0,14.0,36,0.00,,SKC,0.00,VWS V14.01,2013-02-06 20:31:00,
2013-02-06 13:32:00,45.1,19.8,29.99,West,269,14.0,15.0,36,0.00,,SKC,0.00,VWS V14.01,2013-02-06 20:32:00,
2013-02-06 13:33:00,45.1,19.8,29.99,West,277,12.0,14.0,36,0.00,,SKC,0.00,VWS V14.01,2013-02-06 20:33:00,
2013-02-06 13:34:00,45.1,19.8,29.99,West,277,15.0,15.0,36,0.00,,SKC,0.00,VWS V14.01,2013-02-06 20:34:00,
2013-02-06 13:35:00,45.1,19.8,29.99,West,279,14.0,15.0,36,0.00,,SKC,0.00,VWS V14.01,2013-02-06 20:35:00,
2013-02-06 13:36:00,45.1,19.8,30.00,WNW,293,9.0,16.0,36,0.00,,SKC,0.00,VWS V14.01,2013-02-06 20:36:00,
2013-02-06 13:37:00,45.0,19.7,29.99,WNW,285,10.0,12.0,36,0.00,,SKC,0.00,VWS V14.01,2013-02-06 20:37:00,
2013-02-06 13:38:00,45.0,19.7,29.99,WSW,257,13.0,13.0,36,0.00,,SKC,0.00,VWS V14.01,2013-02-06 20:38:00,
2013-02-06 13:39:00,45.1,19.8,29.99,North,360,4.0,13.0,36,0.00,,SKC,0.00,VWS V14.01,2013-02-06 20:39:00,
2013-02-06 13:40:00,45.0,19.7,29.99,West,269,7.0,8.0,36,0.00,,SKC,0.00,VWS V14.01,2013-02-06 20:40:00,
2013-02-06 13:41:00,45.0,19.7,29.99,WNW,292,8.0,13.0,36,0.00,,SKC,0.00,VWS V14.01,2013-02-06 20:41:00,
2013-02-06 13:42:00,45.0,19.7,29.99,West,272,11.0,15.0,36,0.00,,SKC,0.00,VWS V14.01,2013-02-06 20:42:00,
2013-02-06 13:43:00,45.1,19.8,29.99,West,274,14.0,14.0,36,0.00,,SKC,0.00,VWS V14.01,2013-02-06 20:43:00,
2013-02-06 13:44:00,45.1,19.8,29.99,West,262,10.0,14.0,36,0.00,,SKC,0.00,VWS V14.01,2013-02-06 20:44:00,
2013-02-06 13:45:00,45.2,19.9,29.99,West,262,11.0,15.0,36,0.00,,SKC,0.00,VWS V14.01,2013-02-06 20:45:00,
2013-02-06 13:46:00,45.3,19.9,29.99,West,261,10.0,11.0,36,0.00,,SKC,0.00,VWS V14.01,2013-02-06 20:46:00,
2013-02-06 13:47:00,45.3,19.3,29.99,West,280,17.0,17.0,35,0.00,,SKC,0.00,VWS V14.01,2013-02-06 20:47:00,
2013-02-06 13:48:00,45.2,19.2,29.99,West,271,13.0,17.0,35,0.00,,SKC,0.00,VWS V14.01,2013-02-06 20:48:00,
2013-02-06 13:49:00,45.2,19.2,29.99,West,281,9.0,13.0,35,0.00,,SKC,0.00,VWS V14.01,2013-02-06 20:49:00,
2013-02-06 13:50:00,45.2,19.2,29.99,WNW,285,12.0,12.0,35,0.00,,SKC,0.00,VWS V14.01,2013-02-06 20:50:00,
2013-02-06 13:51:00,45.1,19.1,29.99,West,269,10.0,14.0,35,0.00,,SKC,0.00,VWS V14.01,2013-02-06 20:51:00,
2013-02-06 13:52:00,45.1,19.8,29.99,WNW,296,17.0,18.0,36,0.00,,SKC,0.00,VWS V14.01,2013-02-06 20:52:00,
2013-02-06 13:53:00,45.0,19.7,29.99,North,360,14.0,17.0,36,0.00,,SKC,0.00,VWS V14.01,2013-02-06 20:53:00,
2013-02-06 13:54:00,45.0,19.7,29.99,WNW,301,14.0,17.0,36,0.00,,SKC,0.00,VWS V14.01,2013-02-06 20:54:00,
2013-02-06 13:55:00,45.0,19.7,29.99,WNW,296,10.0,17.0,36,0.00,,SKC,0.00,VWS V14.01,2013-02-06 20:55:00,
2013-02-06 13:56:00,45.0,19.7,29.99,WNW,284,15.0,16.0,36,0.00,,SKC,0.00,VWS V14.01,2013-02-06 20:56:00,
2013-02-06 13:57:00,45.0,19.7,29.99,WNW,292,11.0,15.0,36,0.00,,SKC,0.00,VWS V14.01,2013-02-06 20:57:00,
2013-02-06 13:58:00,45.0,19.7,29.99,WNW,292,9.0,11.0,36,0.00,,SKC,0.00,VWS V14.01,2013-02-06 20:58:00,
2013-02-06 13:59:00,45.0,19.0,29.99,WNW,286,11.0,11.0,35,0.00,,SKC,0.00,VWS V14.01,2013-02-06 20:59:00,
2013-02-06 14:00:00,45.0,19.7,29.99,WNW,285,11.0,11.0,36,0.00,,SKC,0.00,VWS V14.01,2013-02-06 21:00:00,
2013-02-06 14:01:00,45.0,19.7,29.99,North,360,15.0,15.0,36,0.00,,SKC,0.00,VWS V14.01,2013-02-06 21:01:00,
2013-02-06 14:02:00,44.9,18.9,29.99,WNW,302,12.0,15.0,35,0.00,,SKC,0.00,VWS V14.01,2013-02-06 21:02:00,
2013-02-06 14:03:00,44.9,18.9,29.99,NW,306,7.0,14.0,35,0.00,,SKC,0.00,VWS V14.01,2013-02-06 21:03:00,
2013-02-06 14:04:00,44.8,19.5,29.99,NW,309,10.0,14.0,36,0.00,,SKC,0.00,VWS V14.01,2013-02-06 21:04:00,
2013-02-06 14:05:00,44.7,19.4,29.99,North,360,9.0,14.0,36,0.00,,SKC,0.00,VWS V14.01,2013-02-06 21:05:00,
2013-02-06 14:06:00,44.7,19.4,29.99,North,360,5.0,10.0,36,0.00,,SKC,0.00,VWS V14.01,2013-02-06 21:06:00,
2013-02-06 14:07:00,44.7,19.4,29.99,NW,313,8.0,10.0,36,0.00,,SKC,0.00,VWS V14.01,2013-02-06 21:07:00,
2013-02-06 14:08:00,44.8,19.5,29.99,North,360,7.0,11.0,36,0.00,,SKC,0.00,VWS V14.01,2013-02-06 21:08:00,
2013-02-06 14:09:00,44.8,19.5,29.99,WNW,288,12.0,15.0,36,0.00,,SKC,0.00,VWS V14.01,2013-02-06 21:09:00,
2013-02-06 14:10:00,44.8,19.5,29.99,WNW,286,16.0,16.0,36,0.00,,SKC,0.00,VWS V14.01,2013-02-06 21:10:00,
2013-02-06 14:11:00,44.9,19.6,29.99,WNW,302,11.0,16.0,36,0.00,,SKC,0.00,VWS V14.01,2013-02-06 21:11:00,
2013-02-06 14:12:00,44.9,19.6,29.99,North,360,11.0,14.0,36,0.00,,SKC,0.00,VWS V14.01,2013-02-06 21:12:00,
2013-02-06 14:13:00,44.9,18.9,29.99,WNW,297,9.0,11.0,35,0.00,,SKC,0.00,VWS V14.01,2013-02-06 21:13:00,
2013-02-06 14:14:00,44.9,18.9,29.99,NW,309,10.0,10.0,35,0.00,,SKC,0.00,VWS V14.01,2013-02-06 21:14:00,
2013-02-06 14:15:00,44.8,19.5,29.99,NW,306,6.0,11.0,36,0.00,,SKC,0.00,VWS V14.01,2013-02-06 21:15:00,
2013-02-06 14:16:00,44.8,19.5,29.99,WNW,287,12.0,12.0,36,0.00,,SKC,0.00,VWS V14.01,2013-02-06 21:16:00,
2013-02-06 14:17:00,44.8,19.5,29.99,North,360,14.0,14.0,36,0.00,,SKC,0.00,VWS V14.01,2013-02-06 21:17:00,
2013-02-06 14:18:00,44.7,18.8,29.99,West,279,12.0,16.0,35,0.00,,SKC,0.00,VWS V14.01,2013-02-06 21:18:00,
2013-02-06 14:19:00,44.7,18.8,29.99,WNW,296,11.0,14.0,35,0.00,,SKC,0.00,VWS V14.01,2013-02-06 21:19:00,
2013-02-06 14:20:00,44.7,18.8,29.99,WNW,302,10.0,13.0,35,0.00,,SKC,0.00,VWS V14.01,2013-02-06 21:20:00,
2013-02-06 14:21:00,44.7,18.8,30.00,WNW,290,12.0,14.0,35,0.00,,SKC,0.00,VWS V14.01,2013-02-06 21:21:00,
2013-02-06 14:22:00,44.7,18.8,29.99,West,280,9.0,13.0,35,0.00,,SKC,0.00,VWS V14.01,2013-02-06 21:22:00,
2013-02-06 14:23:00,44.7,18.8,29.99,North,360,11.0,11.0,35,0.00,,SKC,0.00,VWS V14.01,2013-02-06 21:23:00,
2013-02-06 14:24:00,44.6,18.7,29.99,SW,225,10.0,12.0,35,0.00,,SKC,0.00,VWS V14.01,2013-02-06 21:24:00,
2013-02-06 14:25:00,44.6,18.7,29.99,WNW,293,7.0,10.0,35,0.00,,SKC,0.00,VWS V14.01,2013-02-06 21:25:00,
2013-02-06 14:26:00,44.6,19.3,29.99,West,261,11.0,12.0,36,0.00,,SKC,0.00,VWS V14.01,2013-02-06 21:26:00,
2013-02-06 14:27:00,44.6,18.7,29.99,WSW,254,12.0,13.0,35,0.00,,SKC,0.00,VWS V14.01,2013-02-06 21:27:00,
2013-02-06 14:28:00,44.6,18.7,29.99,WSW,247,6.0,12.0,35,0.00,,SKC,0.00,VWS V14.01,2013-02-06 21:28:00,
2013-02-06 14:29:00,44.6,18.7,29.99,West,271,5.0,11.0,35,0.00,,SKC,0.00,VWS V14.01,2013-02-06 21:29:00,
2013-02-06 14:30:00,44.6,18.7,30.00,WNW,300,11.0,14.0,35,0.00,,SKC,0.00,VWS V14.01,2013-02-06 21:30:00,
2013-02-06 14:31:00,44.6,18.7,30.00,NNW,327,4.0,11.0,35,0.00,,SKC,0.00,VWS V14.01,2013-02-06 21:31:00,
2013-02-06 14:32:00,44.5,18.6,30.00,NNW,327,3.0,4.0,35,0.00,,SKC,0.00,VWS V14.01,2013-02-06 21:32:00,
2013-02-06 14:33:00,44.5,18.6,30.00,WNW,302,9.0,10.0,35,0.00,,SKC,0.00,VWS V14.01,2013-02-06 21:33:00,
2013-02-06 14:34:00,44.4,18.5,30.00,WNW,296,10.0,11.0,35,0.00,,SKC,0.00,VWS V14.01,2013-02-06 21:34:00,
2013-02-06 14:35:00,44.4,18.5,30.00,NW,308,10.0,12.0,35,0.00,,SKC,0.00,VWS V14.01,2013-02-06 21:35:00,
2013-02-06 14:36:00,44.4,18.5,30.00,NW,316,5.0,15.0,35,0.00,,SKC,0.00,VWS V14.01,2013-02-06 21:36:00,
2013-02-06 14:37:00,44.4,18.5,30.00,North,360,12.0,14.0,35,0.00,,SKC,0.00,VWS V14.01,2013-02-06 21:37:00,
2013-02-06 14:38:00,44.4,18.5,30.00,NW,315,11.0,13.0,35,0.00,,SKC,0.00,VWS V14.01,2013-02-06 21:38:00,
2013-02-06 14:39:00,44.4,18.5,30.00,NW,305,13.0,15.0,35,0.00,,SKC,0.00,VWS V14.01,2013-02-06 21:39:00,
2013-02-06 14:40:00,44.4,18.5,30.00,West,262,9.0,15.0,35,0.00,,SKC,0.00,VWS V14.01,2013-02-06 21:40:00,
2013-02-06 14:41:00,44.4,18.5,30.00,SW,232,12.0,14.0,35,0.00,,SKC,0.00,VWS V14.01,2013-02-06 21:41:00,
2013-02-06 14:42:00,44.4,18.5,30.00,WNW,295,15.0,15.0,35,0.00,,SKC,0.00,VWS V14.01,2013-02-06 21:42:00,
2013-02-06 14:43:00,44.3,18.4,30.00,WNW,292,15.0,18.0,35,0.00,,SKC,0.00,VWS V14.01,2013-02-06 21:43:00,
2013-02-06 14:44:00,44.3,18.4,30.00,West,277,9.0,15.0,35,0.00,,SKC,0.00,VWS V14.01,2013-02-06 21:44:00,
2013-02-06 14:45:00,44.3,18.4,30.00,North,360,9.0,9.0,35,0.00,,SKC,0.00,VWS V14.01,2013-02-06 21:45:00,
2013-02-06 14:46:00,44.3,19.0,30.00,NW,306,7.0,9.0,36,0.00,,SKC,0.00,VWS V14.01,2013-02-06 21:46:00,
2013-02-06 14:47:00,44.3,19.0,30.00,WNW,290,11.0,15.0,36,0.00,,SKC,0.00,VWS V14.01,2013-02-06 21:47:00,
2013-02-06 14:48:00,44.2,18.3,30.00,North,360,9.0,13.0,35,0.00,,SKC,0.00,VWS V14.01,2013-02-06 21:48:00,
2013-02-06 14:49:00,44.2,18.3,30.00,WNW,289,7.0,9.0,35,0.00,,SKC,0.00,VWS V14.01,2013-02-06 21:49:00,
2013-02-06 14:50:00,44.2,19.0,30.00,West,277,12.0,13.0,36,0.00,,SKC,0.00,VWS V14.01,2013-02-06 21:50:00,
2013-02-06 14:51:00,44.2,18.3,30.00,WNW,287,12.0,14.0,35,0.00,,SKC,0.00,VWS V14.01,2013-02-06 21:51:00,
2013-02-06 14:52:00,44.2,18.3,30.00,WNW,290,14.0,18.0,35,0.00,,SKC,0.00,VWS V14.01,2013-02-06 21:52:00,
2013-02-06 14:53:00,44.2,19.0,30.00,WNW,292,6.0,14.0,36,0.00,,SKC,0.00,VWS V14.01,2013-02-06 21:53:00,
2013-02-06 14:54:00,44.2,19.0,30.00,WNW,296,9.0,11.0,36,0.00,,SKC,0.00,VWS V14.01,2013-02-06 21:54:00,
2013-02-06 14:55:00,44.2,19.0,30.00,North,360,3.0,9.0,36,0.00,,SKC,0.00,VWS V14.01,2013-02-06 21:55:00,
2013-02-06 14:56:00,44.2,18.3,30.00,North,360,10.0,10.0,35,0.00,,SKC,0.00,VWS V14.01,2013-02-06 21:56:00,
2013-02-06 14:57:00,44.3,19.0,30.00,North,360,9.0,12.0,36,0.00,,SKC,0.00,VWS V14.01,2013-02-06 21:57:00,
2013-02-06 14:58:00,44.3,19.0,30.00,West,275,14.0,15.0,36,0.00,,SKC,0.00,VWS V14.01,2013-02-06 21:58:00,
2013-02-06 14:59:00,44.3,19.0,30.00,WNW,298,11.0,16.0,36,0.00,,SKC,0.00,VWS V14.01,2013-02-06 21:59:00,
2013-02-06 15:00:00,44.2,19.0,30.00,NW,306,9.0,13.0,36,0.00,,SKC,0.00,VWS V14.01,2013-02-06 22:00:00,
2013-02-06 15:01:00,44.2,19.0,30.00,WNW,303,11.0,13.0,36,0.00,,SKC,0.00,VWS V14.01,2013-02-06 22:01:00,
2013-02-06 15:02:00,44.2,18.3,30.00,WNW,299,9.0,14.0,35,0.00,,SKC,0.00,VWS V14.01,2013-02-06 22:02:00,
2013-02-06 15:03:00,44.2,18.3,30.00,North,360,14.0,16.0,35,0.00,,SKC,0.00,VWS V14.01,2013-02-06 22:03:00,
2013-02-06 15:04:00,44.1,18.9,30.00,WNW,300,10.0,16.0,36,0.00,,SKC,0.00,VWS V14.01,2013-02-06 22:04:00,
2013-02-06 15:05:00,44.1,18.9,30.00,NW,317,5.0,10.0,36,0.00,,SKC,0.00,VWS V14.01,2013-02-06 22:05:00,
2013-02-06 15:06:00,44.1,18.9,30.00,NW,305,12.0,12.0,36,0.00,,SKC,0.00,VWS V14.01,2013-02-06 22:06:00,
2013-02-06 15:07:00,44.1,18.9,30.00,WNW,292,11.0,15.0,36,0.00,,SKC,0.00,VWS V14.01,2013-02-06 22:07:00,
2013-02-06 15:08:00,44.2,19.0,30.00,WNW,289,9.0,12.0,36,0.00,,SKC,0.00,VWS V14.01,2013-02-06 22:08:00,
2013-02-06 15:09:00,44.2,19.0,30.00,NW,317,8.0,10.0,36,0.00,,SKC,0.00,VWS V14.01,2013-02-06 22:09:00,
2013-02-06 15:10:00,44.3,19.0,30.00,WNW,293,7.0,12.0,36,0.00,,SKC,0.00,VWS V14.01,2013-02-06 22:10:00,
2013-02-06 15:11:00,44.3,18.4,30.00,NW,310,11.0,14.0,35,0.00,,SKC,0.00,VWS V14.01,2013-02-06 22:11:00,
2013-02-06 15:12:00,44.4,18.5,30.00,NW,324,9.0,12.0,35,0.00,,SKC,0.00,VWS V14.01,2013-02-06 22:12:00,
2013-02-06 15:13:00,44.4,18.5,30.00,WNW,290,15.0,18.0,35,0.00,,SKC,0.00,VWS V14.01,2013-02-06 22:13:00,
2013-02-06 15:14:00,44.4,18.5,30.00,WNW,298,15.0,17.0,35,0.00,,SKC,0.00,VWS V14.01,2013-02-06 22:14:00,
2013-02-06 15:15:00,44.4,19.1,30.01,WNW,290,15.0,17.0,36,0.00,,SKC,0.00,VWS V14.01,2013-02-06 22:15:00,
2013-02-06 15:16:00,44.4,18.5,30.01,WNW,302,13.0,15.0,35,0.00,,SKC,0.00,VWS V14.01,2013-02-06 22:16:00,
2013-02-06 15:17:00,44.3,19.0,30.01,North,360,9.0,13.0,36,0.00,,SKC,0.00,VWS V14.01,2013-02-06 22:17:00,
2013-02-06 15:18:00,44.3,19.0,30.01,NW,314,10.0,12.0,36,0.00,,SKC,0.00,VWS V14.01,2013-02-06 22:18:00,
2013-02-06 15:19:00,44.3,19.0,30.01,WNW,292,5.0,12.0,36,0.00,,SKC,0.00,VWS V14.01,2013-02-06 22:19:00,
2013-02-06 15:20:00,44.3,19.0,30.01,WNW,290,0.0,6.0,36,0.00,,SKC,0.00,VWS V14.01,2013-02-06 22:20:00,
2013-02-06 15:21:00,44.3,19.0,30.01,WNW,296,10.0,10.0,36,0.00,,SKC,0.00,VWS V14.01,2013-02-06 22:21:00,
2013-02-06 15:22:00,44.4,19.1,30.01,North,360,6.0,12.0,36,0.00,,SKC,0.00,VWS V14.01,2013-02-06 22:22:00,
2013-02-06 15:23:00,44.4,19.1,30.01,North,360,6.0,9.0,36,0.00,,SKC,0.00,VWS V14.01,2013-02-06 22:23:00,
2013-02-06 15:24:00,44.5,19.2,30.01,North,360,6.0,9.0,36,0.00,,SKC,0.00,VWS V14.01,2013-02-06 22:24:00,
2013-02-06 15:25:00,44.5,19.2,30.01,WNW,298,12.0,12.0,36,0.00,,SKC,0.00,VWS V14.01,2013-02-06 22:25:00,
2013-02-06 15:26:00,44.6,19.3,30.01,WNW,301,13.0,15.0,36,0.00,,SKC,0.00,VWS V14.01,2013-02-06 22:26:00,
2013-02-06 15:27:00,44.7,19.4,30.01,NW,305,10.0,13.0,36,0.00,,SKC,0.00,VWS V14.01,2013-02-06 22:27:00,
2013-02-06 15:28:00,44.8,19.5,30.01,West,270,7.0,13.0,36,0.00,,SKC,0.00,VWS V14.01,2013-02-06 22:28:00,
2013-02-06 15:29:00,44.9,18.9,30.01,North,360,11.0,12.0,35,0.00,,SKC,0.00,VWS V14.01,2013-02-06 22:29:00,
2013-02-06 15:30:00,45.0,19.7,30.01,West,271,6.0,11.0,36,0.00,,SKC,0.00,VWS V14.01,2013-02-06 22:30:00,
2013-02-06 15:31:00,45.0,19.7,30.01,WSW,258,6.0,6.0,36,0.00,,SKC,0.00,VWS V14.01,2013-02-06 22:31:00,
2013-02-06 15:32:00,45.0,19.0,30.01,West,273,4.0,11.0,35,0.00,,SKC,0.00,VWS V14.01,2013-02-06 22:32:00,
2013-02-06 15:33:00,45.0,19.0,30.01,North,360,9.0,11.0,35,0.00,,SKC,0.00,VWS V14.01,2013-02-06 22:33:00,
2013-02-06 15:34:00,45.1,19.1,30.01,SW,232,6.0,10.0,35,0.00,,SKC,0.00,VWS V14.01,2013-02-06 22:34:00,
2013-02-06 15:35:00,45.2,19.2,30.01,North,360,7.0,9.0,35,0.00,,SKC,0.00,VWS V14.01,2013-02-06 22:35:00,
2013-02-06 15:36:00,45.2,18.5,30.01,WSW,244,10.0,10.0,34,0.00,,SKC,0.00,VWS V14.01,2013-02-06 22:36:00,
2013-02-06 15:37:00,45.2,18.5,30.01,WSW,238,7.0,11.0,34,0.00,,SKC,0.00,VWS V14.01,2013-02-06 22:37:00,
2013-02-06 15:38:00,45.2,18.5,30.01,SSW,205,9.0,11.0,34,0.00,,SKC,0.00,VWS V14.01,2013-02-06 22:38:00,
2013-02-06 15:39:00,45.2,18.5,30.01,West,269,9.0,10.0,34,0.00,,SKC,0.00,VWS V14.01,2013-02-06 22:39:00,
2013-02-06 15:40:00,45.2,19.2,30.01,West,275,6.0,11.0,35,0.00,,SKC,0.00,VWS V14.01,2013-02-06 22:40:00,
2013-02-06 15:41:00,45.3,19.3,30.01,West,263,10.0,13.0,35,0.00,,SKC,0.00,VWS V14.01,2013-02-06 22:41:00,
2013-02-06 15:42:00,45.3,19.3,30.01,WNW,287,11.0,15.0,35,0.00,,SKC,0.00,VWS V14.01,2013-02-06 22:42:00,
2013-02-06 15:43:00,45.3,19.3,30.01,West,265,8.0,14.0,35,0.00,,SKC,0.00,VWS V14.01,2013-02-06 22:43:00,
2013-02-06 15:44:00,45.3,19.3,30.01,WNW,288,15.0,16.0,35,0.00,,SKC,0.00,VWS V14.01,2013-02-06 22:44:00,
2013-02-06 15:45:00,45.2,19.9,30.01,West,271,15.0,15.0,36,0.00,,SKC,0.00,VWS V14.01,2013-02-06 22:45:00,
2013-02-06 15:46:00,45.2,19.9,30.01,WNW,287,13.0,15.0,36,0.00,,SKC,0.00,VWS V14.01,2013-02-06 22:46:00,
2013-02-06 15:47:00,45.2,19.9,30.02,North,360,10.0,16.0,36,0.00,,SKC,0.00,VWS V14.01,2013-02-06 22:47:00,
2013-02-06 15:48:00,45.3,19.9,30.01,WNW,295,15.0,15.0,36,0.00,,SKC,0.00,VWS V14.01,2013-02-06 22:48:00,
2013-02-06 15:49:00,45.3,19.9,30.02,North,360,11.0,16.0,36,0.00,,SKC,0.00,VWS V14.01,2013-02-06 22:49:00,
2013-02-06 15:50:00,45.3,19.9,30.02,West,281,16.0,17.0,36,0.00,,SKC,0.00,VWS V14.01,2013-02-06 22:50:00,
2013-02-06 15:51:00,45.4,20.0,30.02,WNW,290,11.0,16.0,36,0.00,,SKC,0.00,VWS V14.01,2013-02-06 22:51:00,
2013-02-06 15:52:00,45.5,20.1,30.02,North,360,17.0,17.0,36,0.00,,SKC,0.00,VWS V14.01,2013-02-06 22:52:00,
2013-02-06 15:53:00,45.6,20.2,30.01,WNW,290,16.0,17.0,36,0.00,,SKC,0.00,VWS V14.01,2013-02-06 22:53:00,
2013-02-06 15:54:00,45.6,20.2,30.02,WNW,293,12.0,17.0,36,0.00,,SKC,0.00,VWS V14.01,2013-02-06 22:54:00,
2013-02-06 15:55:00,45.7,20.3,30.02,WNW,290,11.0,18.0,36,0.00,,SKC,0.00,VWS V14.01,2013-02-06 22:55:00,
2013-02-06 15:56:00,45.6,19.5,30.02,North,360,10.0,15.0,35,0.00,,SKC,0.00,VWS V14.01,2013-02-06 22:56:00,
2013-02-06 15:57:00,45.6,20.2,30.02,WNW,290,17.0,17.0,36,0.00,,SKC,0.00,VWS V14.01,2013-02-06 22:57:00,
2013-02-06 15:58:00,45.6,20.2,30.02,WSW,257,8.0,17.0,36,0.00,,SKC,0.00,VWS V14.01,2013-02-06 22:58:00,
2013-02-06 15:59:00,45.5,20.1,30.02,WNW,290,16.0,16.0,36,0.00,,SKC,0.00,VWS V14.01,2013-02-06 22:59:00,
2013-02-06 16:00:00,45.4,20.0,30.02,West,264,11.0,17.0,36,0.00,,SKC,0.00,VWS V14.01,2013-02-06 23:00:00,
2013-02-06 16:01:00,45.3,19.9,30.02,WNW,289,11.0,11.0,36,0.00,,SKC,0.00,VWS V14.01,2013-02-06 23:01:00,
2013-02-06 16:02:00,45.2,19.9,30.02,West,270,9.0,12.0,36,0.00,,SKC,0.00,VWS V14.01,2013-02-06 23:02:00,
2013-02-06 16:03:00,45.1,19.8,30.02,SSW,210,13.0,13.0,36,0.00,,SKC,0.00,VWS V14.01,2013-02-06 23:03:00,
2013-02-06 16:04:00,45.0,20.3,30.02,SW,227,4.0,13.0,37,0.00,,SKC,0.00,VWS V14.01,2013-02-06 23:04:00,
2013-02-06 16:05:00,44.9,20.2,30.02,WNW,292,6.0,13.0,37,0.00,,SKC,0.00,VWS V14.01,2013-02-06 23:05:00,
2013-02-06 16:06:00,44.9,20.2,30.02,WNW,286,6.0,11.0,37,0.00,,SKC,0.00,VWS V14.01,2013-02-06 23:06:00,
2013-02-06 16:07:00,44.8,20.1,30.02,West,276,7.0,12.0,37,0.00,,SKC,0.00,VWS V14.01,2013-02-06 23:07:00,
2013-02-06 16:08:00,44.7,20.0,30.02,WNW,289,5.0,9.0,37,0.00,,SKC,0.00,VWS V14.01,2013-02-06 23:08:00,
2013-02-06 16:09:00,44.6,20.6,30.02,West,260,11.0,12.0,38,0.00,,SKC,0.00,VWS V14.01,2013-02-06 23:09:00,
2013-02-06 16:10:00,44.6,20.0,30.02,West,269,7.0,11.0,37,0.00,,SKC,0.00,VWS V14.01,2013-02-06 23:10:00,
2013-02-06 16:11:00,44.5,19.9,30.02,West,267,6.0,7.0,37,0.00,,SKC,0.00,VWS V14.01,2013-02-06 23:11:00,
2013-02-06 16:12:00,44.5,19.9,30.02,West,270,7.0,9.0,37,0.00,,SKC,0.00,VWS V14.01,2013-02-06 23:12:00,
2013-02-06 16:13:00,44.4,20.4,30.02,WSW,257,10.0,11.0,38,0.00,,SKC,0.00,VWS V14.01,2013-02-06 23:13:00,
2013-02-06 16:14:00,44.4,20.4,30.02,WNW,302,11.0,11.0,38,0.00,,SKC,0.00,VWS V14.01,2013-02-06 23:14:00,
2013-02-06 16:15:00,44.3,20.3,30.02,North,360,11.0,11.0,38,0.00,,SKC,0.00,VWS V14.01,2013-02-06 23:15:00,
2013-02-06 16:16:00,44.3,20.3,30.02,WNW,288,6.0,12.0,38,0.00,,SKC,0.00,VWS V14.01,2013-02-06 23:16:00,
2013-02-06 16:17:00,44.4,20.4,30.02,WNW,283,13.0,14.0,38,0.00,,SKC,0.00,VWS V14.01,2013-02-06 23:17:00,
2013-02-06 16:18:00,44.3,20.3,30.02,WNW,286,6.0,13.0,38,0.00,,SKC,0.00,VWS V14.01,2013-02-06 23:18:00,
2013-02-06 16:19:00,44.3,20.3,30.02,North,360,13.0,13.0,38,0.00,,SKC,0.00,VWS V14.01,2013-02-06 23:19:00,
2013-02-06 16:20:00,44.3,20.3,30.02,WNW,292,5.0,15.0,38,0.00,,SKC,0.00,VWS V14.01,2013-02-06 23:20:00,
2013-02-06 16:21:00,44.1,20.1,30.02,North,360,9.0,10.0,38,0.00,,SKC,0.00,VWS V14.01,2013-02-06 23:21:00,
2013-02-06 16:22:00,44.0,20.0,30.02,NW,307,6.0,11.0,38,0.00,,SKC,0.00,VWS V14.01,2013-02-06 23:22:00,
2013-02-06 16:23:00,43.9,20.6,30.02,North,360,9.0,10.0,39,0.00,,SKC,0.00,VWS V14.01,2013-02-06 23:23:00,
2013-02-06 16:24:00,43.8,20.5,30.02,WSW,243,10.0,12.0,39,0.00,,SKC,0.00,VWS V14.01,2013-02-06 23:24:00,
2013-02-06 16:25:00,43.8,20.5,30.02,West,265,9.0,12.0,39,0.00,,SKC,0.00,VWS V14.01,2013-02-06 23:25:00,
2013-02-06 16:26:00,43.7,20.4,30.02,North,360,7.0,10.0,39,0.00,,SKC,0.00,VWS V14.01,2013-02-06 23:26:00,
2013-02-06 16:27:00,43.7,20.4,30.02,West,271,4.0,9.0,39,0.00,,SKC,0.00,VWS V14.01,2013-02-06 23:27:00,
2013-02-06 16:28:00,43.6,20.3,30.02,NW,308,4.0,5.0,39,0.00,,SKC,0.00,VWS V14.01,2013-02-06 23:28:00,
2013-02-06 16:29:00,43.6,20.3,30.02,WSW,243,5.0,9.0,39,0.00,,SKC,0.00,VWS V14.01,2013-02-06 23:29:00,
2013-02-06 16:30:00,43.5,20.2,30.02,WSW,248,4.0,8.0,39,0.00,,SKC,0.00,VWS V14.01,2013-02-06 23:30:00,
2013-02-06 16:31:00,43.4,20.1,30.03,SSW,213,2.0,7.0,39,0.00,,SKC,0.00,VWS V14.01,2013-02-06 23:31:00,
2013-02-06 16:32:00,43.3,20.0,30.03,SW,220,3.0,4.0,39,0.00,,SKC,0.00,VWS V14.01,2013-02-06 23:32:00,
2013-02-06 16:33:00,43.3,20.0,30.03,SSW,213,4.0,9.0,39,0.00,,SKC,0.00,VWS V14.01,2013-02-06 23:33:00,
2013-02-06 16:34:00,43.2,20.5,30.03,SSW,208,4.0,5.0,40,0.00,,SKC,0.00,VWS V14.01,2013-02-06 23:34:00,
2013-02-06 16:35:00,43.2,20.5,30.03,SSE,165,5.0,5.0,40,0.00,,SKC,0.00,VWS V14.01,2013-02-06 23:35:00,
2013-02-06 16:36:00,43.2,19.9,30.03,East,101,9.0,11.0,39,0.00,,SKC,0.00,VWS V14.01,2013-02-06 23:36:00,
2013-02-06 16:37:00,43.2,19.9,30.03,East,100,4.0,9.0,39,0.00,,SKC,0.00,VWS V14.01,2013-02-06 23:37:00,
2013-02-06 16:38:00,43.2,19.9,30.03,ESE,108,4.0,6.0,39,0.00,,SKC,0.00,VWS V14.01,2013-02-06 23:38:00,
2013-02-06 16:39:00,43.1,19.8,30.03,ESE,121,4.0,6.0,39,0.00,,SKC,0.00,VWS V14.01,2013-02-06 23:39:00,
2013-02-06 16:40:00,43.0,19.8,30.03,SE,124,6.0,8.0,39,0.00,,SKC,0.00,VWS V14.01,2013-02-06 23:40:00,
2013-02-06 16:41:00,42.9,19.7,30.03,East,99,5.0,9.0,39,0.00,,SKC,0.00,VWS V14.01,2013-02-06 23:41:00,
2013-02-06 16:42:00,42.8,19.6,30.03,East,97,4.0,7.0,39,0.00,,SKC,0.00,VWS V14.01,2013-02-06 23:42:00,
2013-02-06 16:43:00,42.7,19.5,30.03,SE,124,5.0,6.0,39,0.00,,SKC,0.00,VWS V14.01,2013-02-06 23:43:00,
2013-02-06 16:44:00,42.6,20.0,30.03,ESE,108,4.0,6.0,40,0.00,,SKC,0.00,VWS V14.01,2013-02-06 23:44:00,
2013-02-06 16:45:00,42.5,19.9,30.03,ESE,111,5.0,11.0,40,0.00,,SKC,0.00,VWS V14.01,2013-02-06 23:45:00,
2013-02-06 16:46:00,42.4,19.8,30.03,ESE,107,5.0,9.0,40,0.00,,SKC,0.00,VWS V14.01,2013-02-06 23:46:00,
2013-02-06 16:47:00,42.3,19.7,30.03,ESE,108,3.0,9.0,40,0.00,,SKC,0.00,VWS V14.01,2013-02-06 23:47:00,
2013-02-06 16:48:00,42.2,19.6,30.03,ESE,109,3.0,6.0,40,0.00,,SKC,0.00,VWS V14.01,2013-02-06 23:48:00,
2013-02-06 16:49:00,42.1,19.5,30.03,East,95,5.0,7.0,40,0.00,,SKC,0.00,VWS V14.01,2013-02-06 23:49:00,
2013-02-06 16:50:00,42.0,19.5,30.03,ESE,114,5.0,9.0,40,0.00,,SKC,0.00,VWS V14.01,2013-02-06 23:50:00,
2013-02-06 16:51:00,41.9,19.4,30.03,ESE,105,10.0,12.0,40,0.00,,SKC,0.00,VWS V14.01,2013-02-06 23:51:00,
2013-02-06 16:52:00,41.9,19.4,30.03,ESE,105,10.0,12.0,40,0.00,,SKC,0.00,VWS V14.01,2013-02-06 23:52:00,
2013-02-06 16:53:00,41.6,19.7,30.04,East,89,13.0,16.0,41,0.00,,SKC,0.00,VWS V14.01,2013-02-06 23:53:00,
2013-02-06 16:54:00,41.5,19.6,30.04,East,98,10.0,14.0,41,0.00,,SKC,0.00,VWS V14.01,2013-02-06 23:54:00,
2013-02-06 16:55:00,41.4,19.5,30.04,ESE,104,7.0,11.0,41,0.00,,SKC,0.00,VWS V14.01,2013-02-06 23:55:00,
2013-02-06 16:56:00,41.3,19.4,30.04,East,98,7.0,12.0,41,0.00,,SKC,0.00,VWS V14.01,2013-02-06 23:56:00,
2013-02-06 16:57:00,41.1,19.8,30.04,ESE,104,9.0,13.0,42,0.00,,SKC,0.00,VWS V14.01,2013-02-06 23:57:00,
2013-02-06 16:58:00,41.0,19.7,30.04,ESE,117,5.0,9.0,42,0.00,,SKC,0.00,VWS V14.01,2013-02-06 23:58:00,
2013-02-06 16:59:00,40.9,19.6,30.05,ESE,115,6.0,7.0,42,0.00,,SKC,0.00,VWS V14.01,2013-02-06 23:59:00,
2013-02-06 17:00:00,40.9,19.6,30.05,East,83,11.0,11.0,42,0.00,,SKC,0.00,VWS V14.01,2013-02-07 00:00:00,
2013-02-06 17:01:00,40.8,19.5,30.05,East,87,6.0,11.0,42,0.00,,SKC,0.00,VWS V14.01,2013-02-07 00:01:00,
2013-02-06 17:02:00,40.7,19.4,30.05,ESE,116,3.0,9.0,42,0.00,,SKC,0.00,VWS V14.01,2013-02-07 00:02:00,
2013-02-06 17:03:00,40.6,19.3,30.05,East,101,6.0,6.0,42,0.00,,SKC,0.00,VWS V14.01,2013-02-07 00:03:00,
2013-02-06 17:04:00,40.5,19.2,30.06,East,91,6.0,6.0,42,0.00,,SKC,0.00,VWS V14.01,2013-02-07 00:04:00,
2013-02-06 17:05:00,40.5,19.8,30.06,North,360,9.0,12.0,43,0.00,,SKC,0.00,VWS V14.01,2013-02-07 00:05:00,
2013-02-06 17:06:00,40.4,19.7,30.06,East,99,4.0,10.0,43,0.00,,SKC,0.00,VWS V14.01,2013-02-07 00:06:00,
2013-02-06 17:07:00,40.3,19.6,30.06,East,101,7.0,7.0,43,0.00,,SKC,0.00,VWS V14.01,2013-02-07 00:07:00,
2013-02-06 17:08:00,40.3,19.6,30.06,North,360,6.0,7.0,43,0.00,,SKC,0.00,VWS V14.01,2013-02-07 00:08:00,
2013-02-06 17:09:00,40.2,19.5,30.06,ESE,104,5.0,8.0,43,0.00,,SKC,0.00,VWS V14.01,2013-02-07 00:09:00,
2013-02-06 17:10:00,40.1,19.4,30.06,East,100,5.0,9.0,43,0.00,,SKC,0.00,VWS V14.01,2013-02-07 00:10:00,
2013-02-06 17:11:00,40.0,19.3,30.06,East,101,4.0,9.0,43,0.00,,SKC,0.00,VWS V14.01,2013-02-07 00:11:00,
2013-02-06 17:12:00,40.0,19.3,30.06,East,94,3.0,6.0,43,0.00,,SKC,0.00,VWS V14.01,2013-02-07 00:12:00,
2013-02-06 17:13:00,39.9,19.2,30.06,ESE,113,5.0,7.0,43,0.00,,SKC,0.00,VWS V14.01,2013-02-07 00:13:00,
2013-02-06 17:14:00,39.8,19.7,30.06,ESE,117,4.0,6.0,44,0.00,,SKC,0.00,VWS V14.01,2013-02-07 00:14:00,
2013-02-06 17:15:00,39.8,19.7,30.06,SE,132,4.0,5.0,44,0.00,,SKC,0.00,VWS V14.01,2013-02-07 00:15:00,
2013-02-06 17:16:00,39.7,19.6,30.06,SE,130,6.0,11.0,44,0.00,,SKC,0.00,VWS V14.01,2013-02-07 00:16:00,
2013-02-06 17:17:00,39.6,19.5,30.06,SE,138,10.0,10.0,44,0.00,,SKC,0.00,VWS V14.01,2013-02-07 00:17:00,
2013-02-06 17:18:00,39.6,19.5,30.06,SE,138,4.0,10.0,44,0.00,,SKC,0.00,VWS V14.01,2013-02-07 00:18:00,
2013-02-06 17:19:00,39.5,19.4,30.06,SSE,164,7.0,7.0,44,0.00,,SKC,0.00,VWS V14.01,2013-02-07 00:19:00,
2013-02-06 17:20:00,39.5,19.4,30.06,SSE,162,5.0,7.0,44,0.00,,SKC,0.00,VWS V14.01,2013-02-07 00:20:00,
2013-02-06 17:21:00,39.4,19.3,30.06,East,82,5.0,5.0,44,0.00,,SKC,0.00,VWS V14.01,2013-02-07 00:21:00,
2013-02-06 17:22:00,39.4,19.3,30.07,ESE,113,3.0,7.0,44,0.00,,SKC,0.00,VWS V14.01,2013-02-07 00:22:00,
2013-02-06 17:23:00,39.3,19.2,30.07,East,99,8.0,8.0,44,0.00,,SKC,0.00,VWS V14.01,2013-02-07 00:23:00,
2013-02-06 17:24:00,39.3,19.8,30.07,North,360,11.0,11.0,45,0.00,,SKC,0.00,VWS V14.01,2013-02-07 00:24:00,
2013-02-06 17:25:00,39.2,19.7,30.07,ESE,123,5.0,12.0,45,0.00,,SKC,0.00,VWS V14.01,2013-02-07 00:25:00,
2013-02-06 17:26:00,39.2,19.7,30.07,East,101,12.0,12.0,45,0.00,,SKC,0.00,VWS V14.01,2013-02-07 00:26:00,
2013-02-06 17:27:00,39.1,19.6,30.07,ESE,115,13.0,14.0,45,0.00,,SKC,0.00,VWS V14.01,2013-02-07 00:27:00,
2013-02-06 17:28:00,39.0,20.0,30.07,North,360,11.0,15.0,46,0.00,,SKC,0.00,VWS V14.01,2013-02-07 00:28:00,
2013-02-06 17:29:00,38.9,19.9,30.07,North,360,12.0,15.0,46,0.00,,SKC,0.00,VWS V14.01,2013-02-07 00:29:00,
2013-02-06 17:30:00,38.9,19.9,30.07,East,96,9.0,17.0,46,0.00,,SKC,0.00,VWS V14.01,2013-02-07 00:30:00,
2013-02-06 17:31:00,38.8,20.3,30.07,East,100,14.0,14.0,47,0.00,,SKC,0.00,VWS V14.01,2013-02-07 00:31:00,
2013-02-06 17:32:00,38.7,20.7,30.08,East,95,12.0,17.0,48,0.00,,SKC,0.00,VWS V14.01,2013-02-07 00:32:00,
2013-02-06 17:33:00,38.6,20.6,30.08,North,360,15.0,19.0,48,0.00,,SKC,0.00,VWS V14.01,2013-02-07 00:33:00,
2013-02-06 17:34:00,38.5,21.5,30.08,North,360,15.0,18.0,50,0.00,,SKC,0.00,VWS V14.01,2013-02-07 00:34:00,
2013-02-06 17:35:00,38.3,21.3,30.08,ESE,109,14.0,17.0,50,0.00,,SKC,0.00,VWS V14.01,2013-02-07 00:35:00,
2013-02-06 17:36:00,38.2,22.1,30.08,East,99,12.0,18.0,52,0.00,,SKC,0.00,VWS V14.01,2013-02-07 00:36:00,
2013-02-06 17:37:00,38.0,22.4,30.08,East,101,14.0,16.0,53,0.00,,SKC,0.00,VWS V14.01,2013-02-07 00:37:00,
2013-02-06 17:38:00,37.9,22.3,30.08,ESE,105,14.0,18.0,53,0.00,,SKC,0.00,VWS V14.01,2013-02-07 00:38:00,
2013-02-06 17:39:00,37.8,22.2,30.08,East,100,14.0,16.0,53,0.00,,SKC,0.00,VWS V14.01,2013-02-07 00:39:00,
2013-02-06 17:40:00,37.6,22.5,30.08,ESE,109,16.0,16.0,54,0.00,,SKC,0.00,VWS V14.01,2013-02-07 00:40:00,
2013-02-06 17:41:00,37.5,23.2,30.08,East,92,16.0,19.0,56,0.00,,SKC,0.00,VWS V14.01,2013-02-07 00:41:00,
2013-02-06 17:42:00,37.3,23.5,30.09,East,99,16.0,23.0,57,0.00,,SKC,0.00,VWS V14.01,2013-02-07 00:42:00,
2013-02-06 17:43:00,37.2,23.8,30.09,East,96,12.0,18.0,58,0.00,,SKC,0.00,VWS V14.01,2013-02-07 00:43:00,
2013-02-06 17:44:00,37.0,23.6,30.09,ESE,117,14.0,16.0,58,0.00,,SKC,0.00,VWS V14.01,2013-02-07 00:44:00,
2013-02-06 17:45:00,36.8,23.8,30.09,ESE,113,10.0,15.0,59,0.00,,SKC,0.00,VWS V14.01,2013-02-07 00:45:00,
2013-02-06 17:46:00,36.7,23.7,30.09,East,93,15.0,15.0,59,0.00,,SKC,0.00,VWS V14.01,2013-02-07 00:46:00,
2013-02-06 17:47:00,36.5,24.0,30.09,North,360,11.0,15.0,60,0.00,,SKC,0.00,VWS V14.01,2013-02-07 00:47:00,
2013-02-06 17:48:00,36.3,24.2,30.09,ESE,107,12.0,15.0,61,0.00,,SKC,0.00,VWS V14.01,2013-02-07 00:48:00,
2013-02-06 17:49:00,36.2,24.5,30.09,East,84,11.0,17.0,62,0.00,,SKC,0.00,VWS V14.01,2013-02-07 00:49:00,
2013-02-06 17:50:00,36.1,24.7,30.09,East,96,9.0,12.0,63,0.00,,SKC,0.00,VWS V14.01,2013-02-07 00:50:00,
2013-02-06 17:51:00,35.9,24.9,30.09,ESE,111,13.0,14.0,64,0.00,,SKC,0.00,VWS V14.01,2013-02-07 00:51:00,
2013-02-06 17:52:00,35.8,25.2,30.10,North,360,12.0,13.0,65,0.00,,SKC,0.00,VWS V14.01,2013-02-07 00:52:00,
2013-02-06 17:53:00,35.6,25.4,30.09,ENE,70,9.0,13.0,66,0.00,,SKC,0.00,VWS V14.01,2013-02-07 00:53:00,
2013-02-06 17:54:00,35.5,26.0,30.10,East,93,8.0,11.0,68,0.00,,SKC,0.00,VWS V14.01,2013-02-07 00:54:00,
2013-02-06 17:55:00,35.3,25.8,30.10,ESE,113,5.0,12.0,68,0.00,,SKC,0.00,VWS V14.01,2013-02-07 00:55:00,
2013-02-06 17:56:00,35.2,25.7,30.10,East,84,6.0,9.0,68,0.00,,SKC,0.00,VWS V14.01,2013-02-07 00:56:00,
2013-02-06 17:57:00,35.0,25.9,30.10,SE,132,9.0,12.0,69,0.00,,SKC,0.00,VWS V14.01,2013-02-07 00:57:00,
2013-02-06 17:58:00,34.8,25.7,30.10,SE,139,6.0,12.0,69,0.00,,SKC,0.00,VWS V14.01,2013-02-07 00:58:00,
2013-02-06 17:59:00,34.5,25.7,30.10,ESE,112,10.0,10.0,70,0.00,,SKC,0.00,VWS V14.01,2013-02-07 00:59:00,
2013-02-06 18:00:00,34.4,26.0,30.10,SE,146,6.0,6.0,71,0.00,,SKC,0.00,VWS V14.01,2013-02-07 01:00:00,
2013-02-06 18:01:00,34.3,25.9,30.09,SE,139,4.0,7.0,71,0.00,,SKC,0.00,VWS V14.01,2013-02-07 01:01:00,
2013-02-06 18:02:00,34.1,26.0,30.10,SE,135,5.0,11.0,72,0.00,,SKC,0.00,VWS V14.01,2013-02-07 01:02:00,
2013-02-06 18:03:00,34.0,26.3,30.10,ESE,115,4.0,10.0,73,0.00,,SKC,0.00,VWS V14.01,2013-02-07 01:03:00,
2013-02-06 18:04:00,33.9,26.2,30.10,ENE,75,5.0,9.0,73,0.00,,SKC,0.00,VWS V14.01,2013-02-07 01:04:00,
2013-02-06 18:05:00,33.8,26.4,30.10,East,95,7.0,7.0,74,0.00,,SKC,0.00,VWS V14.01,2013-02-07 01:05:00,
2013-02-06 18:06:00,33.7,26.3,30.10,ESE,103,3.0,7.0,74,0.00,,SKC,0.00,VWS V14.01,2013-02-07 01:06:00,
2013-02-06 18:07:00,33.7,26.6,30.10,East,101,4.0,4.0,75,0.00,,SKC,0.00,VWS V14.01,2013-02-07 01:07:00,
2013-02-06 18:08:00,33.6,26.5,30.10,North,360,8.0,8.0,75,0.00,,SKC,0.00,VWS V14.01,2013-02-07 01:08:00,
2013-02-06 18:09:00,33.5,26.4,30.10,ESE,123,5.0,8.0,75,0.00,,SKC,0.00,VWS V14.01,2013-02-07 01:09:00,
2013-02-06 18:10:00,33.5,26.8,30.10,ESE,110,5.0,7.0,76,0.00,,SKC,0.00,VWS V14.01,2013-02-07 01:10:00,
2013-02-06 18:11:00,33.4,26.7,30.10,SE,126,4.0,10.0,76,0.00,,SKC,0.00,VWS V14.01,2013-02-07 01:11:00,
2013-02-06 18:12:00,33.3,26.9,30.10,East,86,7.0,7.0,77,0.00,,SKC,0.00,VWS V14.01,2013-02-07 01:12:00,
2013-02-06 18:13:00,33.2,26.8,30.11,East,99,7.0,11.0,77,0.00,,SKC,0.00,VWS V14.01,2013-02-07 01:13:00,
2013-02-06 18:14:00,33.2,26.8,30.10,North,360,10.0,12.0,77,0.00,,SKC,0.00,VWS V14.01,2013-02-07 01:14:00,
2013-02-06 18:15:00,33.2,26.8,30.11,East,101,8.0,13.0,77,0.00,,SKC,0.00,VWS V14.01,2013-02-07 01:15:00,
2013-02-06 18:16:00,33.1,26.7,30.10,ESE,116,8.0,8.0,77,0.00,,SKC,0.00,VWS V14.01,2013-02-07 01:16:00,
2013-02-06 18:17:00,33.0,26.9,30.11,East,92,6.0,11.0,78,0.00,,SKC,0.00,VWS V14.01,2013-02-07 01:17:00,
2013-02-06 18:18:00,33.0,26.9,30.10,East,98,6.0,6.0,78,0.00,,SKC,0.00,VWS V14.01,2013-02-07 01:18:00,
2013-02-06 18:19:00,32.9,26.8,30.11,ESE,111,4.0,6.0,78,0.00,,SKC,0.00,VWS V14.01,2013-02-07 01:19:00,
2013-02-06 18:20:00,32.9,26.8,30.11,ESE,106,3.0,4.0,78,0.00,,SKC,0.00,VWS V14.01,2013-02-07 01:20:00,
2013-02-06 18:21:00,32.9,27.1,30.11,East,96,7.0,7.0,79,0.00,,SKC,0.00,VWS V14.01,2013-02-07 01:21:00,
2013-02-06 18:22:00,32.8,27.0,30.11,ESE,121,2.0,7.0,79,0.00,,SKC,0.00,VWS V14.01,2013-02-07 01:22:00,
2013-02-06 18:23:00,32.8,27.0,30.11,East,84,6.0,7.0,79,0.00,,SKC,0.00,VWS V14.01,2013-02-07 01:23:00,
2013-02-06 18:24:00,32.8,27.0,30.11,ESE,114,6.0,10.0,79,0.00,,SKC,0.00,VWS V14.01,2013-02-07 01:24:00,
2013-02-06 18:25:00,32.8,27.0,30.11,ESE,105,10.0,10.0,79,0.00,,SKC,0.00,VWS V14.01,2013-02-07 01:25:00,
2013-02-06 18:26:00,32.7,26.9,30.11,East,99,7.0,10.0,79,0.00,,SKC,0.00,VWS V14.01,2013-02-07 01:26:00,
2013-02-06 18:27:00,32.7,27.2,30.12,East,98,7.0,9.0,80,0.00,,SKC,0.00,VWS V14.01,2013-02-07 01:27:00,
2013-02-06 18:28:00,32.7,27.2,30.11,East,94,6.0,8.0,80,0.00,,SKC,0.00,VWS V14.01,2013-02-07 01:28:00,
2013-02-06 18:29:00,32.6,27.1,30.12,ESE,103,3.0,6.0,80,0.00,,SKC,0.00,VWS V14.01,2013-02-07 01:29:00,
2013-02-06 18:30:00,32.6,27.1,30.11,ESE,105,2.0,5.0,80,0.00,,SKC,0.00,VWS V14.01,2013-02-07 01:30:00,
2013-02-06 18:31:00,32.6,27.1,30.12,ESE,104,4.0,6.0,80,0.00,,SKC,0.00,VWS V14.01,2013-02-07 01:31:00,
2013-02-06 18:32:00,32.6,27.1,30.12,East,96,3.0,5.0,80,0.00,,SKC,0.00,VWS V14.01,2013-02-07 01:32:00,
2013-02-06 18:33:00,32.6,27.1,30.12,East,99,4.0,4.0,80,0.00,,SKC,0.00,VWS V14.01,2013-02-07 01:33:00,
2013-02-06 18:34:00,32.6,27.4,30.12,East,92,3.0,4.0,81,0.00,,SKC,0.00,VWS V14.01,2013-02-07 01:34:00,
2013-02-06 18:35:00,32.5,27.3,30.12,East,88,2.0,5.0,81,0.00,,SKC,0.00,VWS V14.01,2013-02-07 01:35:00,
2013-02-06 18:36:00,32.5,27.3,30.12,East,89,1.0,4.0,81,0.00,,SKC,0.00,VWS V14.01,2013-02-07 01:36:00,
2013-02-06 18:37:00,32.5,27.3,30.12,ENE,65,1.0,6.0,81,0.00,,SKC,0.00,VWS V14.01,2013-02-07 01:37:00,
2013-02-06 18:38:00,32.5,27.3,30.12,North,360,11.0,11.0,81,0.00,,SKC,0.00,VWS V14.01,2013-02-07 01:38:00,
2013-02-06 18:39:00,32.5,27.3,30.12,ENE,75,2.0,11.0,81,0.00,,SKC,0.00,VWS V14.01,2013-02-07 01:39:00,
2013-02-06 18:40:00,32.5,27.3,30.12,East,88,7.0,7.0,81,0.00,,SKC,0.00,VWS V14.01,2013-02-07 01:40:00,
2013-02-06 18:41:00,32.5,27.3,30.12,East,82,3.0,7.0,81,0.00,,SKC,0.00,VWS V14.01,2013-02-07 01:41:00,
2013-02-06 18:42:00,32.4,27.2,30.12,East,82,0.0,3.0,81,0.00,,SKC,0.00,VWS V14.01,2013-02-07 01:42:00,
2013-02-06 18:43:00,32.5,27.3,30.12,East,85,1.0,1.0,81,0.00,,SKC,0.00,VWS V14.01,2013-02-07 01:43:00,
2013-02-06 18:44:00,32.4,27.2,30.12,East,79,0.0,2.0,81,0.00,,SKC,0.00,VWS V14.01,2013-02-07 01:44:00,
2013-02-06 18:45:00,32.4,27.2,30.12,East,86,0.0,1.0,81,0.00,,SKC,0.00,VWS V14.01,2013-02-07 01:45:00,
2013-02-06 18:46:00,32.3,27.1,30.13,East,82,0.0,0.0,81,0.00,,SKC,0.00,VWS V14.01,2013-02-07 01:46:00,
2013-02-06 18:47:00,32.3,27.1,30.13,East,88,0.0,0.0,81,0.00,,SKC,0.00,VWS V14.01,2013-02-07 01:47:00,
2013-02-06 18:48:00,32.3,27.1,30.13,East,85,0.0,1.0,81,0.00,,SKC,0.00,VWS V14.01,2013-02-07 01:48:00,
2013-02-06 18:49:00,32.3,27.1,30.13,East,85,0.0,1.0,81,0.00,,SKC,0.00,VWS V14.01,2013-02-07 01:49:00,
2013-02-06 18:50:00,32.3,27.1,30.13,ENE,78,0.0,0.0,81,0.00,,SKC,0.00,VWS V14.01,2013-02-07 01:50:00,
2013-02-06 18:51:00,32.3,27.1,30.13,East,86,1.0,1.0,81,0.00,,SKC,0.00,VWS V14.01,2013-02-07 01:51:00,
2013-02-06 18:52:00,32.3,27.4,30.13,East,87,0.0,1.0,82,0.00,,SKC,0.00,VWS V14.01,2013-02-07 01:52:00,
2013-02-06 18:53:00,32.3,27.4,30.13,East,83,0.0,0.0,82,0.00,,SKC,0.00,VWS V14.01,2013-02-07 01:53:00,
2013-02-06 18:54:00,32.3,27.4,30.13,East,82,0.0,0.0,82,0.00,,SKC,0.00,VWS V14.01,2013-02-07 01:54:00,
2013-02-06 18:55:00,32.2,27.3,30.13,East,82,0.0,0.0,82,0.00,,SKC,0.00,VWS V14.01,2013-02-07 01:55:00,
2013-02-06 18:56:00,32.2,27.3,30.13,East,86,0.0,0.0,82,0.00,,SKC,0.00,VWS V14.01,2013-02-07 01:56:00,
2013-02-06 18:57:00,32.2,27.3,30.13,East,87,0.0,0.0,82,0.00,,SKC,0.00,VWS V14.01,2013-02-07 01:57:00,
2013-02-06 18:58:00,32.1,27.2,30.13,East,80,0.0,0.0,82,0.00,,SKC,0.00,VWS V14.01,2013-02-07 01:58:00,
2013-02-06 18:59:00,32.1,27.2,30.13,East,80,0.0,0.0,82,0.00,,SKC,0.00,VWS V14.01,2013-02-07 01:59:00,
2013-02-06 19:00:00,32.1,27.2,30.13,East,81,0.0,0.0,82,0.00,,SKC,0.00,VWS V14.01,2013-02-07 02:00:00,
2013-02-06 19:01:00,32.1,27.2,30.13,East,86,0.0,0.0,82,0.00,,SKC,0.00,VWS V14.01,2013-02-07 02:01:00,
2013-02-06 19:02:00,32.1,27.5,30.13,East,84,0.0,0.0,83,0.00,,SKC,0.00,VWS V14.01,2013-02-07 02:02:00,
2013-02-06 19:03:00,32.1,27.5,30.13,East,85,0.0,0.0,83,0.00,,SKC,0.00,VWS V14.01,2013-02-07 02:03:00,
2013-02-06 19:04:00,32.0,27.4,30.13,East,82,0.0,0.0,83,0.00,,SKC,0.00,VWS V14.01,2013-02-07 02:04:00,
2013-02-06 19:05:00,32.1,27.5,30.13,East,84,1.0,1.0,83,0.00,,SKC,0.00,VWS V14.01,2013-02-07 02:05:00,
2013-02-06 19:06:00,32.1,27.5,30.13,East,84,0.0,1.0,83,0.00,,SKC,0.00,VWS V14.01,2013-02-07 02:06:00,
2013-02-06 19:07:00,32.1,27.5,30.13,East,86,0.0,0.0,83,0.00,,SKC,0.00,VWS V14.01,2013-02-07 02:07:00,
2013-02-06 19:08:00,32.1,27.5,30.13,East,84,0.0,0.0,83,0.00,,SKC,0.00,VWS V14.01,2013-02-07 02:08:00,
2013-02-06 19:09:00,32.1,27.8,30.13,East,86,0.0,0.0,84,0.00,,SKC,0.00,VWS V14.01,2013-02-07 02:09:00,
2013-02-06 19:10:00,32.1,27.5,30.13,East,85,0.0,1.0,83,0.00,,SKC,0.00,VWS V14.01,2013-02-07 02:10:00,
2013-02-06 19:11:00,32.1,27.5,30.13,East,86,0.0,0.0,83,0.00,,SKC,0.00,VWS V14.01,2013-02-07 02:11:00,
2013-02-06 19:12:00,32.1,27.5,30.13,East,84,0.0,0.0,83,0.00,,SKC,0.00,VWS V14.01,2013-02-07 02:12:00,
2013-02-06 19:13:00,32.1,27.5,30.13,East,86,0.0,0.0,83,0.00,,SKC,0.00,VWS V14.01,2013-02-07 02:13:00,
2013-02-06 19:14:00,32.1,27.8,30.13,East,83,0.0,0.0,84,0.00,,SKC,0.00,VWS V14.01,2013-02-07 02:14:00,
2013-02-06 19:15:00,32.1,27.5,30.14,East,81,0.0,0.0,83,0.00,,SKC,0.00,VWS V14.01,2013-02-07 02:15:00,
2013-02-06 19:16:00,32.1,27.8,30.14,ENE,78,0.0,0.0,84,0.00,,SKC,0.00,VWS V14.01,2013-02-07 02:16:00,
2013-02-06 19:17:00,32.0,27.4,30.14,East,84,0.0,0.0,83,0.00,,SKC,0.00,VWS V14.01,2013-02-07 02:17:00,
2013-02-06 19:18:00,32.0,27.4,30.14,East,80,0.0,0.0,83,0.00,,SKC,0.00,VWS V14.01,2013-02-07 02:18:00,
2013-02-06 19:19:00,32.0,27.4,30.14,East,86,0.0,0.0,83,0.00,,SKC,0.00,VWS V14.01,2013-02-07 02:19:00,
2013-02-06 19:20:00,32.0,29.1,30.14,East,80,0.0,0.0,89,0.00,,SKC,0.00,VWS V14.01,2013-02-07 02:20:00,
2013-02-06 19:21:00,32.0,27.4,30.14,East,84,0.0,0.0,83,0.00,,SKC,0.00,VWS V14.01,2013-02-07 02:21:00,
2013-02-06 19:22:00,31.9,27.3,30.14,East,84,0.0,0.0,83,0.00,,SKC,0.00,VWS V14.01,2013-02-07 02:22:00,
2013-02-06 19:23:00,31.9,27.3,30.14,East,84,0.0,0.0,83,0.00,,SKC,0.00,VWS V14.01,2013-02-07 02:23:00,
2013-02-06 19:24:00,31.9,27.3,30.14,East,86,0.0,0.0,83,0.00,,SKC,0.00,VWS V14.01,2013-02-07 02:24:00,
2013-02-06 19:25:00,31.9,27.3,30.14,East,80,0.0,0.0,83,0.00,,SKC,0.00,VWS V14.01,2013-02-07 02:25:00,
2013-02-06 19:26:00,31.9,27.3,30.14,East,86,0.0,0.0,83,0.00,,SKC,0.00,VWS V14.01,2013-02-07 02:26:00,
2013-02-06 19:27:00,31.9,27.6,30.14,East,85,0.0,1.0,84,0.00,,SKC,0.00,VWS V14.01,2013-02-07 02:27:00,
2013-02-06 19:28:00,31.9,27.3,30.14,East,86,0.0,1.0,83,0.00,,SKC,0.00,VWS V14.01,2013-02-07 02:28:00,
2013-02-06 19:29:00,31.9,27.3,30.14,East,88,0.0,0.0,83,0.00,,SKC,0.00,VWS V14.01,2013-02-07 02:29:00,
2013-02-06 19:30:00,31.8,27.2,30.14,East,84,0.0,0.0,83,0.00,,SKC,0.00,VWS V14.01,2013-02-07 02:30:00,
2013-02-06 19:31:00,31.8,27.2,30.14,East,85,0.0,0.0,83,0.00,,SKC,0.00,VWS V14.01,2013-02-07 02:31:00,
2013-02-06 19:32:00,31.8,27.2,30.14,East,88,0.0,0.0,83,0.00,,SKC,0.00,VWS V14.01,2013-02-07 02:32:00,
2013-02-06 19:33:00,31.8,27.2,30.14,East,81,0.0,0.0,83,0.00,,SKC,0.00,VWS V14.01,2013-02-07 02:33:00,
2013-02-06 19:34:00,31.8,27.2,30.14,East,92,0.0,0.0,83,0.00,,SKC,0.00,VWS V14.01,2013-02-07 02:34:00,
2013-02-06 19:35:00,31.8,27.2,30.14,East,86,0.0,0.0,83,0.00,,SKC,0.00,VWS V14.01,2013-02-07 02:35:00,
2013-02-06 19:36:00,31.8,27.2,30.14,East,85,0.0,0.0,83,0.00,,SKC,0.00,VWS V14.01,2013-02-07 02:36:00,
2013-02-06 19:37:00,31.8,27.2,30.14,East,87,0.0,1.0,83,0.00,,SKC,0.00,VWS V14.01,2013-02-07 02:37:00,
2013-02-06 19:38:00,31.8,27.2,30.14,East,84,0.0,0.0,83,0.00,,SKC,0.00,VWS V14.01,2013-02-07 02:38:00,
2013-02-06 19:39:00,31.8,27.2,30.14,East,80,0.0,0.0,83,0.00,,SKC,0.00,VWS V14.01,2013-02-07 02:39:00,
2013-02-06 19:40:00,31.8,27.2,30.14,East,86,0.0,0.0,83,0.00,,SKC,0.00,VWS V14.01,2013-02-07 02:40:00,
2013-02-06 19:41:00,31.8,27.2,30.14,East,81,0.0,0.0,83,0.00,,SKC,0.00,VWS V14.01,2013-02-07 02:41:00,
2013-02-06 19:42:00,31.8,27.2,30.14,East,84,0.0,0.0,83,0.00,,SKC,0.00,VWS V14.01,2013-02-07 02:42:00,
2013-02-06 19:43:00,31.8,27.2,30.15,East,84,0.0,0.0,83,0.00,,SKC,0.00,VWS V14.01,2013-02-07 02:43:00,
2013-02-06 19:44:00,31.8,27.2,30.15,ENE,78,0.0,0.0,83,0.00,,SKC,0.00,VWS V14.01,2013-02-07 02:44:00,
2013-02-06 19:45:00,31.7,27.4,30.15,East,83,0.0,0.0,84,0.00,,SKC,0.00,VWS V14.01,2013-02-07 02:45:00,
2013-02-06 19:46:00,31.7,27.4,30.15,East,87,0.0,0.0,84,0.00,,SKC,0.00,VWS V14.01,2013-02-07 02:46:00,
2013-02-06 19:47:00,31.7,27.4,30.15,East,84,0.0,0.0,84,0.00,,SKC,0.00,VWS V14.01,2013-02-07 02:47:00,
2013-02-06 19:48:00,31.7,27.4,30.15,East,83,0.0,0.0,84,0.00,,SKC,0.00,VWS V14.01,2013-02-07 02:48:00,
2013-02-06 19:49:00,31.7,27.4,30.15,East,84,0.0,0.0,84,0.00,,SKC,0.00,VWS V14.01,2013-02-07 02:49:00,
2013-02-06 19:50:00,31.7,27.4,30.15,East,87,0.0,0.0,84,0.00,,SKC,0.00,VWS V14.01,2013-02-07 02:50:00,
2013-02-06 19:51:00,31.7,27.4,30.15,East,86,0.0,0.0,84,0.00,,SKC,0.00,VWS V14.01,2013-02-07 02:51:00,
2013-02-06 19:52:00,31.7,27.4,30.15,East,85,0.0,0.0,84,0.00,,SKC,0.00,VWS V14.01,2013-02-07 02:52:00,
2013-02-06 19:53:00,31.7,27.4,30.15,East,83,0.0,0.0,84,0.00,,SKC,0.00,VWS V14.01,2013-02-07 02:53:00,
2013-02-06 19:54:00,31.7,27.4,30.15,East,85,0.0,0.0,84,0.00,,SKC,0.00,VWS V14.01,2013-02-07 02:54:00,
2013-02-06 19:55:00,31.7,27.4,30.15,East,87,0.0,0.0,84,0.00,,SKC,0.00,VWS V14.01,2013-02-07 02:55:00,
2013-02-06 19:59:00,31.7,27.4,30.15,East,87,0.0,0.0,84,0.00,,SKC,0.00,VWS V14.01,2013-02-07 02:59:00,
2013-02-06 20:04:00,31.6,27.3,30.15,East,82,0.0,0.0,84,0.00,,SKC,0.00,VWS V14.01,2013-02-07 03:04:00,
2013-02-06 20:05:00,31.7,27.4,30.15,North,0,0.0,0.0,84,0.00,,SKC,0.00,VWS V14.01,2013-02-07 03:05:00,
2013-02-06 20:06:00,31.5,27.2,30.15,East,88,0.0,0.0,84,0.00,,SKC,0.00,VWS V14.01,2013-02-07 03:06:00,
2013-02-06 20:07:00,31.5,27.2,30.15,East,87,0.0,0.0,84,0.00,,SKC,0.00,VWS V14.01,2013-02-07 03:07:00,
2013-02-06 20:08:00,31.4,26.8,30.15,East,90,0.0,0.0,83,0.00,,SKC,0.00,VWS V14.01,2013-02-07 03:08:00,
2013-02-06 20:09:00,31.4,26.8,30.15,East,86,0.0,0.0,83,0.00,,SKC,0.00,VWS V14.01,2013-02-07 03:09:00,
2013-02-06 20:10:00,31.3,26.8,30.15,East,86,0.0,0.0,83,0.00,,SKC,0.00,VWS V14.01,2013-02-07 03:10:00,
2013-02-06 20:11:00,31.3,26.8,30.15,East,84,0.0,0.0,83,0.00,,SKC,0.00,VWS V14.01,2013-02-07 03:11:00,
2013-02-06 20:12:00,31.2,26.6,30.15,East,82,0.0,0.0,83,0.00,,SKC,0.00,VWS V14.01,2013-02-07 03:12:00,
2013-02-06 20:13:00,31.2,26.6,30.15,East,85,0.0,0.0,83,0.00,,SKC,0.00,VWS V14.01,2013-02-07 03:13:00,
2013-02-06 20:14:00,31.1,26.5,30.15,East,84,0.0,1.0,83,0.00,,SKC,0.00,VWS V14.01,2013-02-07 03:14:00,
2013-02-06 20:15:00,31.1,26.5,30.15,East,86,0.0,0.0,83,0.00,,SKC,0.00,VWS V14.01,2013-02-07 03:15:00,
2013-02-06 20:16:00,31.0,26.5,30.15,East,86,0.0,0.0,83,0.00,,SKC,0.00,VWS V14.01,2013-02-07 03:16:00,
2013-02-06 20:17:00,30.9,26.4,30.15,East,85,0.0,0.0,83,0.00,,SKC,0.00,VWS V14.01,2013-02-07 03:17:00,
2013-02-06 20:18:00,30.9,26.4,30.15,East,92,0.0,0.0,83,0.00,,SKC,0.00,VWS V14.01,2013-02-07 03:18:00,
2013-02-06 20:27:00,30.2,26.2,30.15,East,84,0.0,0.0,85,0.00,,SKC,0.00,VWS V14.01,2013-02-07 03:27:00,
2013-02-06 20:32:00,30.0,26.0,30.16,East,86,1.0,1.0,85,0.00,,SKC,0.00,VWS V14.01,2013-02-07 03:32:00,
2013-02-06 20:37:00,29.7,26.0,30.16,East,84,0.0,0.0,86,0.00,,SKC,0.00,VWS V14.01,2013-02-07 03:37:00,
2013-02-06 20:42:00,29.3,25.6,30.16,East,83,2.0,2.0,86,0.00,,SKC,0.00,VWS V14.01,2013-02-07 03:42:00,
2013-02-06 20:48:00,29.2,25.8,30.17,North,360,0.0,3.0,87,0.00,,SKC,0.00,VWS V14.01,2013-02-07 03:48:00,
2013-02-06 20:53:00,29.2,25.8,30.17,North,360,0.0,1.0,87,0.00,,SKC,0.00,VWS V14.01,2013-02-07 03:53:00,
2013-02-06 20:58:00,28.9,25.5,30.17,North,5,0.0,1.0,87,0.00,,SKC,0.00,VWS V14.01,2013-02-07 03:58:00,
2013-02-06 21:03:00,28.9,25.8,30.18,North,5,0.0,0.0,88,0.00,,SKC,0.00,VWS V14.01,2013-02-07 04:03:00,
2013-02-06 21:08:00,28.8,25.7,30.18,North,9,0.0,0.0,88,0.00,,SKC,0.00,VWS V14.01,2013-02-07 04:08:00,
2013-02-06 21:14:00,28.8,25.7,30.19,NNE,13,0.0,0.0,88,0.00,,SKC,0.00,VWS V14.01,2013-02-07 04:14:00,
2013-02-06 21:21:00,28.9,26.1,30.19,North,11,0.0,0.0,89,0.00,,SKC,0.00,VWS V14.01,2013-02-07 04:21:00,
2013-02-06 21:27:00,29.0,26.2,30.20,North,11,2.0,2.0,89,0.00,,SKC,0.00,VWS V14.01,2013-02-07 04:27:00,
2013-02-06 21:33:00,28.9,26.1,30.20,North,10,1.0,3.0,89,0.00,,SKC,0.00,VWS V14.01,2013-02-07 04:33:00,
2013-02-06 21:39:00,28.9,26.1,30.20,North,5,0.0,0.0,89,0.00,,SKC,0.00,VWS V14.01,2013-02-07 04:39:00,
2013-02-06 21:44:00,28.8,26.0,30.20,North,5,1.0,1.0,89,0.00,,SKC,0.00,VWS V14.01,2013-02-07 04:44:00,
2013-02-06 21:49:00,28.7,25.6,30.20,North,5,0.0,2.0,88,0.00,,SKC,0.00,VWS V14.01,2013-02-07 04:49:00,
2013-02-06 21:55:00,28.6,25.2,30.21,North,9,0.0,0.0,87,0.00,,SKC,0.00,VWS V14.01,2013-02-07 04:55:00,
2013-02-06 22:01:00,28.7,24.5,30.21,North,5,0.0,0.0,84,0.00,,SKC,0.00,VWS V14.01,2013-02-07 05:01:00,
2013-02-06 22:02:00,28.8,24.3,30.21,North,9,1.0,1.0,83,0.00,,SKC,0.00,VWS V14.01,2013-02-07 05:02:00,
2013-02-06 22:03:00,28.8,24.3,30.21,North,5,0.0,1.0,83,0.00,,SKC,0.00,VWS V14.01,2013-02-07 05:03:00,
2013-02-06 22:08:00,28.9,24.1,30.21,North,5,0.0,3.0,82,0.00,,SKC,0.00,VWS V14.01,2013-02-07 05:08:00,
2013-02-06 22:13:00,28.9,24.4,30.21,North,9,2.0,2.0,83,0.00,,SKC,0.00,VWS V14.01,2013-02-07 05:13:00,
2013-02-06 22:19:00,28.8,23.7,30.22,North,5,0.0,0.0,81,0.00,,SKC,0.00,VWS V14.01,2013-02-07 05:19:00,
2013-02-06 22:25:00,28.8,22.8,30.22,North,5,0.0,0.0,78,0.00,,SKC,0.00,VWS V14.01,2013-02-07 05:25:00,
2013-02-06 22:30:00,28.8,22.5,30.23,North,9,0.0,1.0,77,0.00,,SKC,0.00,VWS V14.01,2013-02-07 05:30:00,
2013-02-06 22:35:00,28.8,21.9,30.23,NE,54,2.0,5.0,75,0.00,,SKC,0.00,VWS V14.01,2013-02-07 05:35:00,
2013-02-06 22:40:00,28.7,20.8,30.24,ENE,57,1.0,2.0,72,0.00,,SKC,0.00,VWS V14.01,2013-02-07 05:40:00,
2013-02-06 22:46:00,28.6,20.4,30.24,East,82,0.0,1.0,71,0.00,,SKC,0.00,VWS V14.01,2013-02-07 05:46:00,
2013-02-06 22:52:00,28.6,19.4,30.24,East,84,0.0,0.0,68,0.00,,SKC,0.00,VWS V14.01,2013-02-07 05:52:00,
2013-02-06 22:57:00,29.0,18.7,30.25,ENE,78,0.0,0.0,65,0.00,,SKC,0.00,VWS V14.01,2013-02-07 05:57:00,
2013-02-06 23:03:00,29.4,18.4,30.25,East,89,0.0,1.0,63,0.00,,SKC,0.00,VWS V14.01,2013-02-07 06:03:00,
2013-02-06 23:08:00,29.6,17.4,30.25,North,360,6.0,6.0,60,0.00,,SKC,0.00,VWS V14.01,2013-02-07 06:08:00,
2013-02-06 23:13:00,29.6,17.0,30.26,North,360,10.0,11.0,59,0.00,,SKC,0.00,VWS V14.01,2013-02-07 06:13:00,
2013-02-06 23:18:00,29.6,16.6,30.26,North,360,4.0,7.0,58,0.00,,SKC,0.00,VWS V14.01,2013-02-07 06:18:00,
2013-02-06 23:24:00,29.7,15.9,30.26,North,355,3.0,4.0,56,0.00,,SKC,0.00,VWS V14.01,2013-02-07 06:24:00,
2013-02-06 23:29:00,29.7,15.5,30.27,North,351,3.0,4.0,55,0.00,,SKC,0.00,VWS V14.01,2013-02-07 06:29:00,
2013-02-06 23:35:00,29.6,15.4,30.27,North,360,2.0,6.0,55,0.00,,SKC,0.00,VWS V14.01,2013-02-07 06:35:00,
2013-02-06 23:41:00,29.2,15.1,30.27,North,360,6.0,7.0,55,0.00,,SKC,0.00,VWS V14.01,2013-02-07 06:41:00,
2013-02-06 23:46:00,28.7,14.2,30.28,North,360,3.0,4.0,54,0.00,,SKC,0.00,VWS V14.01,2013-02-07 06:46:00,
2013-02-06 23:51:00,28.8,13.8,30.28,North,355,4.0,6.0,53,0.00,,SKC,0.00,VWS V14.01,2013-02-07 06:51:00,
2013-02-06 23:56:00,28.8,13.4,30.28,North,350,9.0,10.0,52,0.00,,SKC,0.00,VWS V14.01,2013-02-07 06:56:00,